<?xml version="1.0" encoding="UTF-8" standalone="no" ?>
<gpx xmlns="http://www.topografix.com/GPX/1/1" xmlns:xsi="http://www.w3.org/2001/XMLSchema-instance" xsi:schemaLocation="http://www.topografix.com/GPX/1/1 http://www.topografix.com/GPX/1/1/gpx.xsd" version="1.1" creator="VisuGPX - https://www.visugpx.com">
  <metadata>
    <name>Pont à pierres Beaudignies</name>
  </metadata>
  <trk>
    <name><![CDATA[Pont à pierres Beaudignies]]></name>
    <trkseg>
      <trkpt lat="50.12574" lon="3.6791">
        <ele>132.80000305176</ele>
        <time>2020-08-16T07:37:58.000Z</time>
      </trkpt>
      <trkpt lat="50.12586" lon="3.67924">
        <ele>132.19999694824</ele>
        <time>2020-08-16T07:38:02.000Z</time>
      </trkpt>
      <trkpt lat="50.12592" lon="3.67933">
        <ele>132.19999694824</ele>
        <time>2020-08-16T07:38:04.000Z</time>
      </trkpt>
      <trkpt lat="50.12615" lon="3.67975">
        <ele>132.19999694824</ele>
        <time>2020-08-16T07:38:11.000Z</time>
      </trkpt>
      <trkpt lat="50.12617" lon="3.67981">
        <ele>132.19999694824</ele>
        <time>2020-08-16T07:38:12.000Z</time>
      </trkpt>
      <trkpt lat="50.12621" lon="3.67994">
        <ele>132.19999694824</ele>
        <time>2020-08-16T07:38:15.000Z</time>
      </trkpt>
      <trkpt lat="50.12629" lon="3.68016">
        <ele>132.19999694824</ele>
        <time>2020-08-16T07:38:18.000Z</time>
      </trkpt>
      <trkpt lat="50.1266" lon="3.6808">
        <ele>132.19999694824</ele>
        <time>2020-08-16T07:38:27.000Z</time>
      </trkpt>
      <trkpt lat="50.12662" lon="3.68087">
        <ele>132.19999694824</ele>
        <time>2020-08-16T07:38:28.000Z</time>
      </trkpt>
      <trkpt lat="50.12671" lon="3.6811">
        <ele>132.19999694824</ele>
        <time>2020-08-16T07:38:31.000Z</time>
      </trkpt>
      <trkpt lat="50.12678" lon="3.68123">
        <ele>132.19999694824</ele>
        <time>2020-08-16T07:38:33.000Z</time>
      </trkpt>
      <trkpt lat="50.12704" lon="3.68176">
        <ele>132.19999694824</ele>
        <time>2020-08-16T07:38:41.000Z</time>
      </trkpt>
      <trkpt lat="50.12706" lon="3.68183">
        <ele>132.19999694824</ele>
        <time>2020-08-16T07:38:42.000Z</time>
      </trkpt>
      <trkpt lat="50.12721" lon="3.68213">
        <ele>132.19999694824</ele>
        <time>2020-08-16T07:38:46.000Z</time>
      </trkpt>
      <trkpt lat="50.12723" lon="3.68221">
        <ele>132.19999694824</ele>
        <time>2020-08-16T07:38:47.000Z</time>
      </trkpt>
      <trkpt lat="50.12734" lon="3.68254">
        <ele>132.60000610352</ele>
        <time>2020-08-16T07:38:51.000Z</time>
      </trkpt>
      <trkpt lat="50.12737" lon="3.68262">
        <ele>133</ele>
        <time>2020-08-16T07:38:52.000Z</time>
      </trkpt>
      <trkpt lat="50.1274" lon="3.6827">
        <ele>133.60000610352</ele>
        <time>2020-08-16T07:38:53.000Z</time>
      </trkpt>
      <trkpt lat="50.12743" lon="3.68278">
        <ele>134</ele>
        <time>2020-08-16T07:38:54.000Z</time>
      </trkpt>
      <trkpt lat="50.12745" lon="3.68286">
        <ele>134.39999389648</ele>
        <time>2020-08-16T07:38:55.000Z</time>
      </trkpt>
      <trkpt lat="50.12759" lon="3.68325">
        <ele>134.39999389648</ele>
        <time>2020-08-16T07:39:00.000Z</time>
      </trkpt>
      <trkpt lat="50.12785" lon="3.684">
        <ele>134.39999389648</ele>
        <time>2020-08-16T07:39:10.000Z</time>
      </trkpt>
      <trkpt lat="50.12798" lon="3.68437">
        <ele>134.39999389648</ele>
        <time>2020-08-16T07:39:16.000Z</time>
      </trkpt>
      <trkpt lat="50.12795" lon="3.68454">
        <ele>134.39999389648</ele>
        <time>2020-08-16T07:39:19.000Z</time>
      </trkpt>
      <trkpt lat="50.1279" lon="3.68458">
        <ele>134.39999389648</ele>
        <time>2020-08-16T07:39:20.000Z</time>
      </trkpt>
      <trkpt lat="50.12764" lon="3.68475">
        <ele>134.39999389648</ele>
        <time>2020-08-16T07:39:25.000Z</time>
      </trkpt>
      <trkpt lat="50.12736" lon="3.685">
        <ele>134.39999389648</ele>
        <time>2020-08-16T07:39:31.000Z</time>
      </trkpt>
      <trkpt lat="50.12734" lon="3.68508">
        <ele>134.39999389648</ele>
        <time>2020-08-16T07:39:32.000Z</time>
      </trkpt>
      <trkpt lat="50.12738" lon="3.68533">
        <ele>134.39999389648</ele>
        <time>2020-08-16T07:39:35.000Z</time>
      </trkpt>
      <trkpt lat="50.1275" lon="3.68549">
        <ele>134.39999389648</ele>
        <time>2020-08-16T07:39:38.000Z</time>
      </trkpt>
      <trkpt lat="50.12751" lon="3.68557">
        <ele>134.39999389648</ele>
        <time>2020-08-16T07:39:39.000Z</time>
      </trkpt>
      <trkpt lat="50.1275" lon="3.68565">
        <ele>134.39999389648</ele>
        <time>2020-08-16T07:39:40.000Z</time>
      </trkpt>
      <trkpt lat="50.1274" lon="3.68585">
        <ele>134.39999389648</ele>
        <time>2020-08-16T07:39:43.000Z</time>
      </trkpt>
      <trkpt lat="50.12716" lon="3.68628">
        <ele>134.39999389648</ele>
        <time>2020-08-16T07:39:50.000Z</time>
      </trkpt>
      <trkpt lat="50.12704" lon="3.68652">
        <ele>134.39999389648</ele>
        <time>2020-08-16T07:39:54.000Z</time>
      </trkpt>
      <trkpt lat="50.12705" lon="3.68668">
        <ele>134.39999389648</ele>
        <time>2020-08-16T07:39:56.000Z</time>
      </trkpt>
      <trkpt lat="50.12708" lon="3.68673">
        <ele>134.39999389648</ele>
        <time>2020-08-16T07:39:57.000Z</time>
      </trkpt>
      <trkpt lat="50.12711" lon="3.68682">
        <ele>134.39999389648</ele>
        <time>2020-08-16T07:39:59.000Z</time>
      </trkpt>
      <trkpt lat="50.12723" lon="3.68699">
        <ele>134.39999389648</ele>
        <time>2020-08-16T07:40:04.000Z</time>
      </trkpt>
      <trkpt lat="50.12725" lon="3.687">
        <ele>134.39999389648</ele>
        <time>2020-08-16T07:40:05.000Z</time>
      </trkpt>
      <trkpt lat="50.12733" lon="3.687">
        <ele>134.39999389648</ele>
        <time>2020-08-16T07:40:21.000Z</time>
      </trkpt>
      <trkpt lat="50.12738" lon="3.68697">
        <ele>134.39999389648</ele>
        <time>2020-08-16T07:40:22.000Z</time>
      </trkpt>
      <trkpt lat="50.12768" lon="3.68667">
        <ele>134.39999389648</ele>
        <time>2020-08-16T07:40:29.000Z</time>
      </trkpt>
      <trkpt lat="50.12799" lon="3.68629">
        <ele>134.39999389648</ele>
        <time>2020-08-16T07:40:36.000Z</time>
      </trkpt>
      <trkpt lat="50.12814" lon="3.68581">
        <ele>134.39999389648</ele>
        <time>2020-08-16T07:40:43.000Z</time>
      </trkpt>
      <trkpt lat="50.12816" lon="3.68574">
        <ele>134.39999389648</ele>
        <time>2020-08-16T07:40:44.000Z</time>
      </trkpt>
      <trkpt lat="50.12826" lon="3.68531">
        <ele>135.39999389648</ele>
        <time>2020-08-16T07:40:50.000Z</time>
      </trkpt>
      <trkpt lat="50.12829" lon="3.68517">
        <ele>135.80000305176</ele>
        <time>2020-08-16T07:40:52.000Z</time>
      </trkpt>
      <trkpt lat="50.12831" lon="3.68509">
        <ele>136.19999694824</ele>
        <time>2020-08-16T07:40:53.000Z</time>
      </trkpt>
      <trkpt lat="50.12832" lon="3.68503">
        <ele>136.60000610352</ele>
        <time>2020-08-16T07:40:54.000Z</time>
      </trkpt>
      <trkpt lat="50.12838" lon="3.68476">
        <ele>137.19999694824</ele>
        <time>2020-08-16T07:40:58.000Z</time>
      </trkpt>
      <trkpt lat="50.1284" lon="3.68469">
        <ele>138</ele>
        <time>2020-08-16T07:40:59.000Z</time>
      </trkpt>
      <trkpt lat="50.12843" lon="3.68457">
        <ele>138.39999389648</ele>
        <time>2020-08-16T07:41:01.000Z</time>
      </trkpt>
      <trkpt lat="50.12844" lon="3.6845">
        <ele>139</ele>
        <time>2020-08-16T07:41:02.000Z</time>
      </trkpt>
      <trkpt lat="50.12849" lon="3.68431">
        <ele>139</ele>
        <time>2020-08-16T07:41:05.000Z</time>
      </trkpt>
      <trkpt lat="50.12852" lon="3.68425">
        <ele>139.80000305176</ele>
        <time>2020-08-16T07:41:06.000Z</time>
      </trkpt>
      <trkpt lat="50.12854" lon="3.68419">
        <ele>140.19999694824</ele>
        <time>2020-08-16T07:41:07.000Z</time>
      </trkpt>
      <trkpt lat="50.12858" lon="3.6841">
        <ele>141</ele>
        <time>2020-08-16T07:41:09.000Z</time>
      </trkpt>
      <trkpt lat="50.12865" lon="3.68395">
        <ele>141</ele>
        <time>2020-08-16T07:41:12.000Z</time>
      </trkpt>
      <trkpt lat="50.12875" lon="3.68377">
        <ele>141.60000610352</ele>
        <time>2020-08-16T07:41:16.000Z</time>
      </trkpt>
      <trkpt lat="50.12877" lon="3.68373">
        <ele>142</ele>
        <time>2020-08-16T07:41:17.000Z</time>
      </trkpt>
      <trkpt lat="50.1288" lon="3.68369">
        <ele>142.39999389648</ele>
        <time>2020-08-16T07:41:18.000Z</time>
      </trkpt>
      <trkpt lat="50.12883" lon="3.68364">
        <ele>142.80000305176</ele>
        <time>2020-08-16T07:41:19.000Z</time>
      </trkpt>
      <trkpt lat="50.12886" lon="3.6836">
        <ele>143.39999389648</ele>
        <time>2020-08-16T07:41:20.000Z</time>
      </trkpt>
      <trkpt lat="50.12909" lon="3.68338">
        <ele>143.39999389648</ele>
        <time>2020-08-16T07:41:26.000Z</time>
      </trkpt>
      <trkpt lat="50.1294" lon="3.6832">
        <ele>143.39999389648</ele>
        <time>2020-08-16T07:41:32.000Z</time>
      </trkpt>
      <trkpt lat="50.12971" lon="3.68313">
        <ele>143.39999389648</ele>
        <time>2020-08-16T07:41:37.000Z</time>
      </trkpt>
      <trkpt lat="50.12976" lon="3.68312">
        <ele>143.39999389648</ele>
        <time>2020-08-16T07:41:38.000Z</time>
      </trkpt>
      <trkpt lat="50.12981" lon="3.6831">
        <ele>143.39999389648</ele>
        <time>2020-08-16T07:41:39.000Z</time>
      </trkpt>
      <trkpt lat="50.12987" lon="3.68299">
        <ele>143.39999389648</ele>
        <time>2020-08-16T07:41:41.000Z</time>
      </trkpt>
      <trkpt lat="50.12985" lon="3.68275">
        <ele>143.39999389648</ele>
        <time>2020-08-16T07:41:44.000Z</time>
      </trkpt>
      <trkpt lat="50.12992" lon="3.68212">
        <ele>143.39999389648</ele>
        <time>2020-08-16T07:41:52.000Z</time>
      </trkpt>
      <trkpt lat="50.13002" lon="3.68144">
        <ele>143.39999389648</ele>
        <time>2020-08-16T07:42:01.000Z</time>
      </trkpt>
      <trkpt lat="50.13009" lon="3.68096">
        <ele>143.80000305176</ele>
        <time>2020-08-16T07:42:07.000Z</time>
      </trkpt>
      <trkpt lat="50.13011" lon="3.68088">
        <ele>144.19999694824</ele>
        <time>2020-08-16T07:42:08.000Z</time>
      </trkpt>
      <trkpt lat="50.13012" lon="3.6808">
        <ele>144.60000610352</ele>
        <time>2020-08-16T07:42:09.000Z</time>
      </trkpt>
      <trkpt lat="50.13013" lon="3.68072">
        <ele>145</ele>
        <time>2020-08-16T07:42:10.000Z</time>
      </trkpt>
      <trkpt lat="50.13015" lon="3.68064">
        <ele>145.39999389648</ele>
        <time>2020-08-16T07:42:11.000Z</time>
      </trkpt>
      <trkpt lat="50.13026" lon="3.67985">
        <ele>145.39999389648</ele>
        <time>2020-08-16T07:42:21.000Z</time>
      </trkpt>
      <trkpt lat="50.13032" lon="3.67955">
        <ele>145.80000305176</ele>
        <time>2020-08-16T07:42:25.000Z</time>
      </trkpt>
      <trkpt lat="50.13034" lon="3.67948">
        <ele>146.19999694824</ele>
        <time>2020-08-16T07:42:26.000Z</time>
      </trkpt>
      <trkpt lat="50.13035" lon="3.6794">
        <ele>146.60000610352</ele>
        <time>2020-08-16T07:42:27.000Z</time>
      </trkpt>
      <trkpt lat="50.13036" lon="3.67933">
        <ele>147.19999694824</ele>
        <time>2020-08-16T07:42:28.000Z</time>
      </trkpt>
      <trkpt lat="50.13038" lon="3.67925">
        <ele>147.60000610352</ele>
        <time>2020-08-16T07:42:29.000Z</time>
      </trkpt>
      <trkpt lat="50.13043" lon="3.67902">
        <ele>147.60000610352</ele>
        <time>2020-08-16T07:42:32.000Z</time>
      </trkpt>
      <trkpt lat="50.13061" lon="3.67825">
        <ele>147.60000610352</ele>
        <time>2020-08-16T07:42:42.000Z</time>
      </trkpt>
      <trkpt lat="50.13073" lon="3.67771">
        <ele>148</ele>
        <time>2020-08-16T07:42:49.000Z</time>
      </trkpt>
      <trkpt lat="50.13076" lon="3.67763">
        <ele>148.39999389648</ele>
        <time>2020-08-16T07:42:50.000Z</time>
      </trkpt>
      <trkpt lat="50.13078" lon="3.67755">
        <ele>148.80000305176</ele>
        <time>2020-08-16T07:42:51.000Z</time>
      </trkpt>
      <trkpt lat="50.1308" lon="3.67747">
        <ele>149.19999694824</ele>
        <time>2020-08-16T07:42:52.000Z</time>
      </trkpt>
      <trkpt lat="50.13082" lon="3.67739">
        <ele>149.60000610352</ele>
        <time>2020-08-16T07:42:53.000Z</time>
      </trkpt>
      <trkpt lat="50.13098" lon="3.67674">
        <ele>150</ele>
        <time>2020-08-16T07:43:02.000Z</time>
      </trkpt>
      <trkpt lat="50.131" lon="3.67666">
        <ele>150.39999389648</ele>
        <time>2020-08-16T07:43:03.000Z</time>
      </trkpt>
      <trkpt lat="50.13101" lon="3.67658">
        <ele>150.80000305176</ele>
        <time>2020-08-16T07:43:04.000Z</time>
      </trkpt>
      <trkpt lat="50.13103" lon="3.6765">
        <ele>151.19999694824</ele>
        <time>2020-08-16T07:43:05.000Z</time>
      </trkpt>
      <trkpt lat="50.13105" lon="3.67642">
        <ele>151.60000610352</ele>
        <time>2020-08-16T07:43:06.000Z</time>
      </trkpt>
      <trkpt lat="50.13122" lon="3.67567">
        <ele>151.60000610352</ele>
        <time>2020-08-16T07:43:16.000Z</time>
      </trkpt>
      <trkpt lat="50.13146" lon="3.67486">
        <ele>151.60000610352</ele>
        <time>2020-08-16T07:43:27.000Z</time>
      </trkpt>
      <trkpt lat="50.1315" lon="3.67472">
        <ele>152</ele>
        <time>2020-08-16T07:43:29.000Z</time>
      </trkpt>
      <trkpt lat="50.13153" lon="3.67464">
        <ele>152.60000610352</ele>
        <time>2020-08-16T07:43:30.000Z</time>
      </trkpt>
      <trkpt lat="50.13155" lon="3.67457">
        <ele>153</ele>
        <time>2020-08-16T07:43:31.000Z</time>
      </trkpt>
      <trkpt lat="50.13158" lon="3.67449">
        <ele>153.39999389648</ele>
        <time>2020-08-16T07:43:32.000Z</time>
      </trkpt>
      <trkpt lat="50.13161" lon="3.67442">
        <ele>153.80000305176</ele>
        <time>2020-08-16T07:43:33.000Z</time>
      </trkpt>
      <trkpt lat="50.1317" lon="3.67417">
        <ele>153.80000305176</ele>
        <time>2020-08-16T07:43:37.000Z</time>
      </trkpt>
      <trkpt lat="50.13178" lon="3.67397">
        <ele>153.80000305176</ele>
        <time>2020-08-16T07:43:40.000Z</time>
      </trkpt>
      <trkpt lat="50.13208" lon="3.67321">
        <ele>153.80000305176</ele>
        <time>2020-08-16T07:43:51.000Z</time>
      </trkpt>
      <trkpt lat="50.13217" lon="3.67299">
        <ele>153.80000305176</ele>
        <time>2020-08-16T07:43:54.000Z</time>
      </trkpt>
      <trkpt lat="50.13244" lon="3.67226">
        <ele>153.80000305176</ele>
        <time>2020-08-16T07:44:04.000Z</time>
      </trkpt>
      <trkpt lat="50.13266" lon="3.67169">
        <ele>154.19999694824</ele>
        <time>2020-08-16T07:44:12.000Z</time>
      </trkpt>
      <trkpt lat="50.13269" lon="3.67162">
        <ele>154.60000610352</ele>
        <time>2020-08-16T07:44:13.000Z</time>
      </trkpt>
      <trkpt lat="50.13272" lon="3.67154">
        <ele>155</ele>
        <time>2020-08-16T07:44:14.000Z</time>
      </trkpt>
      <trkpt lat="50.13274" lon="3.67147">
        <ele>155.39999389648</ele>
        <time>2020-08-16T07:44:15.000Z</time>
      </trkpt>
      <trkpt lat="50.13277" lon="3.67141">
        <ele>155.80000305176</ele>
        <time>2020-08-16T07:44:16.000Z</time>
      </trkpt>
      <trkpt lat="50.13292" lon="3.67099">
        <ele>155.80000305176</ele>
        <time>2020-08-16T07:44:22.000Z</time>
      </trkpt>
      <trkpt lat="50.13314" lon="3.67031">
        <ele>156.19999694824</ele>
        <time>2020-08-16T07:44:32.000Z</time>
      </trkpt>
      <trkpt lat="50.13316" lon="3.67024">
        <ele>156.60000610352</ele>
        <time>2020-08-16T07:44:33.000Z</time>
      </trkpt>
      <trkpt lat="50.13318" lon="3.67017">
        <ele>157</ele>
        <time>2020-08-16T07:44:34.000Z</time>
      </trkpt>
      <trkpt lat="50.13321" lon="3.6701">
        <ele>157.39999389648</ele>
        <time>2020-08-16T07:44:35.000Z</time>
      </trkpt>
      <trkpt lat="50.13324" lon="3.67003">
        <ele>157.80000305176</ele>
        <time>2020-08-16T07:44:36.000Z</time>
      </trkpt>
      <trkpt lat="50.13342" lon="3.66962">
        <ele>157.80000305176</ele>
        <time>2020-08-16T07:44:43.000Z</time>
      </trkpt>
      <trkpt lat="50.13367" lon="3.66929">
        <ele>158.19999694824</ele>
        <time>2020-08-16T07:44:50.000Z</time>
      </trkpt>
      <trkpt lat="50.13371" lon="3.66925">
        <ele>158.80000305176</ele>
        <time>2020-08-16T07:44:51.000Z</time>
      </trkpt>
      <trkpt lat="50.13374" lon="3.66921">
        <ele>159.19999694824</ele>
        <time>2020-08-16T07:44:52.000Z</time>
      </trkpt>
      <trkpt lat="50.13378" lon="3.66917">
        <ele>159.60000610352</ele>
        <time>2020-08-16T07:44:53.000Z</time>
      </trkpt>
      <trkpt lat="50.13382" lon="3.66914">
        <ele>160</ele>
        <time>2020-08-16T07:44:54.000Z</time>
      </trkpt>
      <trkpt lat="50.13404" lon="3.66889">
        <ele>160</ele>
        <time>2020-08-16T07:45:00.000Z</time>
      </trkpt>
      <trkpt lat="50.13438" lon="3.66848">
        <ele>160.60000610352</ele>
        <time>2020-08-16T07:45:09.000Z</time>
      </trkpt>
      <trkpt lat="50.13442" lon="3.66844">
        <ele>161</ele>
        <time>2020-08-16T07:45:10.000Z</time>
      </trkpt>
      <trkpt lat="50.13446" lon="3.66839">
        <ele>161.39999389648</ele>
        <time>2020-08-16T07:45:11.000Z</time>
      </trkpt>
      <trkpt lat="50.1345" lon="3.66834">
        <ele>161.80000305176</ele>
        <time>2020-08-16T07:45:12.000Z</time>
      </trkpt>
      <trkpt lat="50.13454" lon="3.66829">
        <ele>162.19999694824</ele>
        <time>2020-08-16T07:45:13.000Z</time>
      </trkpt>
      <trkpt lat="50.13493" lon="3.66771">
        <ele>162.19999694824</ele>
        <time>2020-08-16T07:45:24.000Z</time>
      </trkpt>
      <trkpt lat="50.13496" lon="3.66765">
        <ele>162.19999694824</ele>
        <time>2020-08-16T07:45:25.000Z</time>
      </trkpt>
      <trkpt lat="50.13521" lon="3.66695">
        <ele>162.19999694824</ele>
        <time>2020-08-16T07:45:35.000Z</time>
      </trkpt>
      <trkpt lat="50.13548" lon="3.66617">
        <ele>162.19999694824</ele>
        <time>2020-08-16T07:45:46.000Z</time>
      </trkpt>
      <trkpt lat="50.13556" lon="3.66594">
        <ele>162.19999694824</ele>
        <time>2020-08-16T07:45:49.000Z</time>
      </trkpt>
      <trkpt lat="50.13582" lon="3.66519">
        <ele>162.19999694824</ele>
        <time>2020-08-16T07:45:59.000Z</time>
      </trkpt>
      <trkpt lat="50.13592" lon="3.66488">
        <ele>162.19999694824</ele>
        <time>2020-08-16T07:46:03.000Z</time>
      </trkpt>
      <trkpt lat="50.13619" lon="3.66414">
        <ele>162.19999694824</ele>
        <time>2020-08-16T07:46:12.000Z</time>
      </trkpt>
      <trkpt lat="50.13647" lon="3.66338">
        <ele>162.19999694824</ele>
        <time>2020-08-16T07:46:21.000Z</time>
      </trkpt>
      <trkpt lat="50.13659" lon="3.66306">
        <ele>162.19999694824</ele>
        <time>2020-08-16T07:46:25.000Z</time>
      </trkpt>
      <trkpt lat="50.13689" lon="3.66225">
        <ele>162.19999694824</ele>
        <time>2020-08-16T07:46:35.000Z</time>
      </trkpt>
      <trkpt lat="50.13705" lon="3.66185">
        <ele>162.19999694824</ele>
        <time>2020-08-16T07:46:40.000Z</time>
      </trkpt>
      <trkpt lat="50.13729" lon="3.66103">
        <ele>162.19999694824</ele>
        <time>2020-08-16T07:46:50.000Z</time>
      </trkpt>
      <trkpt lat="50.13742" lon="3.66029">
        <ele>162.19999694824</ele>
        <time>2020-08-16T07:46:58.000Z</time>
      </trkpt>
      <trkpt lat="50.13752" lon="3.65944">
        <ele>162.19999694824</ele>
        <time>2020-08-16T07:47:07.000Z</time>
      </trkpt>
      <trkpt lat="50.13753" lon="3.65926">
        <ele>162.19999694824</ele>
        <time>2020-08-16T07:47:09.000Z</time>
      </trkpt>
      <trkpt lat="50.13753" lon="3.65835">
        <ele>162.19999694824</ele>
        <time>2020-08-16T07:47:18.000Z</time>
      </trkpt>
      <trkpt lat="50.13753" lon="3.65825">
        <ele>162.19999694824</ele>
        <time>2020-08-16T07:47:19.000Z</time>
      </trkpt>
      <trkpt lat="50.13762" lon="3.65755">
        <ele>162.19999694824</ele>
        <time>2020-08-16T07:47:26.000Z</time>
      </trkpt>
      <trkpt lat="50.13773" lon="3.65664">
        <ele>162.19999694824</ele>
        <time>2020-08-16T07:47:35.000Z</time>
      </trkpt>
      <trkpt lat="50.1378" lon="3.65612">
        <ele>162.19999694824</ele>
        <time>2020-08-16T07:47:40.000Z</time>
      </trkpt>
      <trkpt lat="50.13795" lon="3.65529">
        <ele>162.19999694824</ele>
        <time>2020-08-16T07:47:48.000Z</time>
      </trkpt>
      <trkpt lat="50.13797" lon="3.65519">
        <ele>162.19999694824</ele>
        <time>2020-08-16T07:47:49.000Z</time>
      </trkpt>
      <trkpt lat="50.13818" lon="3.65436">
        <ele>162.19999694824</ele>
        <time>2020-08-16T07:47:57.000Z</time>
      </trkpt>
      <trkpt lat="50.13821" lon="3.65425">
        <ele>161.80000305176</ele>
        <time>2020-08-16T07:47:58.000Z</time>
      </trkpt>
      <trkpt lat="50.13824" lon="3.65414">
        <ele>161.39999389648</ele>
        <time>2020-08-16T07:47:59.000Z</time>
      </trkpt>
      <trkpt lat="50.13827" lon="3.65404">
        <ele>161</ele>
        <time>2020-08-16T07:48:00.000Z</time>
      </trkpt>
      <trkpt lat="50.1383" lon="3.65393">
        <ele>160.60000610352</ele>
        <time>2020-08-16T07:48:01.000Z</time>
      </trkpt>
      <trkpt lat="50.13833" lon="3.65382">
        <ele>160.19999694824</ele>
        <time>2020-08-16T07:48:02.000Z</time>
      </trkpt>
      <trkpt lat="50.13858" lon="3.65297">
        <ele>160.19999694824</ele>
        <time>2020-08-16T07:48:10.000Z</time>
      </trkpt>
      <trkpt lat="50.13865" lon="3.65275">
        <ele>159.80000305176</ele>
        <time>2020-08-16T07:48:12.000Z</time>
      </trkpt>
      <trkpt lat="50.13868" lon="3.65266">
        <ele>159.19999694824</ele>
        <time>2020-08-16T07:48:13.000Z</time>
      </trkpt>
      <trkpt lat="50.13871" lon="3.65257">
        <ele>158.80000305176</ele>
        <time>2020-08-16T07:48:14.000Z</time>
      </trkpt>
      <trkpt lat="50.13873" lon="3.6525">
        <ele>158.39999389648</ele>
        <time>2020-08-16T07:48:15.000Z</time>
      </trkpt>
      <trkpt lat="50.13875" lon="3.65244">
        <ele>158</ele>
        <time>2020-08-16T07:48:16.000Z</time>
      </trkpt>
      <trkpt lat="50.13878" lon="3.65238">
        <ele>158</ele>
        <time>2020-08-16T07:48:17.000Z</time>
      </trkpt>
      <trkpt lat="50.13889" lon="3.65198">
        <ele>158</ele>
        <time>2020-08-16T07:48:21.000Z</time>
      </trkpt>
      <trkpt lat="50.139" lon="3.65168">
        <ele>157.60000610352</ele>
        <time>2020-08-16T07:48:24.000Z</time>
      </trkpt>
      <trkpt lat="50.13902" lon="3.65158">
        <ele>157.19999694824</ele>
        <time>2020-08-16T07:48:25.000Z</time>
      </trkpt>
      <trkpt lat="50.13907" lon="3.65147">
        <ele>156.80000305176</ele>
        <time>2020-08-16T07:48:26.000Z</time>
      </trkpt>
      <trkpt lat="50.1391" lon="3.65137">
        <ele>156.19999694824</ele>
        <time>2020-08-16T07:48:27.000Z</time>
      </trkpt>
      <trkpt lat="50.13914" lon="3.65127">
        <ele>155.80000305176</ele>
        <time>2020-08-16T07:48:28.000Z</time>
      </trkpt>
      <trkpt lat="50.13923" lon="3.65106">
        <ele>155.80000305176</ele>
        <time>2020-08-16T07:48:30.000Z</time>
      </trkpt>
      <trkpt lat="50.13956" lon="3.65042">
        <ele>155.80000305176</ele>
        <time>2020-08-16T07:48:37.000Z</time>
      </trkpt>
      <trkpt lat="50.13996" lon="3.64974">
        <ele>155.80000305176</ele>
        <time>2020-08-16T07:48:45.000Z</time>
      </trkpt>
      <trkpt lat="50.14007" lon="3.64959">
        <ele>155.80000305176</ele>
        <time>2020-08-16T07:48:47.000Z</time>
      </trkpt>
      <trkpt lat="50.14053" lon="3.64896">
        <ele>155.80000305176</ele>
        <time>2020-08-16T07:48:55.000Z</time>
      </trkpt>
      <trkpt lat="50.14076" lon="3.64865">
        <ele>155.80000305176</ele>
        <time>2020-08-16T07:48:59.000Z</time>
      </trkpt>
      <trkpt lat="50.14119" lon="3.64809">
        <ele>155.80000305176</ele>
        <time>2020-08-16T07:49:07.000Z</time>
      </trkpt>
      <trkpt lat="50.14126" lon="3.64802">
        <ele>155.80000305176</ele>
        <time>2020-08-16T07:49:08.000Z</time>
      </trkpt>
      <trkpt lat="50.14156" lon="3.64768">
        <ele>155.39999389648</ele>
        <time>2020-08-16T07:49:13.000Z</time>
      </trkpt>
      <trkpt lat="50.14162" lon="3.64761">
        <ele>155</ele>
        <time>2020-08-16T07:49:14.000Z</time>
      </trkpt>
      <trkpt lat="50.14168" lon="3.64754">
        <ele>154.60000610352</ele>
        <time>2020-08-16T07:49:15.000Z</time>
      </trkpt>
      <trkpt lat="50.14174" lon="3.64746">
        <ele>154.19999694824</ele>
        <time>2020-08-16T07:49:16.000Z</time>
      </trkpt>
      <trkpt lat="50.14179" lon="3.64738">
        <ele>153.60000610352</ele>
        <time>2020-08-16T07:49:17.000Z</time>
      </trkpt>
      <trkpt lat="50.14217" lon="3.64666">
        <ele>153.60000610352</ele>
        <time>2020-08-16T07:49:25.000Z</time>
      </trkpt>
      <trkpt lat="50.14221" lon="3.64657">
        <ele>153.60000610352</ele>
        <time>2020-08-16T07:49:26.000Z</time>
      </trkpt>
      <trkpt lat="50.14252" lon="3.64606">
        <ele>153.19999694824</ele>
        <time>2020-08-16T07:49:32.000Z</time>
      </trkpt>
      <trkpt lat="50.14257" lon="3.64598">
        <ele>152.80000305176</ele>
        <time>2020-08-16T07:49:33.000Z</time>
      </trkpt>
      <trkpt lat="50.14262" lon="3.64591">
        <ele>152.39999389648</ele>
        <time>2020-08-16T07:49:34.000Z</time>
      </trkpt>
      <trkpt lat="50.14268" lon="3.64583">
        <ele>152</ele>
        <time>2020-08-16T07:49:35.000Z</time>
      </trkpt>
      <trkpt lat="50.14273" lon="3.64576">
        <ele>151.60000610352</ele>
        <time>2020-08-16T07:49:36.000Z</time>
      </trkpt>
      <trkpt lat="50.14288" lon="3.64553">
        <ele>151.60000610352</ele>
        <time>2020-08-16T07:49:39.000Z</time>
      </trkpt>
      <trkpt lat="50.14304" lon="3.6453">
        <ele>151.60000610352</ele>
        <time>2020-08-16T07:49:42.000Z</time>
      </trkpt>
      <trkpt lat="50.14328" lon="3.64502">
        <ele>151.19999694824</ele>
        <time>2020-08-16T07:49:46.000Z</time>
      </trkpt>
      <trkpt lat="50.14333" lon="3.64493">
        <ele>150.80000305176</ele>
        <time>2020-08-16T07:49:47.000Z</time>
      </trkpt>
      <trkpt lat="50.14339" lon="3.64485">
        <ele>150.39999389648</ele>
        <time>2020-08-16T07:49:48.000Z</time>
      </trkpt>
      <trkpt lat="50.14344" lon="3.64477">
        <ele>150</ele>
        <time>2020-08-16T07:49:49.000Z</time>
      </trkpt>
      <trkpt lat="50.1435" lon="3.64469">
        <ele>149.60000610352</ele>
        <time>2020-08-16T07:49:50.000Z</time>
      </trkpt>
      <trkpt lat="50.14388" lon="3.64398">
        <ele>149.60000610352</ele>
        <time>2020-08-16T07:49:58.000Z</time>
      </trkpt>
      <trkpt lat="50.14392" lon="3.64387">
        <ele>149.60000610352</ele>
        <time>2020-08-16T07:49:59.000Z</time>
      </trkpt>
      <trkpt lat="50.14401" lon="3.64354">
        <ele>149</ele>
        <time>2020-08-16T07:50:02.000Z</time>
      </trkpt>
      <trkpt lat="50.14404" lon="3.64344">
        <ele>148.60000610352</ele>
        <time>2020-08-16T07:50:03.000Z</time>
      </trkpt>
      <trkpt lat="50.14407" lon="3.64333">
        <ele>148</ele>
        <time>2020-08-16T07:50:04.000Z</time>
      </trkpt>
      <trkpt lat="50.1441" lon="3.64323">
        <ele>147.60000610352</ele>
        <time>2020-08-16T07:50:05.000Z</time>
      </trkpt>
      <trkpt lat="50.14413" lon="3.64312">
        <ele>147</ele>
        <time>2020-08-16T07:50:06.000Z</time>
      </trkpt>
      <trkpt lat="50.14429" lon="3.64252">
        <ele>147</ele>
        <time>2020-08-16T07:50:11.000Z</time>
      </trkpt>
      <trkpt lat="50.14453" lon="3.64171">
        <ele>147</ele>
        <time>2020-08-16T07:50:18.000Z</time>
      </trkpt>
      <trkpt lat="50.14456" lon="3.6416">
        <ele>147</ele>
        <time>2020-08-16T07:50:19.000Z</time>
      </trkpt>
      <trkpt lat="50.14481" lon="3.64103">
        <ele>147</ele>
        <time>2020-08-16T07:50:25.000Z</time>
      </trkpt>
      <trkpt lat="50.14486" lon="3.64095">
        <ele>147</ele>
        <time>2020-08-16T07:50:26.000Z</time>
      </trkpt>
      <trkpt lat="50.14522" lon="3.6402">
        <ele>147</ele>
        <time>2020-08-16T07:50:34.000Z</time>
      </trkpt>
      <trkpt lat="50.14527" lon="3.64011">
        <ele>147</ele>
        <time>2020-08-16T07:50:35.000Z</time>
      </trkpt>
      <trkpt lat="50.14566" lon="3.63944">
        <ele>147</ele>
        <time>2020-08-16T07:50:43.000Z</time>
      </trkpt>
      <trkpt lat="50.14576" lon="3.63927">
        <ele>147</ele>
        <time>2020-08-16T07:50:45.000Z</time>
      </trkpt>
      <trkpt lat="50.1458" lon="3.63918">
        <ele>147</ele>
        <time>2020-08-16T07:50:46.000Z</time>
      </trkpt>
      <trkpt lat="50.14589" lon="3.63888">
        <ele>147</ele>
        <time>2020-08-16T07:50:49.000Z</time>
      </trkpt>
      <trkpt lat="50.14591" lon="3.63878">
        <ele>147</ele>
        <time>2020-08-16T07:50:50.000Z</time>
      </trkpt>
      <trkpt lat="50.14617" lon="3.63797">
        <ele>147</ele>
        <time>2020-08-16T07:50:58.000Z</time>
      </trkpt>
      <trkpt lat="50.1465" lon="3.63726">
        <ele>147</ele>
        <time>2020-08-16T07:51:06.000Z</time>
      </trkpt>
      <trkpt lat="50.14655" lon="3.63717">
        <ele>147</ele>
        <time>2020-08-16T07:51:07.000Z</time>
      </trkpt>
      <trkpt lat="50.14688" lon="3.63645">
        <ele>147</ele>
        <time>2020-08-16T07:51:15.000Z</time>
      </trkpt>
      <trkpt lat="50.14704" lon="3.63608">
        <ele>147</ele>
        <time>2020-08-16T07:51:19.000Z</time>
      </trkpt>
      <trkpt lat="50.14742" lon="3.6354">
        <ele>147</ele>
        <time>2020-08-16T07:51:27.000Z</time>
      </trkpt>
      <trkpt lat="50.14758" lon="3.63517">
        <ele>146.60000610352</ele>
        <time>2020-08-16T07:51:30.000Z</time>
      </trkpt>
      <trkpt lat="50.14763" lon="3.63511">
        <ele>146.19999694824</ele>
        <time>2020-08-16T07:51:31.000Z</time>
      </trkpt>
      <trkpt lat="50.14769" lon="3.63504">
        <ele>145.80000305176</ele>
        <time>2020-08-16T07:51:32.000Z</time>
      </trkpt>
      <trkpt lat="50.1478" lon="3.63492">
        <ele>144.80000305176</ele>
        <time>2020-08-16T07:51:34.000Z</time>
      </trkpt>
      <trkpt lat="50.14826" lon="3.63443">
        <ele>144.80000305176</ele>
        <time>2020-08-16T07:51:42.000Z</time>
      </trkpt>
      <trkpt lat="50.14837" lon="3.63429">
        <ele>144.80000305176</ele>
        <time>2020-08-16T07:51:44.000Z</time>
      </trkpt>
      <trkpt lat="50.14868" lon="3.63376">
        <ele>144.80000305176</ele>
        <time>2020-08-16T07:51:51.000Z</time>
      </trkpt>
      <trkpt lat="50.14887" lon="3.63332">
        <ele>144.80000305176</ele>
        <time>2020-08-16T07:51:56.000Z</time>
      </trkpt>
      <trkpt lat="50.14899" lon="3.63305">
        <ele>144.80000305176</ele>
        <time>2020-08-16T07:51:59.000Z</time>
      </trkpt>
      <trkpt lat="50.14914" lon="3.6327">
        <ele>145.39999389648</ele>
        <time>2020-08-16T07:52:03.000Z</time>
      </trkpt>
      <trkpt lat="50.14918" lon="3.63261">
        <ele>145.80000305176</ele>
        <time>2020-08-16T07:52:04.000Z</time>
      </trkpt>
      <trkpt lat="50.14922" lon="3.63252">
        <ele>146.19999694824</ele>
        <time>2020-08-16T07:52:05.000Z</time>
      </trkpt>
      <trkpt lat="50.14925" lon="3.63243">
        <ele>146.60000610352</ele>
        <time>2020-08-16T07:52:06.000Z</time>
      </trkpt>
      <trkpt lat="50.14929" lon="3.63234">
        <ele>147</ele>
        <time>2020-08-16T07:52:07.000Z</time>
      </trkpt>
      <trkpt lat="50.14932" lon="3.63224">
        <ele>147</ele>
        <time>2020-08-16T07:52:08.000Z</time>
      </trkpt>
      <trkpt lat="50.14951" lon="3.63156">
        <ele>147</ele>
        <time>2020-08-16T07:52:15.000Z</time>
      </trkpt>
      <trkpt lat="50.14973" lon="3.63073">
        <ele>147</ele>
        <time>2020-08-16T07:52:23.000Z</time>
      </trkpt>
      <trkpt lat="50.1498" lon="3.63051">
        <ele>147</ele>
        <time>2020-08-16T07:52:25.000Z</time>
      </trkpt>
      <trkpt lat="50.15002" lon="3.62968">
        <ele>147</ele>
        <time>2020-08-16T07:52:33.000Z</time>
      </trkpt>
      <trkpt lat="50.15005" lon="3.62958">
        <ele>147</ele>
        <time>2020-08-16T07:52:34.000Z</time>
      </trkpt>
      <trkpt lat="50.15027" lon="3.62878">
        <ele>147</ele>
        <time>2020-08-16T07:52:42.000Z</time>
      </trkpt>
      <trkpt lat="50.15035" lon="3.62848">
        <ele>147</ele>
        <time>2020-08-16T07:52:45.000Z</time>
      </trkpt>
      <trkpt lat="50.15058" lon="3.62764">
        <ele>147</ele>
        <time>2020-08-16T07:52:53.000Z</time>
      </trkpt>
      <trkpt lat="50.1507" lon="3.6272">
        <ele>147</ele>
        <time>2020-08-16T07:52:57.000Z</time>
      </trkpt>
      <trkpt lat="50.15082" lon="3.62632">
        <ele>147</ele>
        <time>2020-08-16T07:53:05.000Z</time>
      </trkpt>
      <trkpt lat="50.15082" lon="3.62621">
        <ele>147</ele>
        <time>2020-08-16T07:53:06.000Z</time>
      </trkpt>
      <trkpt lat="50.15084" lon="3.6253">
        <ele>147</ele>
        <time>2020-08-16T07:53:14.000Z</time>
      </trkpt>
      <trkpt lat="50.15085" lon="3.62483">
        <ele>146.60000610352</ele>
        <time>2020-08-16T07:53:18.000Z</time>
      </trkpt>
      <trkpt lat="50.15085" lon="3.6247">
        <ele>146.19999694824</ele>
        <time>2020-08-16T07:53:19.000Z</time>
      </trkpt>
      <trkpt lat="50.15085" lon="3.62457">
        <ele>145.80000305176</ele>
        <time>2020-08-16T07:53:20.000Z</time>
      </trkpt>
      <trkpt lat="50.15085" lon="3.62443">
        <ele>145.80000305176</ele>
        <time>2020-08-16T07:53:21.000Z</time>
      </trkpt>
      <trkpt lat="50.15086" lon="3.62429">
        <ele>145.39999389648</ele>
        <time>2020-08-16T07:53:22.000Z</time>
      </trkpt>
      <trkpt lat="50.15086" lon="3.62416">
        <ele>145</ele>
        <time>2020-08-16T07:53:23.000Z</time>
      </trkpt>
      <trkpt lat="50.15091" lon="3.62322">
        <ele>144.60000610352</ele>
        <time>2020-08-16T07:53:30.000Z</time>
      </trkpt>
      <trkpt lat="50.15095" lon="3.62296">
        <ele>144.19999694824</ele>
        <time>2020-08-16T07:53:32.000Z</time>
      </trkpt>
      <trkpt lat="50.15097" lon="3.62284">
        <ele>143.39999389648</ele>
        <time>2020-08-16T07:53:33.000Z</time>
      </trkpt>
      <trkpt lat="50.151" lon="3.62271">
        <ele>143</ele>
        <time>2020-08-16T07:53:34.000Z</time>
      </trkpt>
      <trkpt lat="50.15111" lon="3.62222">
        <ele>142.60000610352</ele>
        <time>2020-08-16T07:53:38.000Z</time>
      </trkpt>
      <trkpt lat="50.15114" lon="3.6221">
        <ele>142.19999694824</ele>
        <time>2020-08-16T07:53:39.000Z</time>
      </trkpt>
      <trkpt lat="50.15117" lon="3.62198">
        <ele>141.80000305176</ele>
        <time>2020-08-16T07:53:40.000Z</time>
      </trkpt>
      <trkpt lat="50.15122" lon="3.62176">
        <ele>141.19999694824</ele>
        <time>2020-08-16T07:53:42.000Z</time>
      </trkpt>
      <trkpt lat="50.15123" lon="3.62167">
        <ele>140.80000305176</ele>
        <time>2020-08-16T07:53:43.000Z</time>
      </trkpt>
      <trkpt lat="50.15125" lon="3.62159">
        <ele>140.80000305176</ele>
        <time>2020-08-16T07:53:44.000Z</time>
      </trkpt>
      <trkpt lat="50.15133" lon="3.62123">
        <ele>140.80000305176</ele>
        <time>2020-08-16T07:53:49.000Z</time>
      </trkpt>
      <trkpt lat="50.15151" lon="3.62067">
        <ele>140.80000305176</ele>
        <time>2020-08-16T07:53:55.000Z</time>
      </trkpt>
      <trkpt lat="50.15168" lon="3.6201">
        <ele>140.80000305176</ele>
        <time>2020-08-16T07:54:01.000Z</time>
      </trkpt>
      <trkpt lat="50.15168" lon="3.62">
        <ele>140.39999389648</ele>
        <time>2020-08-16T07:54:02.000Z</time>
      </trkpt>
      <trkpt lat="50.15167" lon="3.61991">
        <ele>140</ele>
        <time>2020-08-16T07:54:03.000Z</time>
      </trkpt>
      <trkpt lat="50.15164" lon="3.61982">
        <ele>139.60000610352</ele>
        <time>2020-08-16T07:54:04.000Z</time>
      </trkpt>
      <trkpt lat="50.1516" lon="3.61974">
        <ele>139</ele>
        <time>2020-08-16T07:54:05.000Z</time>
      </trkpt>
      <trkpt lat="50.15156" lon="3.61966">
        <ele>138.60000610352</ele>
        <time>2020-08-16T07:54:06.000Z</time>
      </trkpt>
      <trkpt lat="50.15151" lon="3.61958">
        <ele>138.60000610352</ele>
        <time>2020-08-16T07:54:07.000Z</time>
      </trkpt>
      <trkpt lat="50.15135" lon="3.61927">
        <ele>138.60000610352</ele>
        <time>2020-08-16T07:54:11.000Z</time>
      </trkpt>
      <trkpt lat="50.15132" lon="3.61919">
        <ele>138.60000610352</ele>
        <time>2020-08-16T07:54:12.000Z</time>
      </trkpt>
      <trkpt lat="50.1513" lon="3.61911">
        <ele>139</ele>
        <time>2020-08-16T07:54:13.000Z</time>
      </trkpt>
      <trkpt lat="50.15131" lon="3.61903">
        <ele>139</ele>
        <time>2020-08-16T07:54:14.000Z</time>
      </trkpt>
      <trkpt lat="50.15139" lon="3.61888">
        <ele>139.80000305176</ele>
        <time>2020-08-16T07:54:16.000Z</time>
      </trkpt>
      <trkpt lat="50.15144" lon="3.6188">
        <ele>140.19999694824</ele>
        <time>2020-08-16T07:54:17.000Z</time>
      </trkpt>
      <trkpt lat="50.15149" lon="3.61872">
        <ele>140.60000610352</ele>
        <time>2020-08-16T07:54:18.000Z</time>
      </trkpt>
      <trkpt lat="50.15164" lon="3.61848">
        <ele>140.60000610352</ele>
        <time>2020-08-16T07:54:21.000Z</time>
      </trkpt>
      <trkpt lat="50.15171" lon="3.61829">
        <ele>140.60000610352</ele>
        <time>2020-08-16T07:54:23.000Z</time>
      </trkpt>
      <trkpt lat="50.15175" lon="3.61795">
        <ele>140.60000610352</ele>
        <time>2020-08-16T07:54:26.000Z</time>
      </trkpt>
      <trkpt lat="50.15173" lon="3.61772">
        <ele>140.60000610352</ele>
        <time>2020-08-16T07:54:28.000Z</time>
      </trkpt>
      <trkpt lat="50.15171" lon="3.61728">
        <ele>140.60000610352</ele>
        <time>2020-08-16T07:54:32.000Z</time>
      </trkpt>
      <trkpt lat="50.15167" lon="3.61638">
        <ele>140.60000610352</ele>
        <time>2020-08-16T07:54:40.000Z</time>
      </trkpt>
      <trkpt lat="50.15167" lon="3.61616">
        <ele>140.60000610352</ele>
        <time>2020-08-16T07:54:42.000Z</time>
      </trkpt>
      <trkpt lat="50.1517" lon="3.61595">
        <ele>140.19999694824</ele>
        <time>2020-08-16T07:54:44.000Z</time>
      </trkpt>
      <trkpt lat="50.15173" lon="3.61585">
        <ele>139.80000305176</ele>
        <time>2020-08-16T07:54:45.000Z</time>
      </trkpt>
      <trkpt lat="50.15176" lon="3.61574">
        <ele>139.80000305176</ele>
        <time>2020-08-16T07:54:46.000Z</time>
      </trkpt>
      <trkpt lat="50.15179" lon="3.61564">
        <ele>138.80000305176</ele>
        <time>2020-08-16T07:54:47.000Z</time>
      </trkpt>
      <trkpt lat="50.15182" lon="3.61554">
        <ele>138.39999389648</ele>
        <time>2020-08-16T07:54:48.000Z</time>
      </trkpt>
      <trkpt lat="50.15188" lon="3.61533">
        <ele>138.39999389648</ele>
        <time>2020-08-16T07:54:50.000Z</time>
      </trkpt>
      <trkpt lat="50.15191" lon="3.61511">
        <ele>138.39999389648</ele>
        <time>2020-08-16T07:54:52.000Z</time>
      </trkpt>
      <trkpt lat="50.15192" lon="3.61489">
        <ele>138.39999389648</ele>
        <time>2020-08-16T07:54:54.000Z</time>
      </trkpt>
      <trkpt lat="50.15189" lon="3.61434">
        <ele>138.39999389648</ele>
        <time>2020-08-16T07:54:59.000Z</time>
      </trkpt>
      <trkpt lat="50.15184" lon="3.61415">
        <ele>138.39999389648</ele>
        <time>2020-08-16T07:55:01.000Z</time>
      </trkpt>
      <trkpt lat="50.15178" lon="3.61396">
        <ele>138.39999389648</ele>
        <time>2020-08-16T07:55:03.000Z</time>
      </trkpt>
      <trkpt lat="50.15165" lon="3.61372">
        <ele>138.39999389648</ele>
        <time>2020-08-16T07:55:06.000Z</time>
      </trkpt>
      <trkpt lat="50.15155" lon="3.61358">
        <ele>138.39999389648</ele>
        <time>2020-08-16T07:55:08.000Z</time>
      </trkpt>
      <trkpt lat="50.15127" lon="3.6131">
        <ele>138.39999389648</ele>
        <time>2020-08-16T07:55:14.000Z</time>
      </trkpt>
      <trkpt lat="50.15124" lon="3.61301">
        <ele>138.39999389648</ele>
        <time>2020-08-16T07:55:15.000Z</time>
      </trkpt>
      <trkpt lat="50.15126" lon="3.61272">
        <ele>138.39999389648</ele>
        <time>2020-08-16T07:55:18.000Z</time>
      </trkpt>
      <trkpt lat="50.15136" lon="3.61244">
        <ele>138.39999389648</ele>
        <time>2020-08-16T07:55:21.000Z</time>
      </trkpt>
      <trkpt lat="50.1514" lon="3.61235">
        <ele>138.39999389648</ele>
        <time>2020-08-16T07:55:22.000Z</time>
      </trkpt>
      <trkpt lat="50.15166" lon="3.61163">
        <ele>138.39999389648</ele>
        <time>2020-08-16T07:55:30.000Z</time>
      </trkpt>
      <trkpt lat="50.15167" lon="3.61153">
        <ele>138.39999389648</ele>
        <time>2020-08-16T07:55:31.000Z</time>
      </trkpt>
      <trkpt lat="50.1517" lon="3.61125">
        <ele>138.39999389648</ele>
        <time>2020-08-16T07:55:34.000Z</time>
      </trkpt>
      <trkpt lat="50.1517" lon="3.61109">
        <ele>138.39999389648</ele>
        <time>2020-08-16T07:55:36.000Z</time>
      </trkpt>
      <trkpt lat="50.1517" lon="3.61078">
        <ele>138.39999389648</ele>
        <time>2020-08-16T07:55:41.000Z</time>
      </trkpt>
      <trkpt lat="50.15164" lon="3.61038">
        <ele>138.39999389648</ele>
        <time>2020-08-16T07:55:46.000Z</time>
      </trkpt>
      <trkpt lat="50.15152" lon="3.60962">
        <ele>138.39999389648</ele>
        <time>2020-08-16T07:55:54.000Z</time>
      </trkpt>
      <trkpt lat="50.15139" lon="3.60875">
        <ele>138.39999389648</ele>
        <time>2020-08-16T07:56:03.000Z</time>
      </trkpt>
      <trkpt lat="50.15134" lon="3.60837">
        <ele>138.39999389648</ele>
        <time>2020-08-16T07:56:07.000Z</time>
      </trkpt>
      <trkpt lat="50.15133" lon="3.60827">
        <ele>138.80000305176</ele>
        <time>2020-08-16T07:56:08.000Z</time>
      </trkpt>
      <trkpt lat="50.15132" lon="3.60817">
        <ele>139.19999694824</ele>
        <time>2020-08-16T07:56:09.000Z</time>
      </trkpt>
      <trkpt lat="50.15131" lon="3.60808">
        <ele>139.60000610352</ele>
        <time>2020-08-16T07:56:10.000Z</time>
      </trkpt>
      <trkpt lat="50.1513" lon="3.60798">
        <ele>140</ele>
        <time>2020-08-16T07:56:11.000Z</time>
      </trkpt>
      <trkpt lat="50.15129" lon="3.60789">
        <ele>140.39999389648</ele>
        <time>2020-08-16T07:56:12.000Z</time>
      </trkpt>
      <trkpt lat="50.15123" lon="3.60764">
        <ele>140.39999389648</ele>
        <time>2020-08-16T07:56:15.000Z</time>
      </trkpt>
      <trkpt lat="50.1512" lon="3.60756">
        <ele>140.39999389648</ele>
        <time>2020-08-16T07:56:16.000Z</time>
      </trkpt>
      <trkpt lat="50.1511" lon="3.60732">
        <ele>140.39999389648</ele>
        <time>2020-08-16T07:56:19.000Z</time>
      </trkpt>
      <trkpt lat="50.15104" lon="3.60717">
        <ele>140.80000305176</ele>
        <time>2020-08-16T07:56:21.000Z</time>
      </trkpt>
      <trkpt lat="50.15101" lon="3.6071">
        <ele>141.19999694824</ele>
        <time>2020-08-16T07:56:22.000Z</time>
      </trkpt>
      <trkpt lat="50.15098" lon="3.60702">
        <ele>141.80000305176</ele>
        <time>2020-08-16T07:56:23.000Z</time>
      </trkpt>
      <trkpt lat="50.15094" lon="3.60695">
        <ele>142.19999694824</ele>
        <time>2020-08-16T07:56:24.000Z</time>
      </trkpt>
      <trkpt lat="50.15091" lon="3.60687">
        <ele>142.60000610352</ele>
        <time>2020-08-16T07:56:25.000Z</time>
      </trkpt>
      <trkpt lat="50.15077" lon="3.60657">
        <ele>142.60000610352</ele>
        <time>2020-08-16T07:56:29.000Z</time>
      </trkpt>
      <trkpt lat="50.15044" lon="3.60579">
        <ele>143</ele>
        <time>2020-08-16T07:56:39.000Z</time>
      </trkpt>
      <trkpt lat="50.1504" lon="3.60571">
        <ele>143.39999389648</ele>
        <time>2020-08-16T07:56:40.000Z</time>
      </trkpt>
      <trkpt lat="50.15037" lon="3.60563">
        <ele>143.80000305176</ele>
        <time>2020-08-16T07:56:41.000Z</time>
      </trkpt>
      <trkpt lat="50.15034" lon="3.60555">
        <ele>144.19999694824</ele>
        <time>2020-08-16T07:56:42.000Z</time>
      </trkpt>
      <trkpt lat="50.1503" lon="3.60547">
        <ele>144.60000610352</ele>
        <time>2020-08-16T07:56:43.000Z</time>
      </trkpt>
      <trkpt lat="50.15012" lon="3.60507">
        <ele>144.60000610352</ele>
        <time>2020-08-16T07:56:48.000Z</time>
      </trkpt>
      <trkpt lat="50.14979" lon="3.60431">
        <ele>144.60000610352</ele>
        <time>2020-08-16T07:56:57.000Z</time>
      </trkpt>
      <trkpt lat="50.14969" lon="3.60404">
        <ele>144.60000610352</ele>
        <time>2020-08-16T07:57:00.000Z</time>
      </trkpt>
      <trkpt lat="50.14946" lon="3.60333">
        <ele>144.60000610352</ele>
        <time>2020-08-16T07:57:07.000Z</time>
      </trkpt>
      <trkpt lat="50.14925" lon="3.60255">
        <ele>144.60000610352</ele>
        <time>2020-08-16T07:57:14.000Z</time>
      </trkpt>
      <trkpt lat="50.14918" lon="3.60232">
        <ele>144.60000610352</ele>
        <time>2020-08-16T07:57:16.000Z</time>
      </trkpt>
      <trkpt lat="50.14912" lon="3.6021">
        <ele>144.19999694824</ele>
        <time>2020-08-16T07:57:18.000Z</time>
      </trkpt>
      <trkpt lat="50.14906" lon="3.60186">
        <ele>143.19999694824</ele>
        <time>2020-08-16T07:57:20.000Z</time>
      </trkpt>
      <trkpt lat="50.14904" lon="3.60175">
        <ele>142.80000305176</ele>
        <time>2020-08-16T07:57:21.000Z</time>
      </trkpt>
      <trkpt lat="50.14901" lon="3.60163">
        <ele>142.39999389648</ele>
        <time>2020-08-16T07:57:22.000Z</time>
      </trkpt>
      <trkpt lat="50.14897" lon="3.60126">
        <ele>142.39999389648</ele>
        <time>2020-08-16T07:57:25.000Z</time>
      </trkpt>
      <trkpt lat="50.14893" lon="3.60036">
        <ele>141.80000305176</ele>
        <time>2020-08-16T07:57:32.000Z</time>
      </trkpt>
      <trkpt lat="50.14892" lon="3.60023">
        <ele>141.39999389648</ele>
        <time>2020-08-16T07:57:33.000Z</time>
      </trkpt>
      <trkpt lat="50.14891" lon="3.59997">
        <ele>140.60000610352</ele>
        <time>2020-08-16T07:57:35.000Z</time>
      </trkpt>
      <trkpt lat="50.14891" lon="3.59984">
        <ele>140.19999694824</ele>
        <time>2020-08-16T07:57:36.000Z</time>
      </trkpt>
      <trkpt lat="50.14886" lon="3.5991">
        <ele>140.19999694824</ele>
        <time>2020-08-16T07:57:42.000Z</time>
      </trkpt>
      <trkpt lat="50.14886" lon="3.59842">
        <ele>140.19999694824</ele>
        <time>2020-08-16T07:57:48.000Z</time>
      </trkpt>
      <trkpt lat="50.14889" lon="3.59831">
        <ele>140.19999694824</ele>
        <time>2020-08-16T07:57:49.000Z</time>
      </trkpt>
      <trkpt lat="50.14906" lon="3.5979">
        <ele>140.19999694824</ele>
        <time>2020-08-16T07:57:53.000Z</time>
      </trkpt>
      <trkpt lat="50.1491" lon="3.5978">
        <ele>140.19999694824</ele>
        <time>2020-08-16T07:57:54.000Z</time>
      </trkpt>
      <trkpt lat="50.14939" lon="3.59704">
        <ele>140.60000610352</ele>
        <time>2020-08-16T07:58:02.000Z</time>
      </trkpt>
      <trkpt lat="50.14942" lon="3.59695">
        <ele>141</ele>
        <time>2020-08-16T07:58:03.000Z</time>
      </trkpt>
      <trkpt lat="50.14948" lon="3.59677">
        <ele>141.39999389648</ele>
        <time>2020-08-16T07:58:05.000Z</time>
      </trkpt>
      <trkpt lat="50.14952" lon="3.59668">
        <ele>142.19999694824</ele>
        <time>2020-08-16T07:58:06.000Z</time>
      </trkpt>
      <trkpt lat="50.1498" lon="3.59593">
        <ele>142.19999694824</ele>
        <time>2020-08-16T07:58:14.000Z</time>
      </trkpt>
      <trkpt lat="50.15009" lon="3.59519">
        <ele>142.19999694824</ele>
        <time>2020-08-16T07:58:22.000Z</time>
      </trkpt>
      <trkpt lat="50.15019" lon="3.59494">
        <ele>142.19999694824</ele>
        <time>2020-08-16T07:58:25.000Z</time>
      </trkpt>
      <trkpt lat="50.15047" lon="3.5942">
        <ele>142.19999694824</ele>
        <time>2020-08-16T07:58:34.000Z</time>
      </trkpt>
      <trkpt lat="50.15063" lon="3.5938">
        <ele>142.19999694824</ele>
        <time>2020-08-16T07:58:39.000Z</time>
      </trkpt>
      <trkpt lat="50.15072" lon="3.59357">
        <ele>143.19999694824</ele>
        <time>2020-08-16T07:58:42.000Z</time>
      </trkpt>
      <trkpt lat="50.15075" lon="3.5935">
        <ele>143.60000610352</ele>
        <time>2020-08-16T07:58:43.000Z</time>
      </trkpt>
      <trkpt lat="50.15081" lon="3.59335">
        <ele>144</ele>
        <time>2020-08-16T07:58:45.000Z</time>
      </trkpt>
      <trkpt lat="50.15084" lon="3.59328">
        <ele>144.60000610352</ele>
        <time>2020-08-16T07:58:47.000Z</time>
      </trkpt>
      <trkpt lat="50.15094" lon="3.59307">
        <ele>144.60000610352</ele>
        <time>2020-08-16T07:58:50.000Z</time>
      </trkpt>
      <trkpt lat="50.15125" lon="3.59251">
        <ele>144.60000610352</ele>
        <time>2020-08-16T07:58:58.000Z</time>
      </trkpt>
      <trkpt lat="50.15164" lon="3.5919">
        <ele>144.60000610352</ele>
        <time>2020-08-16T07:59:07.000Z</time>
      </trkpt>
      <trkpt lat="50.15174" lon="3.59175">
        <ele>144.60000610352</ele>
        <time>2020-08-16T07:59:09.000Z</time>
      </trkpt>
      <trkpt lat="50.15212" lon="3.59117">
        <ele>144</ele>
        <time>2020-08-16T07:59:17.000Z</time>
      </trkpt>
      <trkpt lat="50.15217" lon="3.59109">
        <ele>143.19999694824</ele>
        <time>2020-08-16T07:59:18.000Z</time>
      </trkpt>
      <trkpt lat="50.15222" lon="3.59102">
        <ele>142.80000305176</ele>
        <time>2020-08-16T07:59:19.000Z</time>
      </trkpt>
      <trkpt lat="50.15232" lon="3.59087">
        <ele>142.39999389648</ele>
        <time>2020-08-16T07:59:21.000Z</time>
      </trkpt>
      <trkpt lat="50.15243" lon="3.59071">
        <ele>142.39999389648</ele>
        <time>2020-08-16T07:59:23.000Z</time>
      </trkpt>
      <trkpt lat="50.15283" lon="3.5901">
        <ele>142.39999389648</ele>
        <time>2020-08-16T07:59:31.000Z</time>
      </trkpt>
      <trkpt lat="50.15297" lon="3.58988">
        <ele>141.39999389648</ele>
        <time>2020-08-16T07:59:34.000Z</time>
      </trkpt>
      <trkpt lat="50.15302" lon="3.58982">
        <ele>141</ele>
        <time>2020-08-16T07:59:35.000Z</time>
      </trkpt>
      <trkpt lat="50.15305" lon="3.58975">
        <ele>140.60000610352</ele>
        <time>2020-08-16T07:59:36.000Z</time>
      </trkpt>
      <trkpt lat="50.1531" lon="3.58968">
        <ele>140.19999694824</ele>
        <time>2020-08-16T07:59:37.000Z</time>
      </trkpt>
      <trkpt lat="50.15341" lon="3.58922">
        <ele>140.19999694824</ele>
        <time>2020-08-16T07:59:45.000Z</time>
      </trkpt>
      <trkpt lat="50.15348" lon="3.58911">
        <ele>140.19999694824</ele>
        <time>2020-08-16T07:59:49.000Z</time>
      </trkpt>
      <trkpt lat="50.15355" lon="3.58892">
        <ele>140.19999694824</ele>
        <time>2020-08-16T07:59:53.000Z</time>
      </trkpt>
      <trkpt lat="50.15368" lon="3.58852">
        <ele>140.19999694824</ele>
        <time>2020-08-16T07:59:58.000Z</time>
      </trkpt>
      <trkpt lat="50.15401" lon="3.58785">
        <ele>140.19999694824</ele>
        <time>2020-08-16T08:00:07.000Z</time>
      </trkpt>
      <trkpt lat="50.15441" lon="3.58721">
        <ele>140.19999694824</ele>
        <time>2020-08-16T08:00:17.000Z</time>
      </trkpt>
      <trkpt lat="50.15449" lon="3.58709">
        <ele>140.19999694824</ele>
        <time>2020-08-16T08:00:19.000Z</time>
      </trkpt>
      <trkpt lat="50.15452" lon="3.58703">
        <ele>140.19999694824</ele>
        <time>2020-08-16T08:00:20.000Z</time>
      </trkpt>
      <trkpt lat="50.15471" lon="3.58668">
        <ele>140.19999694824</ele>
        <time>2020-08-16T08:00:25.000Z</time>
      </trkpt>
      <trkpt lat="50.15505" lon="3.58595">
        <ele>140.19999694824</ele>
        <time>2020-08-16T08:00:35.000Z</time>
      </trkpt>
      <trkpt lat="50.15516" lon="3.58573">
        <ele>140.19999694824</ele>
        <time>2020-08-16T08:00:38.000Z</time>
      </trkpt>
      <trkpt lat="50.15552" lon="3.58498">
        <ele>140.19999694824</ele>
        <time>2020-08-16T08:00:48.000Z</time>
      </trkpt>
      <trkpt lat="50.15571" lon="3.58458">
        <ele>140.19999694824</ele>
        <time>2020-08-16T08:00:53.000Z</time>
      </trkpt>
      <trkpt lat="50.15607" lon="3.58383">
        <ele>140.19999694824</ele>
        <time>2020-08-16T08:01:02.000Z</time>
      </trkpt>
      <trkpt lat="50.15626" lon="3.58344">
        <ele>140.19999694824</ele>
        <time>2020-08-16T08:01:07.000Z</time>
      </trkpt>
      <trkpt lat="50.1566" lon="3.58273">
        <ele>140.19999694824</ele>
        <time>2020-08-16T08:01:16.000Z</time>
      </trkpt>
      <trkpt lat="50.15672" lon="3.58248">
        <ele>140.19999694824</ele>
        <time>2020-08-16T08:01:19.000Z</time>
      </trkpt>
      <trkpt lat="50.15703" lon="3.58184">
        <ele>140.60000610352</ele>
        <time>2020-08-16T08:01:27.000Z</time>
      </trkpt>
      <trkpt lat="50.15707" lon="3.58176">
        <ele>141.19999694824</ele>
        <time>2020-08-16T08:01:28.000Z</time>
      </trkpt>
      <trkpt lat="50.15711" lon="3.58168">
        <ele>141.60000610352</ele>
        <time>2020-08-16T08:01:29.000Z</time>
      </trkpt>
      <trkpt lat="50.15714" lon="3.5816">
        <ele>142</ele>
        <time>2020-08-16T08:01:30.000Z</time>
      </trkpt>
      <trkpt lat="50.15718" lon="3.58152">
        <ele>142.39999389648</ele>
        <time>2020-08-16T08:01:31.000Z</time>
      </trkpt>
      <trkpt lat="50.15741" lon="3.58101">
        <ele>142.39999389648</ele>
        <time>2020-08-16T08:01:37.000Z</time>
      </trkpt>
      <trkpt lat="50.15763" lon="3.58031">
        <ele>142.39999389648</ele>
        <time>2020-08-16T08:01:44.000Z</time>
      </trkpt>
      <trkpt lat="50.15784" lon="3.57953">
        <ele>142.39999389648</ele>
        <time>2020-08-16T08:01:52.000Z</time>
      </trkpt>
      <trkpt lat="50.1579" lon="3.57926">
        <ele>142.39999389648</ele>
        <time>2020-08-16T08:01:55.000Z</time>
      </trkpt>
      <trkpt lat="50.15807" lon="3.57857">
        <ele>142.39999389648</ele>
        <time>2020-08-16T08:02:03.000Z</time>
      </trkpt>
      <trkpt lat="50.15825" lon="3.5785">
        <ele>142.39999389648</ele>
        <time>2020-08-16T08:02:06.000Z</time>
      </trkpt>
      <trkpt lat="50.15873" lon="3.57842">
        <ele>142.39999389648</ele>
        <time>2020-08-16T08:02:13.000Z</time>
      </trkpt>
      <trkpt lat="50.15932" lon="3.57831">
        <ele>142.39999389648</ele>
        <time>2020-08-16T08:02:22.000Z</time>
      </trkpt>
      <trkpt lat="50.15958" lon="3.57825">
        <ele>142.39999389648</ele>
        <time>2020-08-16T08:02:26.000Z</time>
      </trkpt>
      <trkpt lat="50.16011" lon="3.57812">
        <ele>142.39999389648</ele>
        <time>2020-08-16T08:02:34.000Z</time>
      </trkpt>
      <trkpt lat="50.16018" lon="3.57811">
        <ele>142</ele>
        <time>2020-08-16T08:02:35.000Z</time>
      </trkpt>
      <trkpt lat="50.16025" lon="3.57809">
        <ele>141.60000610352</ele>
        <time>2020-08-16T08:02:36.000Z</time>
      </trkpt>
      <trkpt lat="50.16032" lon="3.57807">
        <ele>141.19999694824</ele>
        <time>2020-08-16T08:02:37.000Z</time>
      </trkpt>
      <trkpt lat="50.1604" lon="3.57805">
        <ele>140.80000305176</ele>
        <time>2020-08-16T08:02:38.000Z</time>
      </trkpt>
      <trkpt lat="50.16047" lon="3.57804">
        <ele>140.19999694824</ele>
        <time>2020-08-16T08:02:39.000Z</time>
      </trkpt>
      <trkpt lat="50.16077" lon="3.57799">
        <ele>139.80000305176</ele>
        <time>2020-08-16T08:02:43.000Z</time>
      </trkpt>
      <trkpt lat="50.16084" lon="3.57799">
        <ele>139.39999389648</ele>
        <time>2020-08-16T08:02:44.000Z</time>
      </trkpt>
      <trkpt lat="50.16092" lon="3.57799">
        <ele>139</ele>
        <time>2020-08-16T08:02:45.000Z</time>
      </trkpt>
      <trkpt lat="50.16099" lon="3.57799">
        <ele>138.60000610352</ele>
        <time>2020-08-16T08:02:46.000Z</time>
      </trkpt>
      <trkpt lat="50.16107" lon="3.57799">
        <ele>138</ele>
        <time>2020-08-16T08:02:47.000Z</time>
      </trkpt>
      <trkpt lat="50.16164" lon="3.57801">
        <ele>138</ele>
        <time>2020-08-16T08:02:55.000Z</time>
      </trkpt>
      <trkpt lat="50.16171" lon="3.57801">
        <ele>138</ele>
        <time>2020-08-16T08:02:56.000Z</time>
      </trkpt>
      <trkpt lat="50.16227" lon="3.57808">
        <ele>137.60000610352</ele>
        <time>2020-08-16T08:03:04.000Z</time>
      </trkpt>
      <trkpt lat="50.16234" lon="3.57809">
        <ele>137</ele>
        <time>2020-08-16T08:03:05.000Z</time>
      </trkpt>
      <trkpt lat="50.16241" lon="3.57811">
        <ele>136.60000610352</ele>
        <time>2020-08-16T08:03:06.000Z</time>
      </trkpt>
      <trkpt lat="50.16248" lon="3.57813">
        <ele>136</ele>
        <time>2020-08-16T08:03:07.000Z</time>
      </trkpt>
      <trkpt lat="50.16255" lon="3.57814">
        <ele>135.60000610352</ele>
        <time>2020-08-16T08:03:08.000Z</time>
      </trkpt>
      <trkpt lat="50.16296" lon="3.57824">
        <ele>135.60000610352</ele>
        <time>2020-08-16T08:03:14.000Z</time>
      </trkpt>
      <trkpt lat="50.16338" lon="3.57834">
        <ele>135.19999694824</ele>
        <time>2020-08-16T08:03:20.000Z</time>
      </trkpt>
      <trkpt lat="50.16345" lon="3.57835">
        <ele>134.80000305176</ele>
        <time>2020-08-16T08:03:21.000Z</time>
      </trkpt>
      <trkpt lat="50.16352" lon="3.57837">
        <ele>134</ele>
        <time>2020-08-16T08:03:22.000Z</time>
      </trkpt>
      <trkpt lat="50.16366" lon="3.5784">
        <ele>133.60000610352</ele>
        <time>2020-08-16T08:03:24.000Z</time>
      </trkpt>
      <trkpt lat="50.16425" lon="3.57853">
        <ele>133.60000610352</ele>
        <time>2020-08-16T08:03:32.000Z</time>
      </trkpt>
      <trkpt lat="50.16439" lon="3.57856">
        <ele>133.60000610352</ele>
        <time>2020-08-16T08:03:34.000Z</time>
      </trkpt>
      <trkpt lat="50.16496" lon="3.57871">
        <ele>133.60000610352</ele>
        <time>2020-08-16T08:03:42.000Z</time>
      </trkpt>
      <trkpt lat="50.16524" lon="3.57881">
        <ele>133.60000610352</ele>
        <time>2020-08-16T08:03:46.000Z</time>
      </trkpt>
      <trkpt lat="50.16544" lon="3.5789">
        <ele>132.80000305176</ele>
        <time>2020-08-16T08:03:49.000Z</time>
      </trkpt>
      <trkpt lat="50.16558" lon="3.57897">
        <ele>132.39999389648</ele>
        <time>2020-08-16T08:03:51.000Z</time>
      </trkpt>
      <trkpt lat="50.16565" lon="3.57901">
        <ele>132</ele>
        <time>2020-08-16T08:03:52.000Z</time>
      </trkpt>
      <trkpt lat="50.16572" lon="3.57904">
        <ele>131.60000610352</ele>
        <time>2020-08-16T08:03:53.000Z</time>
      </trkpt>
      <trkpt lat="50.16592" lon="3.57917">
        <ele>131.60000610352</ele>
        <time>2020-08-16T08:03:56.000Z</time>
      </trkpt>
      <trkpt lat="50.16648" lon="3.57956">
        <ele>131.60000610352</ele>
        <time>2020-08-16T08:04:04.000Z</time>
      </trkpt>
      <trkpt lat="50.16662" lon="3.57966">
        <ele>131.60000610352</ele>
        <time>2020-08-16T08:04:06.000Z</time>
      </trkpt>
      <trkpt lat="50.16715" lon="3.57985">
        <ele>131.60000610352</ele>
        <time>2020-08-16T08:04:13.000Z</time>
      </trkpt>
      <trkpt lat="50.16769" lon="3.57995">
        <ele>131.19999694824</ele>
        <time>2020-08-16T08:04:20.000Z</time>
      </trkpt>
      <trkpt lat="50.16777" lon="3.57997">
        <ele>130.60000610352</ele>
        <time>2020-08-16T08:04:21.000Z</time>
      </trkpt>
      <trkpt lat="50.16785" lon="3.57998">
        <ele>130.19999694824</ele>
        <time>2020-08-16T08:04:22.000Z</time>
      </trkpt>
      <trkpt lat="50.16792" lon="3.57999">
        <ele>129.80000305176</ele>
        <time>2020-08-16T08:04:23.000Z</time>
      </trkpt>
      <trkpt lat="50.168" lon="3.58001">
        <ele>129.39999389648</ele>
        <time>2020-08-16T08:04:24.000Z</time>
      </trkpt>
      <trkpt lat="50.16853" lon="3.58011">
        <ele>129</ele>
        <time>2020-08-16T08:04:31.000Z</time>
      </trkpt>
      <trkpt lat="50.1686" lon="3.58012">
        <ele>128.60000610352</ele>
        <time>2020-08-16T08:04:32.000Z</time>
      </trkpt>
      <trkpt lat="50.16867" lon="3.58013">
        <ele>128</ele>
        <time>2020-08-16T08:04:33.000Z</time>
      </trkpt>
      <trkpt lat="50.16874" lon="3.58014">
        <ele>127.59999847412</ele>
        <time>2020-08-16T08:04:34.000Z</time>
      </trkpt>
      <trkpt lat="50.16881" lon="3.58015">
        <ele>127.19999694824</ele>
        <time>2020-08-16T08:04:35.000Z</time>
      </trkpt>
      <trkpt lat="50.16938" lon="3.58026">
        <ele>127.19999694824</ele>
        <time>2020-08-16T08:04:43.000Z</time>
      </trkpt>
      <trkpt lat="50.16959" lon="3.58031">
        <ele>127.19999694824</ele>
        <time>2020-08-16T08:04:46.000Z</time>
      </trkpt>
      <trkpt lat="50.17017" lon="3.58049">
        <ele>127.19999694824</ele>
        <time>2020-08-16T08:04:55.000Z</time>
      </trkpt>
      <trkpt lat="50.17071" lon="3.58067">
        <ele>127.19999694824</ele>
        <time>2020-08-16T08:05:04.000Z</time>
      </trkpt>
      <trkpt lat="50.17076" lon="3.5807">
        <ele>127.19999694824</ele>
        <time>2020-08-16T08:05:05.000Z</time>
      </trkpt>
      <trkpt lat="50.17112" lon="3.58095">
        <ele>127.19999694824</ele>
        <time>2020-08-16T08:05:12.000Z</time>
      </trkpt>
      <trkpt lat="50.17153" lon="3.58118">
        <ele>127.19999694824</ele>
        <time>2020-08-16T08:05:20.000Z</time>
      </trkpt>
      <trkpt lat="50.17158" lon="3.58119">
        <ele>127.19999694824</ele>
        <time>2020-08-16T08:05:21.000Z</time>
      </trkpt>
      <trkpt lat="50.17175" lon="3.58115">
        <ele>127.19999694824</ele>
        <time>2020-08-16T08:05:24.000Z</time>
      </trkpt>
      <trkpt lat="50.17187" lon="3.58109">
        <ele>127.19999694824</ele>
        <time>2020-08-16T08:05:26.000Z</time>
      </trkpt>
      <trkpt lat="50.17237" lon="3.58077">
        <ele>127.19999694824</ele>
        <time>2020-08-16T08:05:35.000Z</time>
      </trkpt>
      <trkpt lat="50.17242" lon="3.58072">
        <ele>127.19999694824</ele>
        <time>2020-08-16T08:05:36.000Z</time>
      </trkpt>
      <trkpt lat="50.17253" lon="3.58064">
        <ele>127.59999847412</ele>
        <time>2020-08-16T08:05:38.000Z</time>
      </trkpt>
      <trkpt lat="50.17259" lon="3.5806">
        <ele>128</ele>
        <time>2020-08-16T08:05:39.000Z</time>
      </trkpt>
      <trkpt lat="50.17264" lon="3.58057">
        <ele>128.39999389648</ele>
        <time>2020-08-16T08:05:40.000Z</time>
      </trkpt>
      <trkpt lat="50.1727" lon="3.58053">
        <ele>129</ele>
        <time>2020-08-16T08:05:41.000Z</time>
      </trkpt>
      <trkpt lat="50.17276" lon="3.58049">
        <ele>129.39999389648</ele>
        <time>2020-08-16T08:05:42.000Z</time>
      </trkpt>
      <trkpt lat="50.17298" lon="3.58035">
        <ele>129.39999389648</ele>
        <time>2020-08-16T08:05:46.000Z</time>
      </trkpt>
      <trkpt lat="50.17349" lon="3.58012">
        <ele>129.39999389648</ele>
        <time>2020-08-16T08:05:55.000Z</time>
      </trkpt>
      <trkpt lat="50.17403" lon="3.58">
        <ele>129.39999389648</ele>
        <time>2020-08-16T08:06:04.000Z</time>
      </trkpt>
      <trkpt lat="50.17422" lon="3.58">
        <ele>129.39999389648</ele>
        <time>2020-08-16T08:06:07.000Z</time>
      </trkpt>
      <trkpt lat="50.17442" lon="3.58004">
        <ele>129.39999389648</ele>
        <time>2020-08-16T08:06:10.000Z</time>
      </trkpt>
      <trkpt lat="50.17472" lon="3.5801">
        <ele>129.39999389648</ele>
        <time>2020-08-16T08:06:15.000Z</time>
      </trkpt>
      <trkpt lat="50.17485" lon="3.58009">
        <ele>129.39999389648</ele>
        <time>2020-08-16T08:06:17.000Z</time>
      </trkpt>
      <trkpt lat="50.17525" lon="3.57998">
        <ele>129.39999389648</ele>
        <time>2020-08-16T08:06:23.000Z</time>
      </trkpt>
      <trkpt lat="50.17581" lon="3.5798">
        <ele>129.39999389648</ele>
        <time>2020-08-16T08:06:32.000Z</time>
      </trkpt>
      <trkpt lat="50.17621" lon="3.57973">
        <ele>129</ele>
        <time>2020-08-16T08:06:38.000Z</time>
      </trkpt>
      <trkpt lat="50.17628" lon="3.57974">
        <ele>128.39999389648</ele>
        <time>2020-08-16T08:06:39.000Z</time>
      </trkpt>
      <trkpt lat="50.17635" lon="3.57978">
        <ele>128</ele>
        <time>2020-08-16T08:06:40.000Z</time>
      </trkpt>
      <trkpt lat="50.1764" lon="3.57984">
        <ele>127.59999847412</ele>
        <time>2020-08-16T08:06:41.000Z</time>
      </trkpt>
      <trkpt lat="50.17645" lon="3.57992">
        <ele>127.19999694824</ele>
        <time>2020-08-16T08:06:42.000Z</time>
      </trkpt>
      <trkpt lat="50.17655" lon="3.58023">
        <ele>127.19999694824</ele>
        <time>2020-08-16T08:06:45.000Z</time>
      </trkpt>
      <trkpt lat="50.17673" lon="3.58092">
        <ele>127.19999694824</ele>
        <time>2020-08-16T08:06:52.000Z</time>
      </trkpt>
      <trkpt lat="50.17691" lon="3.58117">
        <ele>127.19999694824</ele>
        <time>2020-08-16T08:06:56.000Z</time>
      </trkpt>
      <trkpt lat="50.17703" lon="3.58123">
        <ele>127.19999694824</ele>
        <time>2020-08-16T08:06:58.000Z</time>
      </trkpt>
      <trkpt lat="50.17714" lon="3.58129">
        <ele>127.19999694824</ele>
        <time>2020-08-16T08:07:00.000Z</time>
      </trkpt>
      <trkpt lat="50.17731" lon="3.58134">
        <ele>127.19999694824</ele>
        <time>2020-08-16T08:07:03.000Z</time>
      </trkpt>
      <trkpt lat="50.17736" lon="3.58133">
        <ele>127.19999694824</ele>
        <time>2020-08-16T08:07:04.000Z</time>
      </trkpt>
      <trkpt lat="50.17751" lon="3.58124">
        <ele>127.19999694824</ele>
        <time>2020-08-16T08:07:07.000Z</time>
      </trkpt>
      <trkpt lat="50.17756" lon="3.5812">
        <ele>127.19999694824</ele>
        <time>2020-08-16T08:07:08.000Z</time>
      </trkpt>
      <trkpt lat="50.17798" lon="3.58074">
        <ele>127.19999694824</ele>
        <time>2020-08-16T08:07:16.000Z</time>
      </trkpt>
      <trkpt lat="50.1781" lon="3.58062">
        <ele>127.19999694824</ele>
        <time>2020-08-16T08:07:18.000Z</time>
      </trkpt>
      <trkpt lat="50.17854" lon="3.58022">
        <ele>127.19999694824</ele>
        <time>2020-08-16T08:07:26.000Z</time>
      </trkpt>
      <trkpt lat="50.179" lon="3.57974">
        <ele>127.59999847412</ele>
        <time>2020-08-16T08:07:35.000Z</time>
      </trkpt>
      <trkpt lat="50.17905" lon="3.57969">
        <ele>128</ele>
        <time>2020-08-16T08:07:36.000Z</time>
      </trkpt>
      <trkpt lat="50.17909" lon="3.57963">
        <ele>128.60000610352</ele>
        <time>2020-08-16T08:07:37.000Z</time>
      </trkpt>
      <trkpt lat="50.17914" lon="3.57958">
        <ele>129</ele>
        <time>2020-08-16T08:07:38.000Z</time>
      </trkpt>
      <trkpt lat="50.17918" lon="3.57953">
        <ele>129.39999389648</ele>
        <time>2020-08-16T08:07:39.000Z</time>
      </trkpt>
      <trkpt lat="50.17936" lon="3.57931">
        <ele>129.39999389648</ele>
        <time>2020-08-16T08:07:43.000Z</time>
      </trkpt>
      <trkpt lat="50.17967" lon="3.57893">
        <ele>129.39999389648</ele>
        <time>2020-08-16T08:07:50.000Z</time>
      </trkpt>
      <trkpt lat="50.17992" lon="3.57862">
        <ele>129.39999389648</ele>
        <time>2020-08-16T08:07:55.000Z</time>
      </trkpt>
      <trkpt lat="50.18002" lon="3.57851">
        <ele>129.39999389648</ele>
        <time>2020-08-16T08:07:57.000Z</time>
      </trkpt>
      <trkpt lat="50.18017" lon="3.57836">
        <ele>129.39999389648</ele>
        <time>2020-08-16T08:08:00.000Z</time>
      </trkpt>
      <trkpt lat="50.18068" lon="3.57789">
        <ele>129.39999389648</ele>
        <time>2020-08-16T08:08:10.000Z</time>
      </trkpt>
      <trkpt lat="50.18117" lon="3.57746">
        <ele>129.39999389648</ele>
        <time>2020-08-16T08:08:19.000Z</time>
      </trkpt>
      <trkpt lat="50.18127" lon="3.57737">
        <ele>129.80000305176</ele>
        <time>2020-08-16T08:08:21.000Z</time>
      </trkpt>
      <trkpt lat="50.18132" lon="3.57732">
        <ele>130.19999694824</ele>
        <time>2020-08-16T08:08:22.000Z</time>
      </trkpt>
      <trkpt lat="50.18137" lon="3.57728">
        <ele>130.80000305176</ele>
        <time>2020-08-16T08:08:23.000Z</time>
      </trkpt>
      <trkpt lat="50.18142" lon="3.57723">
        <ele>131.19999694824</ele>
        <time>2020-08-16T08:08:24.000Z</time>
      </trkpt>
      <trkpt lat="50.18147" lon="3.57719">
        <ele>131.60000610352</ele>
        <time>2020-08-16T08:08:25.000Z</time>
      </trkpt>
      <trkpt lat="50.18183" lon="3.57685">
        <ele>131.60000610352</ele>
        <time>2020-08-16T08:08:32.000Z</time>
      </trkpt>
      <trkpt lat="50.18231" lon="3.57633">
        <ele>131.60000610352</ele>
        <time>2020-08-16T08:08:41.000Z</time>
      </trkpt>
      <trkpt lat="50.18271" lon="3.57591">
        <ele>131.60000610352</ele>
        <time>2020-08-16T08:08:48.000Z</time>
      </trkpt>
      <trkpt lat="50.18307" lon="3.57554">
        <ele>131.60000610352</ele>
        <time>2020-08-16T08:08:54.000Z</time>
      </trkpt>
      <trkpt lat="50.18337" lon="3.57526">
        <ele>131.60000610352</ele>
        <time>2020-08-16T08:08:59.000Z</time>
      </trkpt>
      <trkpt lat="50.18384" lon="3.57483">
        <ele>131.60000610352</ele>
        <time>2020-08-16T08:09:07.000Z</time>
      </trkpt>
      <trkpt lat="50.18401" lon="3.57467">
        <ele>131.19999694824</ele>
        <time>2020-08-16T08:09:10.000Z</time>
      </trkpt>
      <trkpt lat="50.18407" lon="3.57461">
        <ele>130.80000305176</ele>
        <time>2020-08-16T08:09:11.000Z</time>
      </trkpt>
      <trkpt lat="50.18413" lon="3.57456">
        <ele>130.39999389648</ele>
        <time>2020-08-16T08:09:12.000Z</time>
      </trkpt>
      <trkpt lat="50.18418" lon="3.5745">
        <ele>130</ele>
        <time>2020-08-16T08:09:13.000Z</time>
      </trkpt>
      <trkpt lat="50.18424" lon="3.57444">
        <ele>129.60000610352</ele>
        <time>2020-08-16T08:09:14.000Z</time>
      </trkpt>
      <trkpt lat="50.18435" lon="3.57433">
        <ele>129.60000610352</ele>
        <time>2020-08-16T08:09:16.000Z</time>
      </trkpt>
      <trkpt lat="50.18458" lon="3.57413">
        <ele>129.19999694824</ele>
        <time>2020-08-16T08:09:20.000Z</time>
      </trkpt>
      <trkpt lat="50.18464" lon="3.57407">
        <ele>128.80000305176</ele>
        <time>2020-08-16T08:09:21.000Z</time>
      </trkpt>
      <trkpt lat="50.1847" lon="3.57402">
        <ele>128.39999389648</ele>
        <time>2020-08-16T08:09:22.000Z</time>
      </trkpt>
      <trkpt lat="50.18476" lon="3.57397">
        <ele>128</ele>
        <time>2020-08-16T08:09:23.000Z</time>
      </trkpt>
      <trkpt lat="50.18482" lon="3.57391">
        <ele>127.59999847412</ele>
        <time>2020-08-16T08:09:24.000Z</time>
      </trkpt>
      <trkpt lat="50.18519" lon="3.57358">
        <ele>127.19999694824</ele>
        <time>2020-08-16T08:09:30.000Z</time>
      </trkpt>
      <trkpt lat="50.18525" lon="3.57353">
        <ele>126.80000305176</ele>
        <time>2020-08-16T08:09:31.000Z</time>
      </trkpt>
      <trkpt lat="50.18531" lon="3.57347">
        <ele>126.40000152588</ele>
        <time>2020-08-16T08:09:32.000Z</time>
      </trkpt>
      <trkpt lat="50.18538" lon="3.57342">
        <ele>125.80000305176</ele>
        <time>2020-08-16T08:09:33.000Z</time>
      </trkpt>
      <trkpt lat="50.18544" lon="3.57336">
        <ele>125.40000152588</ele>
        <time>2020-08-16T08:09:34.000Z</time>
      </trkpt>
      <trkpt lat="50.18587" lon="3.573">
        <ele>125.40000152588</ele>
        <time>2020-08-16T08:09:41.000Z</time>
      </trkpt>
      <trkpt lat="50.18605" lon="3.57287">
        <ele>125</ele>
        <time>2020-08-16T08:09:44.000Z</time>
      </trkpt>
      <trkpt lat="50.18611" lon="3.57282">
        <ele>124.59999847412</ele>
        <time>2020-08-16T08:09:45.000Z</time>
      </trkpt>
      <trkpt lat="50.18618" lon="3.57278">
        <ele>124.19999694824</ele>
        <time>2020-08-16T08:09:46.000Z</time>
      </trkpt>
      <trkpt lat="50.18624" lon="3.57275">
        <ele>123.80000305176</ele>
        <time>2020-08-16T08:09:47.000Z</time>
      </trkpt>
      <trkpt lat="50.1863" lon="3.57272">
        <ele>123.40000152588</ele>
        <time>2020-08-16T08:09:48.000Z</time>
      </trkpt>
      <trkpt lat="50.18636" lon="3.57269">
        <ele>123.40000152588</ele>
        <time>2020-08-16T08:09:49.000Z</time>
      </trkpt>
      <trkpt lat="50.18684" lon="3.57259">
        <ele>123.40000152588</ele>
        <time>2020-08-16T08:09:57.000Z</time>
      </trkpt>
      <trkpt lat="50.1874" lon="3.57247">
        <ele>123.40000152588</ele>
        <time>2020-08-16T08:10:07.000Z</time>
      </trkpt>
      <trkpt lat="50.18796" lon="3.57225">
        <ele>123.40000152588</ele>
        <time>2020-08-16T08:10:18.000Z</time>
      </trkpt>
      <trkpt lat="50.18801" lon="3.57222">
        <ele>123.40000152588</ele>
        <time>2020-08-16T08:10:19.000Z</time>
      </trkpt>
      <trkpt lat="50.18856" lon="3.572">
        <ele>123.40000152588</ele>
        <time>2020-08-16T08:10:29.000Z</time>
      </trkpt>
      <trkpt lat="50.18878" lon="3.57191">
        <ele>123.40000152588</ele>
        <time>2020-08-16T08:10:33.000Z</time>
      </trkpt>
      <trkpt lat="50.18917" lon="3.57177">
        <ele>123.40000152588</ele>
        <time>2020-08-16T08:10:40.000Z</time>
      </trkpt>
      <trkpt lat="50.18929" lon="3.57179">
        <ele>123.40000152588</ele>
        <time>2020-08-16T08:10:42.000Z</time>
      </trkpt>
      <trkpt lat="50.18944" lon="3.57193">
        <ele>123.40000152588</ele>
        <time>2020-08-16T08:10:45.000Z</time>
      </trkpt>
      <trkpt lat="50.18955" lon="3.57214">
        <ele>123.40000152588</ele>
        <time>2020-08-16T08:10:48.000Z</time>
      </trkpt>
      <trkpt lat="50.18962" lon="3.57229">
        <ele>123.40000152588</ele>
        <time>2020-08-16T08:10:50.000Z</time>
      </trkpt>
      <trkpt lat="50.18989" lon="3.57293">
        <ele>123.40000152588</ele>
        <time>2020-08-16T08:10:59.000Z</time>
      </trkpt>
      <trkpt lat="50.19019" lon="3.57365">
        <ele>123.40000152588</ele>
        <time>2020-08-16T08:11:08.000Z</time>
      </trkpt>
      <trkpt lat="50.19022" lon="3.57373">
        <ele>123.40000152588</ele>
        <time>2020-08-16T08:11:09.000Z</time>
      </trkpt>
      <trkpt lat="50.19042" lon="3.57415">
        <ele>123.80000305176</ele>
        <time>2020-08-16T08:11:14.000Z</time>
      </trkpt>
      <trkpt lat="50.19045" lon="3.57423">
        <ele>124.19999694824</ele>
        <time>2020-08-16T08:11:15.000Z</time>
      </trkpt>
      <trkpt lat="50.19049" lon="3.57431">
        <ele>124.59999847412</ele>
        <time>2020-08-16T08:11:16.000Z</time>
      </trkpt>
      <trkpt lat="50.19052" lon="3.57438">
        <ele>125</ele>
        <time>2020-08-16T08:11:17.000Z</time>
      </trkpt>
      <trkpt lat="50.19058" lon="3.57453">
        <ele>125.40000152588</ele>
        <time>2020-08-16T08:11:19.000Z</time>
      </trkpt>
      <trkpt lat="50.19083" lon="3.57517">
        <ele>125.40000152588</ele>
        <time>2020-08-16T08:11:28.000Z</time>
      </trkpt>
      <trkpt lat="50.19085" lon="3.57524">
        <ele>125.80000305176</ele>
        <time>2020-08-16T08:11:29.000Z</time>
      </trkpt>
      <trkpt lat="50.19089" lon="3.57537">
        <ele>126.80000305176</ele>
        <time>2020-08-16T08:11:31.000Z</time>
      </trkpt>
      <trkpt lat="50.19091" lon="3.57544">
        <ele>127.19999694824</ele>
        <time>2020-08-16T08:11:32.000Z</time>
      </trkpt>
      <trkpt lat="50.19093" lon="3.57551">
        <ele>127.59999847412</ele>
        <time>2020-08-16T08:11:33.000Z</time>
      </trkpt>
      <trkpt lat="50.19095" lon="3.57565">
        <ele>127.59999847412</ele>
        <time>2020-08-16T08:11:35.000Z</time>
      </trkpt>
      <trkpt lat="50.19106" lon="3.57623">
        <ele>127.59999847412</ele>
        <time>2020-08-16T08:11:44.000Z</time>
      </trkpt>
      <trkpt lat="50.19111" lon="3.57674">
        <ele>127.59999847412</ele>
        <time>2020-08-16T08:11:51.000Z</time>
      </trkpt>
      <trkpt lat="50.19115" lon="3.57711">
        <ele>128</ele>
        <time>2020-08-16T08:11:56.000Z</time>
      </trkpt>
      <trkpt lat="50.19116" lon="3.57719">
        <ele>128.39999389648</ele>
        <time>2020-08-16T08:11:57.000Z</time>
      </trkpt>
      <trkpt lat="50.19117" lon="3.57726">
        <ele>128.80000305176</ele>
        <time>2020-08-16T08:11:58.000Z</time>
      </trkpt>
      <trkpt lat="50.19118" lon="3.57734">
        <ele>129.19999694824</ele>
        <time>2020-08-16T08:11:59.000Z</time>
      </trkpt>
      <trkpt lat="50.19119" lon="3.57741">
        <ele>129.80000305176</ele>
        <time>2020-08-16T08:12:00.000Z</time>
      </trkpt>
      <trkpt lat="50.19127" lon="3.57818">
        <ele>129.80000305176</ele>
        <time>2020-08-16T08:12:10.000Z</time>
      </trkpt>
      <trkpt lat="50.19125" lon="3.57888">
        <ele>129.80000305176</ele>
        <time>2020-08-16T08:12:18.000Z</time>
      </trkpt>
      <trkpt lat="50.19125" lon="3.57905">
        <ele>129.80000305176</ele>
        <time>2020-08-16T08:12:20.000Z</time>
      </trkpt>
      <trkpt lat="50.19126" lon="3.57921">
        <ele>129.80000305176</ele>
        <time>2020-08-16T08:12:22.000Z</time>
      </trkpt>
      <trkpt lat="50.19128" lon="3.57929">
        <ele>129.80000305176</ele>
        <time>2020-08-16T08:12:23.000Z</time>
      </trkpt>
      <trkpt lat="50.19139" lon="3.57943">
        <ele>129.80000305176</ele>
        <time>2020-08-16T08:12:26.000Z</time>
      </trkpt>
      <trkpt lat="50.19156" lon="3.57941">
        <ele>129.80000305176</ele>
        <time>2020-08-16T08:12:29.000Z</time>
      </trkpt>
      <trkpt lat="50.19208" lon="3.57927">
        <ele>129.80000305176</ele>
        <time>2020-08-16T08:12:39.000Z</time>
      </trkpt>
      <trkpt lat="50.19222" lon="3.57939">
        <ele>129.80000305176</ele>
        <time>2020-08-16T08:12:42.000Z</time>
      </trkpt>
      <trkpt lat="50.1923" lon="3.57954">
        <ele>129.80000305176</ele>
        <time>2020-08-16T08:12:44.000Z</time>
      </trkpt>
      <trkpt lat="50.19243" lon="3.57984">
        <ele>129.80000305176</ele>
        <time>2020-08-16T08:12:48.000Z</time>
      </trkpt>
      <trkpt lat="50.1926" lon="3.58026">
        <ele>129.19999694824</ele>
        <time>2020-08-16T08:12:53.000Z</time>
      </trkpt>
      <trkpt lat="50.19264" lon="3.58033">
        <ele>128.80000305176</ele>
        <time>2020-08-16T08:12:54.000Z</time>
      </trkpt>
      <trkpt lat="50.19268" lon="3.58041">
        <ele>128.39999389648</ele>
        <time>2020-08-16T08:12:55.000Z</time>
      </trkpt>
      <trkpt lat="50.19271" lon="3.58049">
        <ele>128</ele>
        <time>2020-08-16T08:12:56.000Z</time>
      </trkpt>
      <trkpt lat="50.19274" lon="3.58056">
        <ele>127.59999847412</ele>
        <time>2020-08-16T08:12:57.000Z</time>
      </trkpt>
      <trkpt lat="50.19294" lon="3.58103">
        <ele>127.59999847412</ele>
        <time>2020-08-16T08:13:03.000Z</time>
      </trkpt>
      <trkpt lat="50.19328" lon="3.58169">
        <ele>127.59999847412</ele>
        <time>2020-08-16T08:13:12.000Z</time>
      </trkpt>
      <trkpt lat="50.19333" lon="3.58176">
        <ele>127.59999847412</ele>
        <time>2020-08-16T08:13:13.000Z</time>
      </trkpt>
      <trkpt lat="50.19364" lon="3.58215">
        <ele>127.59999847412</ele>
        <time>2020-08-16T08:13:19.000Z</time>
      </trkpt>
      <trkpt lat="50.1937" lon="3.58219">
        <ele>127.59999847412</ele>
        <time>2020-08-16T08:13:20.000Z</time>
      </trkpt>
      <trkpt lat="50.19386" lon="3.58227">
        <ele>127.59999847412</ele>
        <time>2020-08-16T08:13:23.000Z</time>
      </trkpt>
      <trkpt lat="50.19399" lon="3.58229">
        <ele>127.59999847412</ele>
        <time>2020-08-16T08:13:25.000Z</time>
      </trkpt>
      <trkpt lat="50.19425" lon="3.5823">
        <ele>127</ele>
        <time>2020-08-16T08:13:30.000Z</time>
      </trkpt>
      <trkpt lat="50.19429" lon="3.58231">
        <ele>126.59999847412</ele>
        <time>2020-08-16T08:13:31.000Z</time>
      </trkpt>
      <trkpt lat="50.19433" lon="3.58231">
        <ele>126.19999694824</ele>
        <time>2020-08-16T08:13:32.000Z</time>
      </trkpt>
      <trkpt lat="50.19437" lon="3.58231">
        <ele>125.80000305176</ele>
        <time>2020-08-16T08:13:33.000Z</time>
      </trkpt>
      <trkpt lat="50.19442" lon="3.58232">
        <ele>125.19999694824</ele>
        <time>2020-08-16T08:13:34.000Z</time>
      </trkpt>
      <trkpt lat="50.19457" lon="3.58237">
        <ele>125.19999694824</ele>
        <time>2020-08-16T08:13:37.000Z</time>
      </trkpt>
      <trkpt lat="50.19497" lon="3.58253">
        <ele>125.19999694824</ele>
        <time>2020-08-16T08:13:44.000Z</time>
      </trkpt>
      <trkpt lat="50.19535" lon="3.58273">
        <ele>125.19999694824</ele>
        <time>2020-08-16T08:13:51.000Z</time>
      </trkpt>
      <trkpt lat="50.19541" lon="3.58276">
        <ele>124.80000305176</ele>
        <time>2020-08-16T08:13:52.000Z</time>
      </trkpt>
      <trkpt lat="50.19546" lon="3.5828">
        <ele>124.40000152588</ele>
        <time>2020-08-16T08:13:53.000Z</time>
      </trkpt>
      <trkpt lat="50.19552" lon="3.58283">
        <ele>124</ele>
        <time>2020-08-16T08:13:54.000Z</time>
      </trkpt>
      <trkpt lat="50.19557" lon="3.58287">
        <ele>123.59999847412</ele>
        <time>2020-08-16T08:13:55.000Z</time>
      </trkpt>
      <trkpt lat="50.19562" lon="3.5829">
        <ele>123.19999694824</ele>
        <time>2020-08-16T08:13:56.000Z</time>
      </trkpt>
      <trkpt lat="50.19578" lon="3.58301">
        <ele>123.19999694824</ele>
        <time>2020-08-16T08:13:59.000Z</time>
      </trkpt>
      <trkpt lat="50.19613" lon="3.58328">
        <ele>122.80000305176</ele>
        <time>2020-08-16T08:14:06.000Z</time>
      </trkpt>
      <trkpt lat="50.19618" lon="3.58333">
        <ele>122.19999694824</ele>
        <time>2020-08-16T08:14:07.000Z</time>
      </trkpt>
      <trkpt lat="50.19623" lon="3.58337">
        <ele>121.80000305176</ele>
        <time>2020-08-16T08:14:08.000Z</time>
      </trkpt>
      <trkpt lat="50.19628" lon="3.58342">
        <ele>121.40000152588</ele>
        <time>2020-08-16T08:14:09.000Z</time>
      </trkpt>
      <trkpt lat="50.19632" lon="3.58347">
        <ele>120.80000305176</ele>
        <time>2020-08-16T08:14:10.000Z</time>
      </trkpt>
      <trkpt lat="50.19666" lon="3.58383">
        <ele>120.80000305176</ele>
        <time>2020-08-16T08:14:17.000Z</time>
      </trkpt>
      <trkpt lat="50.19671" lon="3.58387">
        <ele>120.80000305176</ele>
        <time>2020-08-16T08:14:18.000Z</time>
      </trkpt>
      <trkpt lat="50.19681" lon="3.58387">
        <ele>120.80000305176</ele>
        <time>2020-08-16T08:14:20.000Z</time>
      </trkpt>
      <trkpt lat="50.19697" lon="3.58372">
        <ele>120.80000305176</ele>
        <time>2020-08-16T08:14:23.000Z</time>
      </trkpt>
      <trkpt lat="50.19739" lon="3.58322">
        <ele>120.80000305176</ele>
        <time>2020-08-16T08:14:31.000Z</time>
      </trkpt>
      <trkpt lat="50.19783" lon="3.58271">
        <ele>120.80000305176</ele>
        <time>2020-08-16T08:14:40.000Z</time>
      </trkpt>
      <trkpt lat="50.19813" lon="3.58235">
        <ele>120.80000305176</ele>
        <time>2020-08-16T08:14:47.000Z</time>
      </trkpt>
      <trkpt lat="50.19827" lon="3.5822">
        <ele>120.40000152588</ele>
        <time>2020-08-16T08:14:50.000Z</time>
      </trkpt>
      <trkpt lat="50.19832" lon="3.58214">
        <ele>120</ele>
        <time>2020-08-16T08:14:51.000Z</time>
      </trkpt>
      <trkpt lat="50.19836" lon="3.58209">
        <ele>119.59999847412</ele>
        <time>2020-08-16T08:14:52.000Z</time>
      </trkpt>
      <trkpt lat="50.19841" lon="3.58203">
        <ele>119.19999694824</ele>
        <time>2020-08-16T08:14:53.000Z</time>
      </trkpt>
      <trkpt lat="50.19846" lon="3.58197">
        <ele>118.59999847412</ele>
        <time>2020-08-16T08:14:54.000Z</time>
      </trkpt>
      <trkpt lat="50.19861" lon="3.58179">
        <ele>118.59999847412</ele>
        <time>2020-08-16T08:14:57.000Z</time>
      </trkpt>
      <trkpt lat="50.19875" lon="3.58164">
        <ele>118.19999694824</ele>
        <time>2020-08-16T08:15:00.000Z</time>
      </trkpt>
      <trkpt lat="50.1988" lon="3.58158">
        <ele>117.80000305176</ele>
        <time>2020-08-16T08:15:01.000Z</time>
      </trkpt>
      <trkpt lat="50.19885" lon="3.58153">
        <ele>117.40000152588</ele>
        <time>2020-08-16T08:15:02.000Z</time>
      </trkpt>
      <trkpt lat="50.1989" lon="3.58147">
        <ele>117</ele>
        <time>2020-08-16T08:15:03.000Z</time>
      </trkpt>
      <trkpt lat="50.19896" lon="3.5814">
        <ele>116.59999847412</ele>
        <time>2020-08-16T08:15:04.000Z</time>
      </trkpt>
      <trkpt lat="50.19924" lon="3.58107">
        <ele>116.19999694824</ele>
        <time>2020-08-16T08:15:09.000Z</time>
      </trkpt>
      <trkpt lat="50.19929" lon="3.58099">
        <ele>115.80000305176</ele>
        <time>2020-08-16T08:15:10.000Z</time>
      </trkpt>
      <trkpt lat="50.19934" lon="3.58093">
        <ele>115.40000152588</ele>
        <time>2020-08-16T08:15:11.000Z</time>
      </trkpt>
      <trkpt lat="50.19938" lon="3.58086">
        <ele>115</ele>
        <time>2020-08-16T08:15:12.000Z</time>
      </trkpt>
      <trkpt lat="50.19942" lon="3.58081">
        <ele>114.40000152588</ele>
        <time>2020-08-16T08:15:13.000Z</time>
      </trkpt>
      <trkpt lat="50.19946" lon="3.58075">
        <ele>114.40000152588</ele>
        <time>2020-08-16T08:15:14.000Z</time>
      </trkpt>
      <trkpt lat="50.1995" lon="3.5807">
        <ele>114</ele>
        <time>2020-08-16T08:15:15.000Z</time>
      </trkpt>
      <trkpt lat="50.19953" lon="3.58064">
        <ele>113.40000152588</ele>
        <time>2020-08-16T08:15:16.000Z</time>
      </trkpt>
      <trkpt lat="50.19955" lon="3.58058">
        <ele>112.80000305176</ele>
        <time>2020-08-16T08:15:17.000Z</time>
      </trkpt>
      <trkpt lat="50.19957" lon="3.58051">
        <ele>112.40000152588</ele>
        <time>2020-08-16T08:15:18.000Z</time>
      </trkpt>
      <trkpt lat="50.19959" lon="3.58043">
        <ele>111.80000305176</ele>
        <time>2020-08-16T08:15:19.000Z</time>
      </trkpt>
      <trkpt lat="50.19969" lon="3.58001">
        <ele>111.40000152588</ele>
        <time>2020-08-16T08:15:23.000Z</time>
      </trkpt>
      <trkpt lat="50.19973" lon="3.5799">
        <ele>111</ele>
        <time>2020-08-16T08:15:24.000Z</time>
      </trkpt>
      <trkpt lat="50.19976" lon="3.57977">
        <ele>110.59999847412</ele>
        <time>2020-08-16T08:15:25.000Z</time>
      </trkpt>
      <trkpt lat="50.19979" lon="3.57966">
        <ele>110.19999694824</ele>
        <time>2020-08-16T08:15:26.000Z</time>
      </trkpt>
      <trkpt lat="50.19983" lon="3.57954">
        <ele>109.80000305176</ele>
        <time>2020-08-16T08:15:27.000Z</time>
      </trkpt>
      <trkpt lat="50.19997" lon="3.57908">
        <ele>109.80000305176</ele>
        <time>2020-08-16T08:15:31.000Z</time>
      </trkpt>
      <trkpt lat="50.20018" lon="3.57838">
        <ele>109.80000305176</ele>
        <time>2020-08-16T08:15:38.000Z</time>
      </trkpt>
      <trkpt lat="50.20039" lon="3.57764">
        <ele>109.80000305176</ele>
        <time>2020-08-16T08:15:47.000Z</time>
      </trkpt>
      <trkpt lat="50.20068" lon="3.57686">
        <ele>109.80000305176</ele>
        <time>2020-08-16T08:15:57.000Z</time>
      </trkpt>
      <trkpt lat="50.20085" lon="3.57662">
        <ele>109.80000305176</ele>
        <time>2020-08-16T08:16:01.000Z</time>
      </trkpt>
      <trkpt lat="50.20095" lon="3.57654">
        <ele>109.80000305176</ele>
        <time>2020-08-16T08:16:03.000Z</time>
      </trkpt>
      <trkpt lat="50.20106" lon="3.57648">
        <ele>109.80000305176</ele>
        <time>2020-08-16T08:16:05.000Z</time>
      </trkpt>
      <trkpt lat="50.20128" lon="3.57638">
        <ele>109.80000305176</ele>
        <time>2020-08-16T08:16:09.000Z</time>
      </trkpt>
      <trkpt lat="50.20153" lon="3.57624">
        <ele>110.19999694824</ele>
        <time>2020-08-16T08:16:14.000Z</time>
      </trkpt>
      <trkpt lat="50.20158" lon="3.57621">
        <ele>110.59999847412</ele>
        <time>2020-08-16T08:16:15.000Z</time>
      </trkpt>
      <trkpt lat="50.20164" lon="3.57617">
        <ele>111</ele>
        <time>2020-08-16T08:16:16.000Z</time>
      </trkpt>
      <trkpt lat="50.20168" lon="3.57613">
        <ele>111.40000152588</ele>
        <time>2020-08-16T08:16:17.000Z</time>
      </trkpt>
      <trkpt lat="50.20173" lon="3.57609">
        <ele>111.80000305176</ele>
        <time>2020-08-16T08:16:18.000Z</time>
      </trkpt>
      <trkpt lat="50.20183" lon="3.57603">
        <ele>111.80000305176</ele>
        <time>2020-08-16T08:16:20.000Z</time>
      </trkpt>
      <trkpt lat="50.20196" lon="3.5759">
        <ele>111.80000305176</ele>
        <time>2020-08-16T08:16:23.000Z</time>
      </trkpt>
      <trkpt lat="50.20206" lon="3.57576">
        <ele>111.80000305176</ele>
        <time>2020-08-16T08:16:26.000Z</time>
      </trkpt>
      <trkpt lat="50.20207" lon="3.57574">
        <ele>111.80000305176</ele>
        <time>2020-08-16T08:16:27.000Z</time>
      </trkpt>
      <trkpt lat="50.20208" lon="3.57574">
        <ele>111.80000305176</ele>
        <time>2020-08-16T08:16:28.000Z</time>
      </trkpt>
      <trkpt lat="50.20094" lon="3.57657">
        <ele>111.80000305176</ele>
        <time>2020-08-16T08:18:15.000Z</time>
      </trkpt>
      <trkpt lat="50.2009" lon="3.57656">
        <ele>111.80000305176</ele>
        <time>2020-08-16T08:18:16.000Z</time>
      </trkpt>
      <trkpt lat="50.20087" lon="3.57648">
        <ele>111.80000305176</ele>
        <time>2020-08-16T08:18:18.000Z</time>
      </trkpt>
      <trkpt lat="50.2009" lon="3.57638">
        <ele>111.80000305176</ele>
        <time>2020-08-16T08:18:20.000Z</time>
      </trkpt>
      <trkpt lat="50.20092" lon="3.57632">
        <ele>111.80000305176</ele>
        <time>2020-08-16T08:18:21.000Z</time>
      </trkpt>
      <trkpt lat="50.20093" lon="3.57626">
        <ele>111.80000305176</ele>
        <time>2020-08-16T08:18:22.000Z</time>
      </trkpt>
      <trkpt lat="50.20095" lon="3.57602">
        <ele>111.80000305176</ele>
        <time>2020-08-16T08:18:25.000Z</time>
      </trkpt>
      <trkpt lat="50.20095" lon="3.57593">
        <ele>111.80000305176</ele>
        <time>2020-08-16T08:18:26.000Z</time>
      </trkpt>
      <trkpt lat="50.20091" lon="3.57561">
        <ele>111.80000305176</ele>
        <time>2020-08-16T08:18:30.000Z</time>
      </trkpt>
      <trkpt lat="50.2008" lon="3.57481">
        <ele>111.80000305176</ele>
        <time>2020-08-16T08:18:39.000Z</time>
      </trkpt>
      <trkpt lat="50.20073" lon="3.57415">
        <ele>111.80000305176</ele>
        <time>2020-08-16T08:18:46.000Z</time>
      </trkpt>
      <trkpt lat="50.20074" lon="3.57344">
        <ele>111.80000305176</ele>
        <time>2020-08-16T08:18:53.000Z</time>
      </trkpt>
      <trkpt lat="50.20077" lon="3.57326">
        <ele>112.59999847412</ele>
        <time>2020-08-16T08:18:55.000Z</time>
      </trkpt>
      <trkpt lat="50.20086" lon="3.57274">
        <ele>112.59999847412</ele>
        <time>2020-08-16T08:19:01.000Z</time>
      </trkpt>
      <trkpt lat="50.20092" lon="3.57249">
        <ele>113.59999847412</ele>
        <time>2020-08-16T08:19:04.000Z</time>
      </trkpt>
      <trkpt lat="50.20097" lon="3.57224">
        <ele>113.59999847412</ele>
        <time>2020-08-16T08:19:07.000Z</time>
      </trkpt>
      <trkpt lat="50.20099" lon="3.57201">
        <ele>113.59999847412</ele>
        <time>2020-08-16T08:19:10.000Z</time>
      </trkpt>
      <trkpt lat="50.20098" lon="3.57185">
        <ele>113.59999847412</ele>
        <time>2020-08-16T08:19:12.000Z</time>
      </trkpt>
      <trkpt lat="50.20098" lon="3.57178">
        <ele>114.80000305176</ele>
        <time>2020-08-16T08:19:13.000Z</time>
      </trkpt>
      <trkpt lat="50.20092" lon="3.57134">
        <ele>114.80000305176</ele>
        <time>2020-08-16T08:19:19.000Z</time>
      </trkpt>
      <trkpt lat="50.20088" lon="3.57112">
        <ele>116</ele>
        <time>2020-08-16T08:19:22.000Z</time>
      </trkpt>
      <trkpt lat="50.20081" lon="3.57073">
        <ele>116</ele>
        <time>2020-08-16T08:19:27.000Z</time>
      </trkpt>
      <trkpt lat="50.20072" lon="3.57038">
        <ele>117.19999694824</ele>
        <time>2020-08-16T08:19:31.000Z</time>
      </trkpt>
      <trkpt lat="50.20062" lon="3.57002">
        <ele>117.19999694824</ele>
        <time>2020-08-16T08:19:35.000Z</time>
      </trkpt>
      <trkpt lat="50.20049" lon="3.56958">
        <ele>119.40000152588</ele>
        <time>2020-08-16T08:19:40.000Z</time>
      </trkpt>
      <trkpt lat="50.20042" lon="3.56933">
        <ele>119.40000152588</ele>
        <time>2020-08-16T08:19:43.000Z</time>
      </trkpt>
      <trkpt lat="50.20029" lon="3.56888">
        <ele>121</ele>
        <time>2020-08-16T08:19:49.000Z</time>
      </trkpt>
      <trkpt lat="50.20027" lon="3.56881">
        <ele>121</ele>
        <time>2020-08-16T08:19:50.000Z</time>
      </trkpt>
      <trkpt lat="50.20017" lon="3.5683">
        <ele>121</ele>
        <time>2020-08-16T08:19:57.000Z</time>
      </trkpt>
      <trkpt lat="50.20015" lon="3.56823">
        <ele>122.40000152588</ele>
        <time>2020-08-16T08:19:58.000Z</time>
      </trkpt>
      <trkpt lat="50.20006" lon="3.56769">
        <ele>122.40000152588</ele>
        <time>2020-08-16T08:20:05.000Z</time>
      </trkpt>
      <trkpt lat="50.20004" lon="3.56755">
        <ele>123.19999694824</ele>
        <time>2020-08-16T08:20:07.000Z</time>
      </trkpt>
      <trkpt lat="50.19995" lon="3.56699">
        <ele>123.19999694824</ele>
        <time>2020-08-16T08:20:14.000Z</time>
      </trkpt>
      <trkpt lat="50.19981" lon="3.56628">
        <ele>124</ele>
        <time>2020-08-16T08:20:22.000Z</time>
      </trkpt>
      <trkpt lat="50.19975" lon="3.56593">
        <ele>124</ele>
        <time>2020-08-16T08:20:26.000Z</time>
      </trkpt>
      <trkpt lat="50.19974" lon="3.56576">
        <ele>124</ele>
        <time>2020-08-16T08:20:28.000Z</time>
      </trkpt>
      <trkpt lat="50.19973" lon="3.56551">
        <ele>124.80000305176</ele>
        <time>2020-08-16T08:20:31.000Z</time>
      </trkpt>
      <trkpt lat="50.19973" lon="3.56542">
        <ele>124.80000305176</ele>
        <time>2020-08-16T08:20:32.000Z</time>
      </trkpt>
      <trkpt lat="50.19982" lon="3.56473">
        <ele>125.59999847412</ele>
        <time>2020-08-16T08:20:40.000Z</time>
      </trkpt>
      <trkpt lat="50.19984" lon="3.56465">
        <ele>125.59999847412</ele>
        <time>2020-08-16T08:20:41.000Z</time>
      </trkpt>
      <trkpt lat="50.19998" lon="3.56435">
        <ele>125.59999847412</ele>
        <time>2020-08-16T08:20:45.000Z</time>
      </trkpt>
      <trkpt lat="50.20002" lon="3.56427">
        <ele>125.59999847412</ele>
        <time>2020-08-16T08:20:46.000Z</time>
      </trkpt>
      <trkpt lat="50.20028" lon="3.56377">
        <ele>125.59999847412</ele>
        <time>2020-08-16T08:20:53.000Z</time>
      </trkpt>
      <trkpt lat="50.20066" lon="3.56312">
        <ele>125.59999847412</ele>
        <time>2020-08-16T08:21:02.000Z</time>
      </trkpt>
      <trkpt lat="50.20074" lon="3.56297">
        <ele>125.59999847412</ele>
        <time>2020-08-16T08:21:04.000Z</time>
      </trkpt>
      <trkpt lat="50.2011" lon="3.56225">
        <ele>125.59999847412</ele>
        <time>2020-08-16T08:21:14.000Z</time>
      </trkpt>
      <trkpt lat="50.20144" lon="3.56149">
        <ele>125.59999847412</ele>
        <time>2020-08-16T08:21:24.000Z</time>
      </trkpt>
      <trkpt lat="50.20157" lon="3.56119">
        <ele>125.59999847412</ele>
        <time>2020-08-16T08:21:28.000Z</time>
      </trkpt>
      <trkpt lat="50.20191" lon="3.56041">
        <ele>125.59999847412</ele>
        <time>2020-08-16T08:21:38.000Z</time>
      </trkpt>
      <trkpt lat="50.20197" lon="3.56025">
        <ele>125.59999847412</ele>
        <time>2020-08-16T08:21:40.000Z</time>
      </trkpt>
      <trkpt lat="50.20229" lon="3.55946">
        <ele>125.59999847412</ele>
        <time>2020-08-16T08:21:49.000Z</time>
      </trkpt>
      <trkpt lat="50.20248" lon="3.55896">
        <ele>125.59999847412</ele>
        <time>2020-08-16T08:21:55.000Z</time>
      </trkpt>
      <trkpt lat="50.2028" lon="3.55823">
        <ele>125.59999847412</ele>
        <time>2020-08-16T08:22:04.000Z</time>
      </trkpt>
      <trkpt lat="50.20287" lon="3.55808">
        <ele>125.59999847412</ele>
        <time>2020-08-16T08:22:06.000Z</time>
      </trkpt>
      <trkpt lat="50.20325" lon="3.55736">
        <ele>125.59999847412</ele>
        <time>2020-08-16T08:22:16.000Z</time>
      </trkpt>
      <trkpt lat="50.20329" lon="3.55729">
        <ele>125.59999847412</ele>
        <time>2020-08-16T08:22:17.000Z</time>
      </trkpt>
      <trkpt lat="50.20367" lon="3.55663">
        <ele>125.59999847412</ele>
        <time>2020-08-16T08:22:27.000Z</time>
      </trkpt>
      <trkpt lat="50.2039" lon="3.55629">
        <ele>125.59999847412</ele>
        <time>2020-08-16T08:22:32.000Z</time>
      </trkpt>
      <trkpt lat="50.20407" lon="3.55597">
        <ele>125</ele>
        <time>2020-08-16T08:22:36.000Z</time>
      </trkpt>
      <trkpt lat="50.20414" lon="3.5558">
        <ele>125</ele>
        <time>2020-08-16T08:22:38.000Z</time>
      </trkpt>
      <trkpt lat="50.20438" lon="3.55524">
        <ele>124.40000152588</ele>
        <time>2020-08-16T08:22:45.000Z</time>
      </trkpt>
      <trkpt lat="50.20444" lon="3.55508">
        <ele>124.40000152588</ele>
        <time>2020-08-16T08:22:47.000Z</time>
      </trkpt>
      <trkpt lat="50.20463" lon="3.55461">
        <ele>124.40000152588</ele>
        <time>2020-08-16T08:22:53.000Z</time>
      </trkpt>
      <trkpt lat="50.20467" lon="3.55452">
        <ele>123.80000305176</ele>
        <time>2020-08-16T08:22:54.000Z</time>
      </trkpt>
      <trkpt lat="50.20473" lon="3.55436">
        <ele>123.80000305176</ele>
        <time>2020-08-16T08:22:56.000Z</time>
      </trkpt>
      <trkpt lat="50.20499" lon="3.55381">
        <ele>123.19999694824</ele>
        <time>2020-08-16T08:23:03.000Z</time>
      </trkpt>
      <trkpt lat="50.20502" lon="3.55374">
        <ele>123.19999694824</ele>
        <time>2020-08-16T08:23:04.000Z</time>
      </trkpt>
      <trkpt lat="50.2053" lon="3.55313">
        <ele>122.59999847412</ele>
        <time>2020-08-16T08:23:12.000Z</time>
      </trkpt>
      <trkpt lat="50.2054" lon="3.55292">
        <ele>122.59999847412</ele>
        <time>2020-08-16T08:23:15.000Z</time>
      </trkpt>
      <trkpt lat="50.20561" lon="3.55246">
        <ele>122</ele>
        <time>2020-08-16T08:23:21.000Z</time>
      </trkpt>
      <trkpt lat="50.20577" lon="3.55207">
        <ele>122</ele>
        <time>2020-08-16T08:23:26.000Z</time>
      </trkpt>
      <trkpt lat="50.2059" lon="3.55179">
        <ele>121.59999847412</ele>
        <time>2020-08-16T08:23:30.000Z</time>
      </trkpt>
      <trkpt lat="50.20604" lon="3.55144">
        <ele>121.59999847412</ele>
        <time>2020-08-16T08:23:35.000Z</time>
      </trkpt>
      <trkpt lat="50.20617" lon="3.55115">
        <ele>121.19999694824</ele>
        <time>2020-08-16T08:23:39.000Z</time>
      </trkpt>
      <trkpt lat="50.20632" lon="3.55081">
        <ele>121.19999694824</ele>
        <time>2020-08-16T08:23:44.000Z</time>
      </trkpt>
      <trkpt lat="50.20643" lon="3.55053">
        <ele>120.80000305176</ele>
        <time>2020-08-16T08:23:48.000Z</time>
      </trkpt>
      <trkpt lat="50.20654" lon="3.55026">
        <ele>120.80000305176</ele>
        <time>2020-08-16T08:23:52.000Z</time>
      </trkpt>
      <trkpt lat="50.20666" lon="3.54991">
        <ele>120.40000152588</ele>
        <time>2020-08-16T08:23:57.000Z</time>
      </trkpt>
      <trkpt lat="50.20671" lon="3.54967">
        <ele>120.40000152588</ele>
        <time>2020-08-16T08:24:00.000Z</time>
      </trkpt>
      <trkpt lat="50.2068" lon="3.5492">
        <ele>119.40000152588</ele>
        <time>2020-08-16T08:24:06.000Z</time>
      </trkpt>
      <trkpt lat="50.20685" lon="3.54888">
        <ele>119.40000152588</ele>
        <time>2020-08-16T08:24:10.000Z</time>
      </trkpt>
      <trkpt lat="50.2069" lon="3.54847">
        <ele>119</ele>
        <time>2020-08-16T08:24:15.000Z</time>
      </trkpt>
      <trkpt lat="50.20699" lon="3.54798">
        <ele>119</ele>
        <time>2020-08-16T08:24:21.000Z</time>
      </trkpt>
      <trkpt lat="50.20708" lon="3.54754">
        <ele>118.19999694824</ele>
        <time>2020-08-16T08:24:27.000Z</time>
      </trkpt>
      <trkpt lat="50.2071" lon="3.54747">
        <ele>118.19999694824</ele>
        <time>2020-08-16T08:24:28.000Z</time>
      </trkpt>
      <trkpt lat="50.20711" lon="3.54741">
        <ele>118.19999694824</ele>
        <time>2020-08-16T08:24:29.000Z</time>
      </trkpt>
      <trkpt lat="50.2072" lon="3.54708">
        <ele>118.19999694824</ele>
        <time>2020-08-16T08:24:34.000Z</time>
      </trkpt>
      <trkpt lat="50.20741" lon="3.54643">
        <ele>118.19999694824</ele>
        <time>2020-08-16T08:24:44.000Z</time>
      </trkpt>
      <trkpt lat="50.20754" lon="3.54609">
        <ele>118.19999694824</ele>
        <time>2020-08-16T08:24:49.000Z</time>
      </trkpt>
      <trkpt lat="50.20763" lon="3.5459">
        <ele>118.19999694824</ele>
        <time>2020-08-16T08:24:52.000Z</time>
      </trkpt>
      <trkpt lat="50.20796" lon="3.54527">
        <ele>118.19999694824</ele>
        <time>2020-08-16T08:25:03.000Z</time>
      </trkpt>
      <trkpt lat="50.20799" lon="3.54522">
        <ele>117</ele>
        <time>2020-08-16T08:25:04.000Z</time>
      </trkpt>
      <trkpt lat="50.20809" lon="3.54509">
        <ele>117</ele>
        <time>2020-08-16T08:25:07.000Z</time>
      </trkpt>
      <trkpt lat="50.20821" lon="3.54493">
        <ele>117</ele>
        <time>2020-08-16T08:25:11.000Z</time>
      </trkpt>
      <trkpt lat="50.20827" lon="3.54486">
        <ele>116.59999847412</ele>
        <time>2020-08-16T08:25:13.000Z</time>
      </trkpt>
      <trkpt lat="50.20844" lon="3.54467">
        <ele>116.59999847412</ele>
        <time>2020-08-16T08:25:19.000Z</time>
      </trkpt>
      <trkpt lat="50.20851" lon="3.54458">
        <ele>116</ele>
        <time>2020-08-16T08:25:22.000Z</time>
      </trkpt>
      <trkpt lat="50.20859" lon="3.54454">
        <ele>116</ele>
        <time>2020-08-16T08:25:25.000Z</time>
      </trkpt>
      <trkpt lat="50.20863" lon="3.54455">
        <ele>116</ele>
        <time>2020-08-16T08:25:27.000Z</time>
      </trkpt>
      <trkpt lat="50.20866" lon="3.54463">
        <ele>116</ele>
        <time>2020-08-16T08:25:29.000Z</time>
      </trkpt>
      <trkpt lat="50.20875" lon="3.54494">
        <ele>116</ele>
        <time>2020-08-16T08:25:37.000Z</time>
      </trkpt>
      <trkpt lat="50.20881" lon="3.5451">
        <ele>115.40000152588</ele>
        <time>2020-08-16T08:25:40.000Z</time>
      </trkpt>
      <trkpt lat="50.20885" lon="3.54524">
        <ele>115.40000152588</ele>
        <time>2020-08-16T08:25:42.000Z</time>
      </trkpt>
      <trkpt lat="50.20906" lon="3.54589">
        <ele>115.40000152588</ele>
        <time>2020-08-16T08:25:51.000Z</time>
      </trkpt>
      <trkpt lat="50.20933" lon="3.54667">
        <ele>115.40000152588</ele>
        <time>2020-08-16T08:26:02.000Z</time>
      </trkpt>
      <trkpt lat="50.20936" lon="3.54674">
        <ele>115.40000152588</ele>
        <time>2020-08-16T08:26:03.000Z</time>
      </trkpt>
      <trkpt lat="50.20957" lon="3.54736">
        <ele>115.40000152588</ele>
        <time>2020-08-16T08:26:12.000Z</time>
      </trkpt>
      <trkpt lat="50.20985" lon="3.54816">
        <ele>115.40000152588</ele>
        <time>2020-08-16T08:26:23.000Z</time>
      </trkpt>
      <trkpt lat="50.21011" lon="3.5489">
        <ele>115.40000152588</ele>
        <time>2020-08-16T08:26:33.000Z</time>
      </trkpt>
      <trkpt lat="50.21016" lon="3.54905">
        <ele>115.40000152588</ele>
        <time>2020-08-16T08:26:35.000Z</time>
      </trkpt>
      <trkpt lat="50.21041" lon="3.54979">
        <ele>115.40000152588</ele>
        <time>2020-08-16T08:26:45.000Z</time>
      </trkpt>
      <trkpt lat="50.21056" lon="3.55024">
        <ele>115.40000152588</ele>
        <time>2020-08-16T08:26:51.000Z</time>
      </trkpt>
      <trkpt lat="50.21078" lon="3.55094">
        <ele>115</ele>
        <time>2020-08-16T08:27:00.000Z</time>
      </trkpt>
      <trkpt lat="50.21082" lon="3.55118">
        <ele>115</ele>
        <time>2020-08-16T08:27:03.000Z</time>
      </trkpt>
      <trkpt lat="50.21083" lon="3.55188">
        <ele>115</ele>
        <time>2020-08-16T08:27:11.000Z</time>
      </trkpt>
      <trkpt lat="50.21081" lon="3.55265">
        <ele>115</ele>
        <time>2020-08-16T08:27:19.000Z</time>
      </trkpt>
      <trkpt lat="50.21088" lon="3.55355">
        <ele>115</ele>
        <time>2020-08-16T08:27:28.000Z</time>
      </trkpt>
      <trkpt lat="50.21089" lon="3.55364">
        <ele>115</ele>
        <time>2020-08-16T08:27:29.000Z</time>
      </trkpt>
      <trkpt lat="50.21105" lon="3.55447">
        <ele>115</ele>
        <time>2020-08-16T08:27:38.000Z</time>
      </trkpt>
      <trkpt lat="50.21109" lon="3.55465">
        <ele>114.59999847412</ele>
        <time>2020-08-16T08:27:40.000Z</time>
      </trkpt>
      <trkpt lat="50.21125" lon="3.55551">
        <ele>114.59999847412</ele>
        <time>2020-08-16T08:27:50.000Z</time>
      </trkpt>
      <trkpt lat="50.21127" lon="3.5556">
        <ele>114.59999847412</ele>
        <time>2020-08-16T08:27:51.000Z</time>
      </trkpt>
      <trkpt lat="50.21143" lon="3.55646">
        <ele>114.59999847412</ele>
        <time>2020-08-16T08:28:01.000Z</time>
      </trkpt>
      <trkpt lat="50.21145" lon="3.55655">
        <ele>114.59999847412</ele>
        <time>2020-08-16T08:28:02.000Z</time>
      </trkpt>
      <trkpt lat="50.21155" lon="3.55707">
        <ele>114.19999694824</ele>
        <time>2020-08-16T08:28:08.000Z</time>
      </trkpt>
      <trkpt lat="50.21165" lon="3.55758">
        <ele>114.19999694824</ele>
        <time>2020-08-16T08:28:14.000Z</time>
      </trkpt>
      <trkpt lat="50.21182" lon="3.55843">
        <ele>114.19999694824</ele>
        <time>2020-08-16T08:28:24.000Z</time>
      </trkpt>
      <trkpt lat="50.21199" lon="3.55929">
        <ele>114.19999694824</ele>
        <time>2020-08-16T08:28:35.000Z</time>
      </trkpt>
      <trkpt lat="50.212" lon="3.55937">
        <ele>113.80000305176</ele>
        <time>2020-08-16T08:28:36.000Z</time>
      </trkpt>
      <trkpt lat="50.21203" lon="3.55952">
        <ele>113.80000305176</ele>
        <time>2020-08-16T08:28:38.000Z</time>
      </trkpt>
      <trkpt lat="50.21218" lon="3.56034">
        <ele>113.80000305176</ele>
        <time>2020-08-16T08:28:49.000Z</time>
      </trkpt>
      <trkpt lat="50.2122" lon="3.56041">
        <ele>113.80000305176</ele>
        <time>2020-08-16T08:28:50.000Z</time>
      </trkpt>
      <trkpt lat="50.21236" lon="3.56124">
        <ele>113.80000305176</ele>
        <time>2020-08-16T08:29:02.000Z</time>
      </trkpt>
      <trkpt lat="50.21252" lon="3.56209">
        <ele>113.80000305176</ele>
        <time>2020-08-16T08:29:14.000Z</time>
      </trkpt>
      <trkpt lat="50.21254" lon="3.56223">
        <ele>114</ele>
        <time>2020-08-16T08:29:16.000Z</time>
      </trkpt>
      <trkpt lat="50.21257" lon="3.56237">
        <ele>114</ele>
        <time>2020-08-16T08:29:18.000Z</time>
      </trkpt>
      <trkpt lat="50.2127" lon="3.56306">
        <ele>114.80000305176</ele>
        <time>2020-08-16T08:29:28.000Z</time>
      </trkpt>
      <trkpt lat="50.21271" lon="3.56313">
        <ele>115.59999847412</ele>
        <time>2020-08-16T08:29:29.000Z</time>
      </trkpt>
      <trkpt lat="50.21273" lon="3.5632">
        <ele>116.40000152588</ele>
        <time>2020-08-16T08:29:30.000Z</time>
      </trkpt>
      <trkpt lat="50.21274" lon="3.56326">
        <ele>117.19999694824</ele>
        <time>2020-08-16T08:29:31.000Z</time>
      </trkpt>
      <trkpt lat="50.21275" lon="3.56334">
        <ele>118</ele>
        <time>2020-08-16T08:29:32.000Z</time>
      </trkpt>
      <trkpt lat="50.21277" lon="3.56341">
        <ele>118.59999847412</ele>
        <time>2020-08-16T08:29:33.000Z</time>
      </trkpt>
      <trkpt lat="50.21278" lon="3.56347">
        <ele>119.40000152588</ele>
        <time>2020-08-16T08:29:34.000Z</time>
      </trkpt>
      <trkpt lat="50.21279" lon="3.56354">
        <ele>120.19999694824</ele>
        <time>2020-08-16T08:29:35.000Z</time>
      </trkpt>
      <trkpt lat="50.21282" lon="3.56368">
        <ele>120.19999694824</ele>
        <time>2020-08-16T08:29:37.000Z</time>
      </trkpt>
      <trkpt lat="50.21298" lon="3.56455">
        <ele>120.19999694824</ele>
        <time>2020-08-16T08:29:49.000Z</time>
      </trkpt>
      <trkpt lat="50.21308" lon="3.56509">
        <ele>119.80000305176</ele>
        <time>2020-08-16T08:29:55.000Z</time>
      </trkpt>
      <trkpt lat="50.21311" lon="3.56518">
        <ele>119.19999694824</ele>
        <time>2020-08-16T08:29:56.000Z</time>
      </trkpt>
      <trkpt lat="50.21313" lon="3.56529">
        <ele>118.80000305176</ele>
        <time>2020-08-16T08:29:57.000Z</time>
      </trkpt>
      <trkpt lat="50.21316" lon="3.56538">
        <ele>118.40000152588</ele>
        <time>2020-08-16T08:29:58.000Z</time>
      </trkpt>
      <trkpt lat="50.21319" lon="3.56548">
        <ele>118</ele>
        <time>2020-08-16T08:29:59.000Z</time>
      </trkpt>
      <trkpt lat="50.2134" lon="3.56594">
        <ele>118</ele>
        <time>2020-08-16T08:30:04.000Z</time>
      </trkpt>
      <trkpt lat="50.21344" lon="3.56602">
        <ele>117.59999847412</ele>
        <time>2020-08-16T08:30:05.000Z</time>
      </trkpt>
      <trkpt lat="50.21349" lon="3.5661">
        <ele>117.19999694824</ele>
        <time>2020-08-16T08:30:06.000Z</time>
      </trkpt>
      <trkpt lat="50.21355" lon="3.56618">
        <ele>116.80000305176</ele>
        <time>2020-08-16T08:30:07.000Z</time>
      </trkpt>
      <trkpt lat="50.2136" lon="3.56626">
        <ele>116.19999694824</ele>
        <time>2020-08-16T08:30:08.000Z</time>
      </trkpt>
      <trkpt lat="50.21365" lon="3.56634">
        <ele>115.80000305176</ele>
        <time>2020-08-16T08:30:09.000Z</time>
      </trkpt>
      <trkpt lat="50.21381" lon="3.56657">
        <ele>115.80000305176</ele>
        <time>2020-08-16T08:30:12.000Z</time>
      </trkpt>
      <trkpt lat="50.21386" lon="3.56665">
        <ele>115</ele>
        <time>2020-08-16T08:30:13.000Z</time>
      </trkpt>
      <trkpt lat="50.21392" lon="3.56673">
        <ele>114.59999847412</ele>
        <time>2020-08-16T08:30:14.000Z</time>
      </trkpt>
      <trkpt lat="50.21397" lon="3.56681">
        <ele>114.19999694824</ele>
        <time>2020-08-16T08:30:15.000Z</time>
      </trkpt>
      <trkpt lat="50.21402" lon="3.56688">
        <ele>113.80000305176</ele>
        <time>2020-08-16T08:30:16.000Z</time>
      </trkpt>
      <trkpt lat="50.21423" lon="3.5672">
        <ele>113.40000152588</ele>
        <time>2020-08-16T08:30:20.000Z</time>
      </trkpt>
      <trkpt lat="50.21429" lon="3.56729">
        <ele>113</ele>
        <time>2020-08-16T08:30:21.000Z</time>
      </trkpt>
      <trkpt lat="50.21434" lon="3.56738">
        <ele>112.59999847412</ele>
        <time>2020-08-16T08:30:22.000Z</time>
      </trkpt>
      <trkpt lat="50.2144" lon="3.56747">
        <ele>112.19999694824</ele>
        <time>2020-08-16T08:30:23.000Z</time>
      </trkpt>
      <trkpt lat="50.21445" lon="3.56756">
        <ele>111.80000305176</ele>
        <time>2020-08-16T08:30:24.000Z</time>
      </trkpt>
      <trkpt lat="50.2145" lon="3.56765">
        <ele>111.40000152588</ele>
        <time>2020-08-16T08:30:25.000Z</time>
      </trkpt>
      <trkpt lat="50.21456" lon="3.56774">
        <ele>110.80000305176</ele>
        <time>2020-08-16T08:30:26.000Z</time>
      </trkpt>
      <trkpt lat="50.21461" lon="3.56783">
        <ele>110.40000152588</ele>
        <time>2020-08-16T08:30:27.000Z</time>
      </trkpt>
      <trkpt lat="50.21467" lon="3.56792">
        <ele>110</ele>
        <time>2020-08-16T08:30:28.000Z</time>
      </trkpt>
      <trkpt lat="50.21472" lon="3.56801">
        <ele>109.40000152588</ele>
        <time>2020-08-16T08:30:29.000Z</time>
      </trkpt>
      <trkpt lat="50.21477" lon="3.5681">
        <ele>108.80000305176</ele>
        <time>2020-08-16T08:30:30.000Z</time>
      </trkpt>
      <trkpt lat="50.21483" lon="3.5682">
        <ele>108.40000152588</ele>
        <time>2020-08-16T08:30:31.000Z</time>
      </trkpt>
      <trkpt lat="50.21488" lon="3.56829">
        <ele>107.80000305176</ele>
        <time>2020-08-16T08:30:32.000Z</time>
      </trkpt>
      <trkpt lat="50.21494" lon="3.56839">
        <ele>107.19999694824</ele>
        <time>2020-08-16T08:30:33.000Z</time>
      </trkpt>
      <trkpt lat="50.21499" lon="3.56848">
        <ele>106.80000305176</ele>
        <time>2020-08-16T08:30:34.000Z</time>
      </trkpt>
      <trkpt lat="50.21505" lon="3.56858">
        <ele>106.40000152588</ele>
        <time>2020-08-16T08:30:35.000Z</time>
      </trkpt>
      <trkpt lat="50.21511" lon="3.56867">
        <ele>106</ele>
        <time>2020-08-16T08:30:36.000Z</time>
      </trkpt>
      <trkpt lat="50.21516" lon="3.56876">
        <ele>105.59999847412</ele>
        <time>2020-08-16T08:30:37.000Z</time>
      </trkpt>
      <trkpt lat="50.21527" lon="3.56895">
        <ele>104.59999847412</ele>
        <time>2020-08-16T08:30:39.000Z</time>
      </trkpt>
      <trkpt lat="50.21532" lon="3.56904">
        <ele>104.19999694824</ele>
        <time>2020-08-16T08:30:40.000Z</time>
      </trkpt>
      <trkpt lat="50.21537" lon="3.56914">
        <ele>103.80000305176</ele>
        <time>2020-08-16T08:30:41.000Z</time>
      </trkpt>
      <trkpt lat="50.21542" lon="3.56924">
        <ele>103.40000152588</ele>
        <time>2020-08-16T08:30:42.000Z</time>
      </trkpt>
      <trkpt lat="50.21546" lon="3.56934">
        <ele>102.80000305176</ele>
        <time>2020-08-16T08:30:43.000Z</time>
      </trkpt>
      <trkpt lat="50.21554" lon="3.56957">
        <ele>101.80000305176</ele>
        <time>2020-08-16T08:30:45.000Z</time>
      </trkpt>
      <trkpt lat="50.21558" lon="3.56969">
        <ele>101.19999694824</ele>
        <time>2020-08-16T08:30:46.000Z</time>
      </trkpt>
      <trkpt lat="50.21562" lon="3.56981">
        <ele>100.40000152588</ele>
        <time>2020-08-16T08:30:47.000Z</time>
      </trkpt>
      <trkpt lat="50.21565" lon="3.56994">
        <ele>99.800003051758</ele>
        <time>2020-08-16T08:30:48.000Z</time>
      </trkpt>
      <trkpt lat="50.21569" lon="3.57006">
        <ele>99.199996948242</ele>
        <time>2020-08-16T08:30:49.000Z</time>
      </trkpt>
      <trkpt lat="50.21577" lon="3.57032">
        <ele>98</ele>
        <time>2020-08-16T08:30:51.000Z</time>
      </trkpt>
      <trkpt lat="50.21581" lon="3.57046">
        <ele>97.599998474121</ele>
        <time>2020-08-16T08:30:52.000Z</time>
      </trkpt>
      <trkpt lat="50.21585" lon="3.57059">
        <ele>97.199996948242</ele>
        <time>2020-08-16T08:30:53.000Z</time>
      </trkpt>
      <trkpt lat="50.21589" lon="3.57073">
        <ele>96.599998474121</ele>
        <time>2020-08-16T08:30:54.000Z</time>
      </trkpt>
      <trkpt lat="50.21597" lon="3.57101">
        <ele>96.199996948242</ele>
        <time>2020-08-16T08:30:56.000Z</time>
      </trkpt>
      <trkpt lat="50.21601" lon="3.57115">
        <ele>95.400001525879</ele>
        <time>2020-08-16T08:30:57.000Z</time>
      </trkpt>
      <trkpt lat="50.21606" lon="3.57129">
        <ele>95</ele>
        <time>2020-08-16T08:30:58.000Z</time>
      </trkpt>
      <trkpt lat="50.21614" lon="3.57158">
        <ele>94</ele>
        <time>2020-08-16T08:31:00.000Z</time>
      </trkpt>
      <trkpt lat="50.21623" lon="3.57186">
        <ele>93</ele>
        <time>2020-08-16T08:31:02.000Z</time>
      </trkpt>
      <trkpt lat="50.21628" lon="3.57201">
        <ele>93</ele>
        <time>2020-08-16T08:31:03.000Z</time>
      </trkpt>
      <trkpt lat="50.21632" lon="3.57215">
        <ele>92.199996948242</ele>
        <time>2020-08-16T08:31:04.000Z</time>
      </trkpt>
      <trkpt lat="50.21641" lon="3.57242">
        <ele>91.599998474121</ele>
        <time>2020-08-16T08:31:06.000Z</time>
      </trkpt>
      <trkpt lat="50.21645" lon="3.57254">
        <ele>90.199996948242</ele>
        <time>2020-08-16T08:31:07.000Z</time>
      </trkpt>
      <trkpt lat="50.2165" lon="3.57267">
        <ele>89.400001525879</ele>
        <time>2020-08-16T08:31:08.000Z</time>
      </trkpt>
      <trkpt lat="50.21662" lon="3.5729">
        <ele>89.400001525879</ele>
        <time>2020-08-16T08:31:10.000Z</time>
      </trkpt>
      <trkpt lat="50.21687" lon="3.57326">
        <ele>88.599998474121</ele>
        <time>2020-08-16T08:31:14.000Z</time>
      </trkpt>
      <trkpt lat="50.21693" lon="3.57334">
        <ele>88.199996948242</ele>
        <time>2020-08-16T08:31:15.000Z</time>
      </trkpt>
      <trkpt lat="50.217" lon="3.57342">
        <ele>87.800003051758</ele>
        <time>2020-08-16T08:31:16.000Z</time>
      </trkpt>
      <trkpt lat="50.21713" lon="3.57357">
        <ele>87.400001525879</ele>
        <time>2020-08-16T08:31:18.000Z</time>
      </trkpt>
      <trkpt lat="50.21731" lon="3.57377">
        <ele>87.400001525879</ele>
        <time>2020-08-16T08:31:21.000Z</time>
      </trkpt>
      <trkpt lat="50.21743" lon="3.57389">
        <ele>87.400001525879</ele>
        <time>2020-08-16T08:31:23.000Z</time>
      </trkpt>
      <trkpt lat="50.21757" lon="3.57409">
        <ele>87.400001525879</ele>
        <time>2020-08-16T08:31:26.000Z</time>
      </trkpt>
      <trkpt lat="50.21763" lon="3.57425">
        <ele>87.400001525879</ele>
        <time>2020-08-16T08:31:28.000Z</time>
      </trkpt>
      <trkpt lat="50.21764" lon="3.57434">
        <ele>87.800003051758</ele>
        <time>2020-08-16T08:31:29.000Z</time>
      </trkpt>
      <trkpt lat="50.21764" lon="3.57442">
        <ele>88.199996948242</ele>
        <time>2020-08-16T08:31:30.000Z</time>
      </trkpt>
      <trkpt lat="50.21764" lon="3.57451">
        <ele>88.599998474121</ele>
        <time>2020-08-16T08:31:31.000Z</time>
      </trkpt>
      <trkpt lat="50.21763" lon="3.57459">
        <ele>89.199996948242</ele>
        <time>2020-08-16T08:31:32.000Z</time>
      </trkpt>
      <trkpt lat="50.2176" lon="3.57467">
        <ele>89.599998474121</ele>
        <time>2020-08-16T08:31:33.000Z</time>
      </trkpt>
      <trkpt lat="50.21754" lon="3.57482">
        <ele>89.599998474121</ele>
        <time>2020-08-16T08:31:35.000Z</time>
      </trkpt>
      <trkpt lat="50.21746" lon="3.57495">
        <ele>89.599998474121</ele>
        <time>2020-08-16T08:31:37.000Z</time>
      </trkpt>
      <trkpt lat="50.21741" lon="3.57501">
        <ele>90</ele>
        <time>2020-08-16T08:31:38.000Z</time>
      </trkpt>
      <trkpt lat="50.21736" lon="3.57507">
        <ele>90.400001525879</ele>
        <time>2020-08-16T08:31:39.000Z</time>
      </trkpt>
      <trkpt lat="50.21731" lon="3.57513">
        <ele>90.800003051758</ele>
        <time>2020-08-16T08:31:40.000Z</time>
      </trkpt>
      <trkpt lat="50.21726" lon="3.57518">
        <ele>91.199996948242</ele>
        <time>2020-08-16T08:31:41.000Z</time>
      </trkpt>
      <trkpt lat="50.21721" lon="3.57524">
        <ele>91.599998474121</ele>
        <time>2020-08-16T08:31:42.000Z</time>
      </trkpt>
      <trkpt lat="50.2171" lon="3.57534">
        <ele>92</ele>
        <time>2020-08-16T08:31:44.000Z</time>
      </trkpt>
      <trkpt lat="50.21706" lon="3.5754">
        <ele>92.599998474121</ele>
        <time>2020-08-16T08:31:45.000Z</time>
      </trkpt>
      <trkpt lat="50.21702" lon="3.57546">
        <ele>93</ele>
        <time>2020-08-16T08:31:46.000Z</time>
      </trkpt>
      <trkpt lat="50.21697" lon="3.57553">
        <ele>93.599998474121</ele>
        <time>2020-08-16T08:31:47.000Z</time>
      </trkpt>
      <trkpt lat="50.21693" lon="3.57559">
        <ele>94</ele>
        <time>2020-08-16T08:31:48.000Z</time>
      </trkpt>
      <trkpt lat="50.21689" lon="3.57566">
        <ele>94</ele>
        <time>2020-08-16T08:31:49.000Z</time>
      </trkpt>
      <trkpt lat="50.21682" lon="3.57591">
        <ele>94</ele>
        <time>2020-08-16T08:31:52.000Z</time>
      </trkpt>
      <trkpt lat="50.21683" lon="3.57618">
        <ele>94</ele>
        <time>2020-08-16T08:31:55.000Z</time>
      </trkpt>
      <trkpt lat="50.21684" lon="3.57626">
        <ele>94.599998474121</ele>
        <time>2020-08-16T08:31:56.000Z</time>
      </trkpt>
      <trkpt lat="50.21686" lon="3.57635">
        <ele>95</ele>
        <time>2020-08-16T08:31:57.000Z</time>
      </trkpt>
      <trkpt lat="50.21689" lon="3.57642">
        <ele>95.400001525879</ele>
        <time>2020-08-16T08:31:58.000Z</time>
      </trkpt>
      <trkpt lat="50.21692" lon="3.57648">
        <ele>96</ele>
        <time>2020-08-16T08:31:59.000Z</time>
      </trkpt>
      <trkpt lat="50.21695" lon="3.57655">
        <ele>96.400001525879</ele>
        <time>2020-08-16T08:32:00.000Z</time>
      </trkpt>
      <trkpt lat="50.21703" lon="3.57666">
        <ele>96.400001525879</ele>
        <time>2020-08-16T08:32:02.000Z</time>
      </trkpt>
      <trkpt lat="50.21711" lon="3.57674">
        <ele>96.800003051758</ele>
        <time>2020-08-16T08:32:04.000Z</time>
      </trkpt>
      <trkpt lat="50.21717" lon="3.57677">
        <ele>97.199996948242</ele>
        <time>2020-08-16T08:32:05.000Z</time>
      </trkpt>
      <trkpt lat="50.21723" lon="3.57679">
        <ele>97.800003051758</ele>
        <time>2020-08-16T08:32:06.000Z</time>
      </trkpt>
      <trkpt lat="50.21728" lon="3.57679">
        <ele>98.199996948242</ele>
        <time>2020-08-16T08:32:07.000Z</time>
      </trkpt>
      <trkpt lat="50.21733" lon="3.5768">
        <ele>98.599998474121</ele>
        <time>2020-08-16T08:32:08.000Z</time>
      </trkpt>
      <trkpt lat="50.21739" lon="3.57681">
        <ele>98.599998474121</ele>
        <time>2020-08-16T08:32:09.000Z</time>
      </trkpt>
      <trkpt lat="50.2175" lon="3.57681">
        <ele>98.599998474121</ele>
        <time>2020-08-16T08:32:11.000Z</time>
      </trkpt>
      <trkpt lat="50.21762" lon="3.57678">
        <ele>99</ele>
        <time>2020-08-16T08:32:13.000Z</time>
      </trkpt>
      <trkpt lat="50.21767" lon="3.57676">
        <ele>99.599998474121</ele>
        <time>2020-08-16T08:32:14.000Z</time>
      </trkpt>
      <trkpt lat="50.21772" lon="3.57673">
        <ele>100</ele>
        <time>2020-08-16T08:32:15.000Z</time>
      </trkpt>
      <trkpt lat="50.21777" lon="3.5767">
        <ele>100.40000152588</ele>
        <time>2020-08-16T08:32:16.000Z</time>
      </trkpt>
      <trkpt lat="50.21782" lon="3.57667">
        <ele>101</ele>
        <time>2020-08-16T08:32:17.000Z</time>
      </trkpt>
      <trkpt lat="50.21815" lon="3.57644">
        <ele>101</ele>
        <time>2020-08-16T08:32:24.000Z</time>
      </trkpt>
      <trkpt lat="50.21824" lon="3.57638">
        <ele>101.40000152588</ele>
        <time>2020-08-16T08:32:26.000Z</time>
      </trkpt>
      <trkpt lat="50.21829" lon="3.57635">
        <ele>101.80000305176</ele>
        <time>2020-08-16T08:32:27.000Z</time>
      </trkpt>
      <trkpt lat="50.21833" lon="3.57632">
        <ele>102.19999694824</ele>
        <time>2020-08-16T08:32:28.000Z</time>
      </trkpt>
      <trkpt lat="50.21838" lon="3.5763">
        <ele>102.59999847412</ele>
        <time>2020-08-16T08:32:29.000Z</time>
      </trkpt>
      <trkpt lat="50.21842" lon="3.57627">
        <ele>103</ele>
        <time>2020-08-16T08:32:30.000Z</time>
      </trkpt>
      <trkpt lat="50.21855" lon="3.57622">
        <ele>103</ele>
        <time>2020-08-16T08:32:33.000Z</time>
      </trkpt>
      <trkpt lat="50.21888" lon="3.57615">
        <ele>103</ele>
        <time>2020-08-16T08:32:40.000Z</time>
      </trkpt>
      <trkpt lat="50.21893" lon="3.57615">
        <ele>103.40000152588</ele>
        <time>2020-08-16T08:32:41.000Z</time>
      </trkpt>
      <trkpt lat="50.21897" lon="3.57615">
        <ele>103.80000305176</ele>
        <time>2020-08-16T08:32:42.000Z</time>
      </trkpt>
      <trkpt lat="50.21901" lon="3.57614">
        <ele>104.19999694824</ele>
        <time>2020-08-16T08:32:43.000Z</time>
      </trkpt>
      <trkpt lat="50.21905" lon="3.57614">
        <ele>104.59999847412</ele>
        <time>2020-08-16T08:32:44.000Z</time>
      </trkpt>
      <trkpt lat="50.2191" lon="3.57614">
        <ele>105</ele>
        <time>2020-08-16T08:32:45.000Z</time>
      </trkpt>
      <trkpt lat="50.21919" lon="3.57615">
        <ele>105</ele>
        <time>2020-08-16T08:32:47.000Z</time>
      </trkpt>
      <trkpt lat="50.21953" lon="3.5762">
        <ele>105.40000152588</ele>
        <time>2020-08-16T08:32:54.000Z</time>
      </trkpt>
      <trkpt lat="50.21958" lon="3.57621">
        <ele>105.80000305176</ele>
        <time>2020-08-16T08:32:55.000Z</time>
      </trkpt>
      <trkpt lat="50.21962" lon="3.57622">
        <ele>106.40000152588</ele>
        <time>2020-08-16T08:32:56.000Z</time>
      </trkpt>
      <trkpt lat="50.21967" lon="3.57623">
        <ele>106.80000305176</ele>
        <time>2020-08-16T08:32:57.000Z</time>
      </trkpt>
      <trkpt lat="50.21971" lon="3.57625">
        <ele>107.19999694824</ele>
        <time>2020-08-16T08:32:58.000Z</time>
      </trkpt>
      <trkpt lat="50.21987" lon="3.57632">
        <ele>107.19999694824</ele>
        <time>2020-08-16T08:33:02.000Z</time>
      </trkpt>
      <trkpt lat="50.21991" lon="3.57634">
        <ele>107.19999694824</ele>
        <time>2020-08-16T08:33:03.000Z</time>
      </trkpt>
      <trkpt lat="50.21998" lon="3.57639">
        <ele>107.59999847412</ele>
        <time>2020-08-16T08:33:05.000Z</time>
      </trkpt>
      <trkpt lat="50.22002" lon="3.57641">
        <ele>108</ele>
        <time>2020-08-16T08:33:06.000Z</time>
      </trkpt>
      <trkpt lat="50.22006" lon="3.57643">
        <ele>108.59999847412</ele>
        <time>2020-08-16T08:33:07.000Z</time>
      </trkpt>
      <trkpt lat="50.2201" lon="3.57645">
        <ele>109</ele>
        <time>2020-08-16T08:33:08.000Z</time>
      </trkpt>
      <trkpt lat="50.22013" lon="3.57647">
        <ele>109.40000152588</ele>
        <time>2020-08-16T08:33:09.000Z</time>
      </trkpt>
      <trkpt lat="50.22031" lon="3.5766">
        <ele>109.40000152588</ele>
        <time>2020-08-16T08:33:14.000Z</time>
      </trkpt>
      <trkpt lat="50.22034" lon="3.57663">
        <ele>109.40000152588</ele>
        <time>2020-08-16T08:33:15.000Z</time>
      </trkpt>
      <trkpt lat="50.22066" lon="3.57692">
        <ele>109.80000305176</ele>
        <time>2020-08-16T08:33:24.000Z</time>
      </trkpt>
      <trkpt lat="50.2207" lon="3.57695">
        <ele>110.19999694824</ele>
        <time>2020-08-16T08:33:25.000Z</time>
      </trkpt>
      <trkpt lat="50.22073" lon="3.57699">
        <ele>110.80000305176</ele>
        <time>2020-08-16T08:33:26.000Z</time>
      </trkpt>
      <trkpt lat="50.22077" lon="3.57703">
        <ele>111.19999694824</ele>
        <time>2020-08-16T08:33:27.000Z</time>
      </trkpt>
      <trkpt lat="50.22081" lon="3.57706">
        <ele>111.59999847412</ele>
        <time>2020-08-16T08:33:28.000Z</time>
      </trkpt>
      <trkpt lat="50.22109" lon="3.57732">
        <ele>111.59999847412</ele>
        <time>2020-08-16T08:33:35.000Z</time>
      </trkpt>
      <trkpt lat="50.22125" lon="3.57746">
        <ele>112</ele>
        <time>2020-08-16T08:33:39.000Z</time>
      </trkpt>
      <trkpt lat="50.22129" lon="3.5775">
        <ele>112.40000152588</ele>
        <time>2020-08-16T08:33:40.000Z</time>
      </trkpt>
      <trkpt lat="50.22133" lon="3.57753">
        <ele>112.80000305176</ele>
        <time>2020-08-16T08:33:41.000Z</time>
      </trkpt>
      <trkpt lat="50.22137" lon="3.57757">
        <ele>113.19999694824</ele>
        <time>2020-08-16T08:33:42.000Z</time>
      </trkpt>
      <trkpt lat="50.22141" lon="3.5776">
        <ele>113.59999847412</ele>
        <time>2020-08-16T08:33:43.000Z</time>
      </trkpt>
      <trkpt lat="50.22165" lon="3.57781">
        <ele>113.59999847412</ele>
        <time>2020-08-16T08:33:49.000Z</time>
      </trkpt>
      <trkpt lat="50.22202" lon="3.57811">
        <ele>114</ele>
        <time>2020-08-16T08:33:58.000Z</time>
      </trkpt>
      <trkpt lat="50.22205" lon="3.57814">
        <ele>114.40000152588</ele>
        <time>2020-08-16T08:33:59.000Z</time>
      </trkpt>
      <trkpt lat="50.22209" lon="3.57818">
        <ele>114.80000305176</ele>
        <time>2020-08-16T08:34:00.000Z</time>
      </trkpt>
      <trkpt lat="50.22213" lon="3.57821">
        <ele>115.19999694824</ele>
        <time>2020-08-16T08:34:01.000Z</time>
      </trkpt>
      <trkpt lat="50.22217" lon="3.57824">
        <ele>115.59999847412</ele>
        <time>2020-08-16T08:34:02.000Z</time>
      </trkpt>
      <trkpt lat="50.22222" lon="3.57827">
        <ele>115.59999847412</ele>
        <time>2020-08-16T08:34:03.000Z</time>
      </trkpt>
      <trkpt lat="50.22261" lon="3.57861">
        <ele>115.59999847412</ele>
        <time>2020-08-16T08:34:13.000Z</time>
      </trkpt>
      <trkpt lat="50.22281" lon="3.57878">
        <ele>116</ele>
        <time>2020-08-16T08:34:18.000Z</time>
      </trkpt>
      <trkpt lat="50.22289" lon="3.57885">
        <ele>116.59999847412</ele>
        <time>2020-08-16T08:34:20.000Z</time>
      </trkpt>
      <trkpt lat="50.22293" lon="3.57889">
        <ele>117</ele>
        <time>2020-08-16T08:34:21.000Z</time>
      </trkpt>
      <trkpt lat="50.22297" lon="3.57892">
        <ele>117.40000152588</ele>
        <time>2020-08-16T08:34:22.000Z</time>
      </trkpt>
      <trkpt lat="50.22301" lon="3.57896">
        <ele>117.80000305176</ele>
        <time>2020-08-16T08:34:23.000Z</time>
      </trkpt>
      <trkpt lat="50.22317" lon="3.57911">
        <ele>117.80000305176</ele>
        <time>2020-08-16T08:34:27.000Z</time>
      </trkpt>
      <trkpt lat="50.22325" lon="3.57919">
        <ele>118.19999694824</ele>
        <time>2020-08-16T08:34:29.000Z</time>
      </trkpt>
      <trkpt lat="50.22329" lon="3.57923">
        <ele>118.59999847412</ele>
        <time>2020-08-16T08:34:30.000Z</time>
      </trkpt>
      <trkpt lat="50.22333" lon="3.57927">
        <ele>119</ele>
        <time>2020-08-16T08:34:31.000Z</time>
      </trkpt>
      <trkpt lat="50.22337" lon="3.57931">
        <ele>119.40000152588</ele>
        <time>2020-08-16T08:34:32.000Z</time>
      </trkpt>
      <trkpt lat="50.22341" lon="3.57935">
        <ele>119.80000305176</ele>
        <time>2020-08-16T08:34:33.000Z</time>
      </trkpt>
      <trkpt lat="50.22377" lon="3.5797">
        <ele>119.80000305176</ele>
        <time>2020-08-16T08:34:42.000Z</time>
      </trkpt>
      <trkpt lat="50.22389" lon="3.57982">
        <ele>119.80000305176</ele>
        <time>2020-08-16T08:34:45.000Z</time>
      </trkpt>
      <trkpt lat="50.22421" lon="3.58013">
        <ele>119.80000305176</ele>
        <time>2020-08-16T08:34:53.000Z</time>
      </trkpt>
      <trkpt lat="50.22458" lon="3.58049">
        <ele>119.80000305176</ele>
        <time>2020-08-16T08:35:02.000Z</time>
      </trkpt>
      <trkpt lat="50.22508" lon="3.58097">
        <ele>119.80000305176</ele>
        <time>2020-08-16T08:35:13.000Z</time>
      </trkpt>
      <trkpt lat="50.22522" lon="3.58112">
        <ele>120.19999694824</ele>
        <time>2020-08-16T08:35:16.000Z</time>
      </trkpt>
      <trkpt lat="50.22527" lon="3.58117">
        <ele>120.59999847412</ele>
        <time>2020-08-16T08:35:17.000Z</time>
      </trkpt>
      <trkpt lat="50.22532" lon="3.58122">
        <ele>121.19999694824</ele>
        <time>2020-08-16T08:35:18.000Z</time>
      </trkpt>
      <trkpt lat="50.22537" lon="3.58126">
        <ele>121.59999847412</ele>
        <time>2020-08-16T08:35:19.000Z</time>
      </trkpt>
      <trkpt lat="50.22547" lon="3.58136">
        <ele>122</ele>
        <time>2020-08-16T08:35:21.000Z</time>
      </trkpt>
      <trkpt lat="50.22562" lon="3.5815">
        <ele>122</ele>
        <time>2020-08-16T08:35:24.000Z</time>
      </trkpt>
      <trkpt lat="50.22612" lon="3.58198">
        <ele>122</ele>
        <time>2020-08-16T08:35:34.000Z</time>
      </trkpt>
      <trkpt lat="50.22627" lon="3.58213">
        <ele>122</ele>
        <time>2020-08-16T08:35:37.000Z</time>
      </trkpt>
      <trkpt lat="50.2267" lon="3.58258">
        <ele>122</ele>
        <time>2020-08-16T08:35:46.000Z</time>
      </trkpt>
      <trkpt lat="50.22715" lon="3.58313">
        <ele>122</ele>
        <time>2020-08-16T08:35:55.000Z</time>
      </trkpt>
      <trkpt lat="50.22759" lon="3.58374">
        <ele>122</ele>
        <time>2020-08-16T08:36:04.000Z</time>
      </trkpt>
      <trkpt lat="50.22764" lon="3.58381">
        <ele>121.59999847412</ele>
        <time>2020-08-16T08:36:05.000Z</time>
      </trkpt>
      <trkpt lat="50.22769" lon="3.58388">
        <ele>121</ele>
        <time>2020-08-16T08:36:06.000Z</time>
      </trkpt>
      <trkpt lat="50.22779" lon="3.58402">
        <ele>120.59999847412</ele>
        <time>2020-08-16T08:36:08.000Z</time>
      </trkpt>
      <trkpt lat="50.22784" lon="3.58408">
        <ele>120.19999694824</ele>
        <time>2020-08-16T08:36:09.000Z</time>
      </trkpt>
      <trkpt lat="50.2279" lon="3.58415">
        <ele>119.59999847412</ele>
        <time>2020-08-16T08:36:10.000Z</time>
      </trkpt>
      <trkpt lat="50.22835" lon="3.58471">
        <ele>119.59999847412</ele>
        <time>2020-08-16T08:36:19.000Z</time>
      </trkpt>
      <trkpt lat="50.2284" lon="3.58476">
        <ele>119.59999847412</ele>
        <time>2020-08-16T08:36:20.000Z</time>
      </trkpt>
      <trkpt lat="50.2287" lon="3.58504">
        <ele>119.19999694824</ele>
        <time>2020-08-16T08:36:26.000Z</time>
      </trkpt>
      <trkpt lat="50.22876" lon="3.58508">
        <ele>118.80000305176</ele>
        <time>2020-08-16T08:36:27.000Z</time>
      </trkpt>
      <trkpt lat="50.22881" lon="3.58512">
        <ele>118.40000152588</ele>
        <time>2020-08-16T08:36:28.000Z</time>
      </trkpt>
      <trkpt lat="50.22887" lon="3.58515">
        <ele>118</ele>
        <time>2020-08-16T08:36:29.000Z</time>
      </trkpt>
      <trkpt lat="50.22893" lon="3.58519">
        <ele>117.40000152588</ele>
        <time>2020-08-16T08:36:30.000Z</time>
      </trkpt>
      <trkpt lat="50.22946" lon="3.58551">
        <ele>117.40000152588</ele>
        <time>2020-08-16T08:36:39.000Z</time>
      </trkpt>
      <trkpt lat="50.22958" lon="3.58558">
        <ele>117.40000152588</ele>
        <time>2020-08-16T08:36:41.000Z</time>
      </trkpt>
      <trkpt lat="50.23007" lon="3.58586">
        <ele>117</ele>
        <time>2020-08-16T08:36:49.000Z</time>
      </trkpt>
      <trkpt lat="50.23019" lon="3.58592">
        <ele>116.19999694824</ele>
        <time>2020-08-16T08:36:51.000Z</time>
      </trkpt>
      <trkpt lat="50.23025" lon="3.58596">
        <ele>115.80000305176</ele>
        <time>2020-08-16T08:36:52.000Z</time>
      </trkpt>
      <trkpt lat="50.23031" lon="3.58599">
        <ele>115.40000152588</ele>
        <time>2020-08-16T08:36:53.000Z</time>
      </trkpt>
      <trkpt lat="50.2305" lon="3.5861">
        <ele>115.40000152588</ele>
        <time>2020-08-16T08:36:56.000Z</time>
      </trkpt>
      <trkpt lat="50.23063" lon="3.58618">
        <ele>115</ele>
        <time>2020-08-16T08:36:58.000Z</time>
      </trkpt>
      <trkpt lat="50.2307" lon="3.58622">
        <ele>114.59999847412</ele>
        <time>2020-08-16T08:36:59.000Z</time>
      </trkpt>
      <trkpt lat="50.23084" lon="3.5863">
        <ele>114.19999694824</ele>
        <time>2020-08-16T08:37:01.000Z</time>
      </trkpt>
      <trkpt lat="50.23092" lon="3.58635">
        <ele>113.40000152588</ele>
        <time>2020-08-16T08:37:02.000Z</time>
      </trkpt>
      <trkpt lat="50.23114" lon="3.58648">
        <ele>113.40000152588</ele>
        <time>2020-08-16T08:37:05.000Z</time>
      </trkpt>
      <trkpt lat="50.23167" lon="3.58679">
        <ele>113</ele>
        <time>2020-08-16T08:37:12.000Z</time>
      </trkpt>
      <trkpt lat="50.23174" lon="3.58683">
        <ele>112</ele>
        <time>2020-08-16T08:37:13.000Z</time>
      </trkpt>
      <trkpt lat="50.23182" lon="3.58688">
        <ele>111.40000152588</ele>
        <time>2020-08-16T08:37:14.000Z</time>
      </trkpt>
      <trkpt lat="50.2319" lon="3.58692">
        <ele>111</ele>
        <time>2020-08-16T08:37:15.000Z</time>
      </trkpt>
      <trkpt lat="50.23205" lon="3.58703">
        <ele>111</ele>
        <time>2020-08-16T08:37:17.000Z</time>
      </trkpt>
      <trkpt lat="50.23213" lon="3.5871">
        <ele>110.40000152588</ele>
        <time>2020-08-16T08:37:18.000Z</time>
      </trkpt>
      <trkpt lat="50.2322" lon="3.58716">
        <ele>110</ele>
        <time>2020-08-16T08:37:19.000Z</time>
      </trkpt>
      <trkpt lat="50.23234" lon="3.58731">
        <ele>109.40000152588</ele>
        <time>2020-08-16T08:37:21.000Z</time>
      </trkpt>
      <trkpt lat="50.2324" lon="3.5874">
        <ele>109</ele>
        <time>2020-08-16T08:37:22.000Z</time>
      </trkpt>
      <trkpt lat="50.23246" lon="3.5875">
        <ele>108</ele>
        <time>2020-08-16T08:37:23.000Z</time>
      </trkpt>
      <trkpt lat="50.23251" lon="3.5876">
        <ele>107.40000152588</ele>
        <time>2020-08-16T08:37:24.000Z</time>
      </trkpt>
      <trkpt lat="50.23262" lon="3.5878">
        <ele>107</ele>
        <time>2020-08-16T08:37:26.000Z</time>
      </trkpt>
      <trkpt lat="50.23267" lon="3.5879">
        <ele>106.59999847412</ele>
        <time>2020-08-16T08:37:27.000Z</time>
      </trkpt>
      <trkpt lat="50.23271" lon="3.58799">
        <ele>106.19999694824</ele>
        <time>2020-08-16T08:37:28.000Z</time>
      </trkpt>
      <trkpt lat="50.2328" lon="3.58814">
        <ele>105.59999847412</ele>
        <time>2020-08-16T08:37:30.000Z</time>
      </trkpt>
      <trkpt lat="50.23283" lon="3.5882">
        <ele>105.19999694824</ele>
        <time>2020-08-16T08:37:31.000Z</time>
      </trkpt>
      <trkpt lat="50.23286" lon="3.58825">
        <ele>104.59999847412</ele>
        <time>2020-08-16T08:37:32.000Z</time>
      </trkpt>
      <trkpt lat="50.23289" lon="3.58832">
        <ele>104.19999694824</ele>
        <time>2020-08-16T08:37:33.000Z</time>
      </trkpt>
      <trkpt lat="50.23289" lon="3.58839">
        <ele>103.59999847412</ele>
        <time>2020-08-16T08:37:34.000Z</time>
      </trkpt>
      <trkpt lat="50.23282" lon="3.5886">
        <ele>103.59999847412</ele>
        <time>2020-08-16T08:37:37.000Z</time>
      </trkpt>
      <trkpt lat="50.23279" lon="3.58866">
        <ele>103.59999847412</ele>
        <time>2020-08-16T08:37:38.000Z</time>
      </trkpt>
      <trkpt lat="50.23258" lon="3.58906">
        <ele>103.59999847412</ele>
        <time>2020-08-16T08:37:44.000Z</time>
      </trkpt>
      <trkpt lat="50.23254" lon="3.58911">
        <ele>103.59999847412</ele>
        <time>2020-08-16T08:37:45.000Z</time>
      </trkpt>
      <trkpt lat="50.23246" lon="3.58921">
        <ele>104</ele>
        <time>2020-08-16T08:37:47.000Z</time>
      </trkpt>
      <trkpt lat="50.23243" lon="3.58925">
        <ele>104.40000152588</ele>
        <time>2020-08-16T08:37:48.000Z</time>
      </trkpt>
      <trkpt lat="50.23239" lon="3.5893">
        <ele>105</ele>
        <time>2020-08-16T08:37:49.000Z</time>
      </trkpt>
      <trkpt lat="50.23235" lon="3.58934">
        <ele>105.40000152588</ele>
        <time>2020-08-16T08:37:50.000Z</time>
      </trkpt>
      <trkpt lat="50.23231" lon="3.58939">
        <ele>105.80000305176</ele>
        <time>2020-08-16T08:37:51.000Z</time>
      </trkpt>
      <trkpt lat="50.23208" lon="3.5897">
        <ele>105.80000305176</ele>
        <time>2020-08-16T08:37:58.000Z</time>
      </trkpt>
      <trkpt lat="50.23175" lon="3.59002">
        <ele>105.80000305176</ele>
        <time>2020-08-16T08:38:06.000Z</time>
      </trkpt>
      <trkpt lat="50.23137" lon="3.59034">
        <ele>105.80000305176</ele>
        <time>2020-08-16T08:38:14.000Z</time>
      </trkpt>
      <trkpt lat="50.23086" lon="3.59077">
        <ele>105.80000305176</ele>
        <time>2020-08-16T08:38:23.000Z</time>
      </trkpt>
      <trkpt lat="50.2306" lon="3.59098">
        <ele>105.40000152588</ele>
        <time>2020-08-16T08:38:27.000Z</time>
      </trkpt>
      <trkpt lat="50.23053" lon="3.59103">
        <ele>104.80000305176</ele>
        <time>2020-08-16T08:38:28.000Z</time>
      </trkpt>
      <trkpt lat="50.23046" lon="3.59108">
        <ele>104.40000152588</ele>
        <time>2020-08-16T08:38:29.000Z</time>
      </trkpt>
      <trkpt lat="50.2304" lon="3.59113">
        <ele>104</ele>
        <time>2020-08-16T08:38:30.000Z</time>
      </trkpt>
      <trkpt lat="50.23027" lon="3.59124">
        <ele>103.40000152588</ele>
        <time>2020-08-16T08:38:32.000Z</time>
      </trkpt>
      <trkpt lat="50.22984" lon="3.59164">
        <ele>103.40000152588</ele>
        <time>2020-08-16T08:38:39.000Z</time>
      </trkpt>
      <trkpt lat="50.22947" lon="3.59209">
        <ele>103.40000152588</ele>
        <time>2020-08-16T08:38:46.000Z</time>
      </trkpt>
      <trkpt lat="50.22905" lon="3.59256">
        <ele>103.40000152588</ele>
        <time>2020-08-16T08:38:54.000Z</time>
      </trkpt>
      <trkpt lat="50.22857" lon="3.59308">
        <ele>103.40000152588</ele>
        <time>2020-08-16T08:39:04.000Z</time>
      </trkpt>
      <trkpt lat="50.22853" lon="3.59312">
        <ele>103.40000152588</ele>
        <time>2020-08-16T08:39:05.000Z</time>
      </trkpt>
      <trkpt lat="50.22843" lon="3.59322">
        <ele>104</ele>
        <time>2020-08-16T08:39:07.000Z</time>
      </trkpt>
      <trkpt lat="50.22839" lon="3.59326">
        <ele>104.40000152588</ele>
        <time>2020-08-16T08:39:08.000Z</time>
      </trkpt>
      <trkpt lat="50.2283" lon="3.59336">
        <ele>104.80000305176</ele>
        <time>2020-08-16T08:39:10.000Z</time>
      </trkpt>
      <trkpt lat="50.22826" lon="3.59341">
        <ele>105.59999847412</ele>
        <time>2020-08-16T08:39:11.000Z</time>
      </trkpt>
      <trkpt lat="50.22809" lon="3.59358">
        <ele>105.59999847412</ele>
        <time>2020-08-16T08:39:15.000Z</time>
      </trkpt>
      <trkpt lat="50.22805" lon="3.59362">
        <ele>106.40000152588</ele>
        <time>2020-08-16T08:39:16.000Z</time>
      </trkpt>
      <trkpt lat="50.22801" lon="3.59365">
        <ele>107</ele>
        <time>2020-08-16T08:39:17.000Z</time>
      </trkpt>
      <trkpt lat="50.22796" lon="3.59367">
        <ele>107.40000152588</ele>
        <time>2020-08-16T08:39:18.000Z</time>
      </trkpt>
      <trkpt lat="50.22787" lon="3.5937">
        <ele>107.80000305176</ele>
        <time>2020-08-16T08:39:20.000Z</time>
      </trkpt>
      <trkpt lat="50.22782" lon="3.5937">
        <ele>107.80000305176</ele>
        <time>2020-08-16T08:39:21.000Z</time>
      </trkpt>
      <trkpt lat="50.22755" lon="3.59369">
        <ele>108.19999694824</ele>
        <time>2020-08-16T08:39:26.000Z</time>
      </trkpt>
      <trkpt lat="50.22749" lon="3.59368">
        <ele>109</ele>
        <time>2020-08-16T08:39:27.000Z</time>
      </trkpt>
      <trkpt lat="50.22739" lon="3.59367">
        <ele>109.59999847412</ele>
        <time>2020-08-16T08:39:29.000Z</time>
      </trkpt>
      <trkpt lat="50.22733" lon="3.59367">
        <ele>110</ele>
        <time>2020-08-16T08:39:30.000Z</time>
      </trkpt>
      <trkpt lat="50.2268" lon="3.59364">
        <ele>110.40000152588</ele>
        <time>2020-08-16T08:39:40.000Z</time>
      </trkpt>
      <trkpt lat="50.22675" lon="3.59364">
        <ele>110.80000305176</ele>
        <time>2020-08-16T08:39:41.000Z</time>
      </trkpt>
      <trkpt lat="50.22669" lon="3.59364">
        <ele>111.19999694824</ele>
        <time>2020-08-16T08:39:42.000Z</time>
      </trkpt>
      <trkpt lat="50.22665" lon="3.59363">
        <ele>111.59999847412</ele>
        <time>2020-08-16T08:39:43.000Z</time>
      </trkpt>
      <trkpt lat="50.2266" lon="3.59363">
        <ele>112</ele>
        <time>2020-08-16T08:39:44.000Z</time>
      </trkpt>
      <trkpt lat="50.22646" lon="3.59363">
        <ele>112.40000152588</ele>
        <time>2020-08-16T08:39:47.000Z</time>
      </trkpt>
      <trkpt lat="50.22642" lon="3.59363">
        <ele>112.80000305176</ele>
        <time>2020-08-16T08:39:48.000Z</time>
      </trkpt>
      <trkpt lat="50.22637" lon="3.59363">
        <ele>113.19999694824</ele>
        <time>2020-08-16T08:39:49.000Z</time>
      </trkpt>
      <trkpt lat="50.22632" lon="3.59362">
        <ele>113.59999847412</ele>
        <time>2020-08-16T08:39:50.000Z</time>
      </trkpt>
      <trkpt lat="50.22628" lon="3.59363">
        <ele>114.19999694824</ele>
        <time>2020-08-16T08:39:51.000Z</time>
      </trkpt>
      <trkpt lat="50.22585" lon="3.5937">
        <ele>114.19999694824</ele>
        <time>2020-08-16T08:40:00.000Z</time>
      </trkpt>
      <trkpt lat="50.22553" lon="3.59389">
        <ele>114.19999694824</ele>
        <time>2020-08-16T08:40:07.000Z</time>
      </trkpt>
      <trkpt lat="50.22514" lon="3.59423">
        <ele>114.19999694824</ele>
        <time>2020-08-16T08:40:16.000Z</time>
      </trkpt>
      <trkpt lat="50.22509" lon="3.59426">
        <ele>114.59999847412</ele>
        <time>2020-08-16T08:40:17.000Z</time>
      </trkpt>
      <trkpt lat="50.22505" lon="3.59429">
        <ele>115</ele>
        <time>2020-08-16T08:40:18.000Z</time>
      </trkpt>
      <trkpt lat="50.22501" lon="3.59433">
        <ele>115.40000152588</ele>
        <time>2020-08-16T08:40:19.000Z</time>
      </trkpt>
      <trkpt lat="50.22496" lon="3.59436">
        <ele>115.80000305176</ele>
        <time>2020-08-16T08:40:20.000Z</time>
      </trkpt>
      <trkpt lat="50.22485" lon="3.59442">
        <ele>116.19999694824</ele>
        <time>2020-08-16T08:40:22.000Z</time>
      </trkpt>
      <trkpt lat="50.2248" lon="3.59445">
        <ele>116.19999694824</ele>
        <time>2020-08-16T08:40:23.000Z</time>
      </trkpt>
      <trkpt lat="50.22443" lon="3.59468">
        <ele>116.59999847412</ele>
        <time>2020-08-16T08:40:29.000Z</time>
      </trkpt>
      <trkpt lat="50.22437" lon="3.59472">
        <ele>117</ele>
        <time>2020-08-16T08:40:30.000Z</time>
      </trkpt>
      <trkpt lat="50.22431" lon="3.59477">
        <ele>117.59999847412</ele>
        <time>2020-08-16T08:40:31.000Z</time>
      </trkpt>
      <trkpt lat="50.22426" lon="3.59481">
        <ele>117.59999847412</ele>
        <time>2020-08-16T08:40:32.000Z</time>
      </trkpt>
      <trkpt lat="50.22421" lon="3.59485">
        <ele>118.40000152588</ele>
        <time>2020-08-16T08:40:33.000Z</time>
      </trkpt>
      <trkpt lat="50.224" lon="3.59507">
        <ele>118.40000152588</ele>
        <time>2020-08-16T08:40:38.000Z</time>
      </trkpt>
      <trkpt lat="50.22355" lon="3.5956">
        <ele>118.80000305176</ele>
        <time>2020-08-16T08:40:50.000Z</time>
      </trkpt>
      <trkpt lat="50.22352" lon="3.59564">
        <ele>119.19999694824</ele>
        <time>2020-08-16T08:40:51.000Z</time>
      </trkpt>
      <trkpt lat="50.22348" lon="3.59568">
        <ele>119.59999847412</ele>
        <time>2020-08-16T08:40:52.000Z</time>
      </trkpt>
      <trkpt lat="50.22341" lon="3.59576">
        <ele>120.19999694824</ele>
        <time>2020-08-16T08:40:54.000Z</time>
      </trkpt>
      <trkpt lat="50.22337" lon="3.59581">
        <ele>120.59999847412</ele>
        <time>2020-08-16T08:40:55.000Z</time>
      </trkpt>
      <trkpt lat="50.22313" lon="3.59609">
        <ele>120.59999847412</ele>
        <time>2020-08-16T08:41:01.000Z</time>
      </trkpt>
      <trkpt lat="50.22302" lon="3.59623">
        <ele>121</ele>
        <time>2020-08-16T08:41:04.000Z</time>
      </trkpt>
      <trkpt lat="50.22298" lon="3.59628">
        <ele>121.40000152588</ele>
        <time>2020-08-16T08:41:05.000Z</time>
      </trkpt>
      <trkpt lat="50.22294" lon="3.59632">
        <ele>121.80000305176</ele>
        <time>2020-08-16T08:41:06.000Z</time>
      </trkpt>
      <trkpt lat="50.22287" lon="3.59641">
        <ele>122.40000152588</ele>
        <time>2020-08-16T08:41:08.000Z</time>
      </trkpt>
      <trkpt lat="50.22283" lon="3.59645">
        <ele>122.80000305176</ele>
        <time>2020-08-16T08:41:09.000Z</time>
      </trkpt>
      <trkpt lat="50.22275" lon="3.59654">
        <ele>122.80000305176</ele>
        <time>2020-08-16T08:41:11.000Z</time>
      </trkpt>
      <trkpt lat="50.22239" lon="3.59689">
        <ele>122.80000305176</ele>
        <time>2020-08-16T08:41:20.000Z</time>
      </trkpt>
      <trkpt lat="50.22235" lon="3.59692">
        <ele>122.80000305176</ele>
        <time>2020-08-16T08:41:21.000Z</time>
      </trkpt>
      <trkpt lat="50.22227" lon="3.59696">
        <ele>122.80000305176</ele>
        <time>2020-08-16T08:41:23.000Z</time>
      </trkpt>
      <trkpt lat="50.22223" lon="3.59697">
        <ele>123.19999694824</ele>
        <time>2020-08-16T08:41:24.000Z</time>
      </trkpt>
      <trkpt lat="50.22219" lon="3.59698">
        <ele>123.59999847412</ele>
        <time>2020-08-16T08:41:25.000Z</time>
      </trkpt>
      <trkpt lat="50.22211" lon="3.59699">
        <ele>124</ele>
        <time>2020-08-16T08:41:27.000Z</time>
      </trkpt>
      <trkpt lat="50.22207" lon="3.59699">
        <ele>125</ele>
        <time>2020-08-16T08:41:28.000Z</time>
      </trkpt>
      <trkpt lat="50.22169" lon="3.59693">
        <ele>125</ele>
        <time>2020-08-16T08:41:37.000Z</time>
      </trkpt>
      <trkpt lat="50.22152" lon="3.597">
        <ele>125</ele>
        <time>2020-08-16T08:41:41.000Z</time>
      </trkpt>
      <trkpt lat="50.22148" lon="3.59704">
        <ele>125</ele>
        <time>2020-08-16T08:41:42.000Z</time>
      </trkpt>
      <trkpt lat="50.22134" lon="3.59725">
        <ele>125</ele>
        <time>2020-08-16T08:41:46.000Z</time>
      </trkpt>
      <trkpt lat="50.22131" lon="3.59731">
        <ele>125</ele>
        <time>2020-08-16T08:41:47.000Z</time>
      </trkpt>
      <trkpt lat="50.22109" lon="3.59778">
        <ele>125</ele>
        <time>2020-08-16T08:41:54.000Z</time>
      </trkpt>
      <trkpt lat="50.22075" lon="3.5985">
        <ele>125</ele>
        <time>2020-08-16T08:42:05.000Z</time>
      </trkpt>
      <trkpt lat="50.22068" lon="3.59863">
        <ele>125</ele>
        <time>2020-08-16T08:42:07.000Z</time>
      </trkpt>
      <trkpt lat="50.22057" lon="3.59884">
        <ele>124.59999847412</ele>
        <time>2020-08-16T08:42:10.000Z</time>
      </trkpt>
      <trkpt lat="50.22053" lon="3.5989">
        <ele>124.19999694824</ele>
        <time>2020-08-16T08:42:11.000Z</time>
      </trkpt>
      <trkpt lat="50.2205" lon="3.59897">
        <ele>123.80000305176</ele>
        <time>2020-08-16T08:42:12.000Z</time>
      </trkpt>
      <trkpt lat="50.22038" lon="3.59918">
        <ele>123.40000152588</ele>
        <time>2020-08-16T08:42:15.000Z</time>
      </trkpt>
      <trkpt lat="50.22033" lon="3.59926">
        <ele>122.80000305176</ele>
        <time>2020-08-16T08:42:16.000Z</time>
      </trkpt>
      <trkpt lat="50.22029" lon="3.59934">
        <ele>122.80000305176</ele>
        <time>2020-08-16T08:42:17.000Z</time>
      </trkpt>
      <trkpt lat="50.21989" lon="3.59995">
        <ele>122.80000305176</ele>
        <time>2020-08-16T08:42:26.000Z</time>
      </trkpt>
      <trkpt lat="50.21958" lon="3.6003">
        <ele>122.80000305176</ele>
        <time>2020-08-16T08:42:33.000Z</time>
      </trkpt>
      <trkpt lat="50.21915" lon="3.60076">
        <ele>122.80000305176</ele>
        <time>2020-08-16T08:42:44.000Z</time>
      </trkpt>
      <trkpt lat="50.21887" lon="3.60107">
        <ele>122.80000305176</ele>
        <time>2020-08-16T08:42:52.000Z</time>
      </trkpt>
      <trkpt lat="50.21871" lon="3.60126">
        <ele>122.80000305176</ele>
        <time>2020-08-16T08:42:56.000Z</time>
      </trkpt>
      <trkpt lat="50.21862" lon="3.60136">
        <ele>123.40000152588</ele>
        <time>2020-08-16T08:42:58.000Z</time>
      </trkpt>
      <trkpt lat="50.21857" lon="3.60141">
        <ele>123.80000305176</ele>
        <time>2020-08-16T08:42:59.000Z</time>
      </trkpt>
      <trkpt lat="50.21853" lon="3.60146">
        <ele>124.19999694824</ele>
        <time>2020-08-16T08:43:00.000Z</time>
      </trkpt>
      <trkpt lat="50.21848" lon="3.60152">
        <ele>124.59999847412</ele>
        <time>2020-08-16T08:43:01.000Z</time>
      </trkpt>
      <trkpt lat="50.21843" lon="3.60156">
        <ele>125.19999694824</ele>
        <time>2020-08-16T08:43:02.000Z</time>
      </trkpt>
      <trkpt lat="50.21838" lon="3.6016">
        <ele>125.19999694824</ele>
        <time>2020-08-16T08:43:03.000Z</time>
      </trkpt>
      <trkpt lat="50.21823" lon="3.60171">
        <ele>125.19999694824</ele>
        <time>2020-08-16T08:43:06.000Z</time>
      </trkpt>
      <trkpt lat="50.21789" lon="3.6019">
        <ele>125.19999694824</ele>
        <time>2020-08-16T08:43:14.000Z</time>
      </trkpt>
      <trkpt lat="50.21734" lon="3.6021">
        <ele>125.19999694824</ele>
        <time>2020-08-16T08:43:26.000Z</time>
      </trkpt>
      <trkpt lat="50.21677" lon="3.60229">
        <ele>125.19999694824</ele>
        <time>2020-08-16T08:43:37.000Z</time>
      </trkpt>
      <trkpt lat="50.21671" lon="3.60231">
        <ele>125.19999694824</ele>
        <time>2020-08-16T08:43:38.000Z</time>
      </trkpt>
      <trkpt lat="50.21616" lon="3.60249">
        <ele>125.19999694824</ele>
        <time>2020-08-16T08:43:48.000Z</time>
      </trkpt>
      <trkpt lat="50.21588" lon="3.60258">
        <ele>125.19999694824</ele>
        <time>2020-08-16T08:43:53.000Z</time>
      </trkpt>
      <trkpt lat="50.21573" lon="3.60264">
        <ele>124.80000305176</ele>
        <time>2020-08-16T08:43:56.000Z</time>
      </trkpt>
      <trkpt lat="50.21568" lon="3.60266">
        <ele>124.40000152588</ele>
        <time>2020-08-16T08:43:57.000Z</time>
      </trkpt>
      <trkpt lat="50.21558" lon="3.60269">
        <ele>124</ele>
        <time>2020-08-16T08:43:59.000Z</time>
      </trkpt>
      <trkpt lat="50.21552" lon="3.60271">
        <ele>123</ele>
        <time>2020-08-16T08:44:00.000Z</time>
      </trkpt>
      <trkpt lat="50.2151" lon="3.60285">
        <ele>123</ele>
        <time>2020-08-16T08:44:08.000Z</time>
      </trkpt>
      <trkpt lat="50.21455" lon="3.60303">
        <ele>123</ele>
        <time>2020-08-16T08:44:18.000Z</time>
      </trkpt>
      <trkpt lat="50.21444" lon="3.60307">
        <ele>123</ele>
        <time>2020-08-16T08:44:20.000Z</time>
      </trkpt>
      <trkpt lat="50.21401" lon="3.60321">
        <ele>123.59999847412</ele>
        <time>2020-08-16T08:44:28.000Z</time>
      </trkpt>
      <trkpt lat="50.21396" lon="3.60323">
        <ele>124</ele>
        <time>2020-08-16T08:44:29.000Z</time>
      </trkpt>
      <trkpt lat="50.21386" lon="3.60326">
        <ele>124.40000152588</ele>
        <time>2020-08-16T08:44:31.000Z</time>
      </trkpt>
      <trkpt lat="50.21382" lon="3.60328">
        <ele>124.80000305176</ele>
        <time>2020-08-16T08:44:32.000Z</time>
      </trkpt>
      <trkpt lat="50.21372" lon="3.60331">
        <ele>125.19999694824</ele>
        <time>2020-08-16T08:44:34.000Z</time>
      </trkpt>
      <trkpt lat="50.21347" lon="3.60341">
        <ele>125.19999694824</ele>
        <time>2020-08-16T08:44:39.000Z</time>
      </trkpt>
      <trkpt lat="50.21307" lon="3.60359">
        <ele>125.19999694824</ele>
        <time>2020-08-16T08:44:48.000Z</time>
      </trkpt>
      <trkpt lat="50.21273" lon="3.60376">
        <ele>125.59999847412</ele>
        <time>2020-08-16T08:44:56.000Z</time>
      </trkpt>
      <trkpt lat="50.21269" lon="3.60378">
        <ele>126.19999694824</ele>
        <time>2020-08-16T08:44:57.000Z</time>
      </trkpt>
      <trkpt lat="50.21265" lon="3.6038">
        <ele>126.59999847412</ele>
        <time>2020-08-16T08:44:58.000Z</time>
      </trkpt>
      <trkpt lat="50.21256" lon="3.60385">
        <ele>127.40000152588</ele>
        <time>2020-08-16T08:45:00.000Z</time>
      </trkpt>
      <trkpt lat="50.21252" lon="3.60387">
        <ele>127.40000152588</ele>
        <time>2020-08-16T08:45:01.000Z</time>
      </trkpt>
      <trkpt lat="50.21207" lon="3.60408">
        <ele>127.40000152588</ele>
        <time>2020-08-16T08:45:12.000Z</time>
      </trkpt>
      <trkpt lat="50.21186" lon="3.60422">
        <ele>127.40000152588</ele>
        <time>2020-08-16T08:45:18.000Z</time>
      </trkpt>
      <trkpt lat="50.21152" lon="3.60447">
        <ele>127.40000152588</ele>
        <time>2020-08-16T08:45:25.000Z</time>
      </trkpt>
      <trkpt lat="50.21133" lon="3.6046">
        <ele>127.40000152588</ele>
        <time>2020-08-16T08:45:29.000Z</time>
      </trkpt>
      <trkpt lat="50.21093" lon="3.60483">
        <ele>127.40000152588</ele>
        <time>2020-08-16T08:45:37.000Z</time>
      </trkpt>
      <trkpt lat="50.2104" lon="3.60504">
        <ele>127.40000152588</ele>
        <time>2020-08-16T08:45:47.000Z</time>
      </trkpt>
      <trkpt lat="50.21013" lon="3.60512">
        <ele>127.80000305176</ele>
        <time>2020-08-16T08:45:52.000Z</time>
      </trkpt>
      <trkpt lat="50.21008" lon="3.60514">
        <ele>128.19999694824</ele>
        <time>2020-08-16T08:45:53.000Z</time>
      </trkpt>
      <trkpt lat="50.21002" lon="3.60517">
        <ele>128.60000610352</ele>
        <time>2020-08-16T08:45:54.000Z</time>
      </trkpt>
      <trkpt lat="50.20997" lon="3.60519">
        <ele>129</ele>
        <time>2020-08-16T08:45:55.000Z</time>
      </trkpt>
      <trkpt lat="50.20992" lon="3.60522">
        <ele>129.39999389648</ele>
        <time>2020-08-16T08:45:56.000Z</time>
      </trkpt>
      <trkpt lat="50.20981" lon="3.60527">
        <ele>129.39999389648</ele>
        <time>2020-08-16T08:45:58.000Z</time>
      </trkpt>
      <trkpt lat="50.20938" lon="3.60559">
        <ele>129.39999389648</ele>
        <time>2020-08-16T08:46:07.000Z</time>
      </trkpt>
      <trkpt lat="50.20921" lon="3.60575">
        <ele>130</ele>
        <time>2020-08-16T08:46:11.000Z</time>
      </trkpt>
      <trkpt lat="50.20917" lon="3.6058">
        <ele>130.60000610352</ele>
        <time>2020-08-16T08:46:12.000Z</time>
      </trkpt>
      <trkpt lat="50.20913" lon="3.60584">
        <ele>131</ele>
        <time>2020-08-16T08:46:13.000Z</time>
      </trkpt>
      <trkpt lat="50.20909" lon="3.60588">
        <ele>131.60000610352</ele>
        <time>2020-08-16T08:46:14.000Z</time>
      </trkpt>
      <trkpt lat="50.20905" lon="3.60593">
        <ele>132.19999694824</ele>
        <time>2020-08-16T08:46:15.000Z</time>
      </trkpt>
      <trkpt lat="50.20893" lon="3.60606">
        <ele>132.19999694824</ele>
        <time>2020-08-16T08:46:18.000Z</time>
      </trkpt>
      <trkpt lat="50.20862" lon="3.60639">
        <ele>132.60000610352</ele>
        <time>2020-08-16T08:46:26.000Z</time>
      </trkpt>
      <trkpt lat="50.20858" lon="3.60642">
        <ele>133.19999694824</ele>
        <time>2020-08-16T08:46:27.000Z</time>
      </trkpt>
      <trkpt lat="50.20854" lon="3.60646">
        <ele>133.60000610352</ele>
        <time>2020-08-16T08:46:28.000Z</time>
      </trkpt>
      <trkpt lat="50.20851" lon="3.6065">
        <ele>134.19999694824</ele>
        <time>2020-08-16T08:46:29.000Z</time>
      </trkpt>
      <trkpt lat="50.20847" lon="3.60654">
        <ele>134.60000610352</ele>
        <time>2020-08-16T08:46:30.000Z</time>
      </trkpt>
      <trkpt lat="50.20831" lon="3.60667">
        <ele>135</ele>
        <time>2020-08-16T08:46:34.000Z</time>
      </trkpt>
      <trkpt lat="50.20827" lon="3.60669">
        <ele>135.60000610352</ele>
        <time>2020-08-16T08:46:35.000Z</time>
      </trkpt>
      <trkpt lat="50.20823" lon="3.60672">
        <ele>136</ele>
        <time>2020-08-16T08:46:36.000Z</time>
      </trkpt>
      <trkpt lat="50.2082" lon="3.60674">
        <ele>136.39999389648</ele>
        <time>2020-08-16T08:46:37.000Z</time>
      </trkpt>
      <trkpt lat="50.20813" lon="3.60678">
        <ele>136.80000305176</ele>
        <time>2020-08-16T08:46:39.000Z</time>
      </trkpt>
      <trkpt lat="50.20795" lon="3.60686">
        <ele>136.80000305176</ele>
        <time>2020-08-16T08:46:44.000Z</time>
      </trkpt>
      <trkpt lat="50.20749" lon="3.60706">
        <ele>136.80000305176</ele>
        <time>2020-08-16T08:46:55.000Z</time>
      </trkpt>
      <trkpt lat="50.20726" lon="3.60711">
        <ele>136.80000305176</ele>
        <time>2020-08-16T08:47:00.000Z</time>
      </trkpt>
      <trkpt lat="50.20714" lon="3.60712">
        <ele>136.80000305176</ele>
        <time>2020-08-16T08:47:03.000Z</time>
      </trkpt>
      <trkpt lat="50.20687" lon="3.60713">
        <ele>137.19999694824</ele>
        <time>2020-08-16T08:47:09.000Z</time>
      </trkpt>
      <trkpt lat="50.20682" lon="3.60713">
        <ele>137.60000610352</ele>
        <time>2020-08-16T08:47:10.000Z</time>
      </trkpt>
      <trkpt lat="50.20678" lon="3.60713">
        <ele>138</ele>
        <time>2020-08-16T08:47:11.000Z</time>
      </trkpt>
      <trkpt lat="50.20673" lon="3.60713">
        <ele>138.39999389648</ele>
        <time>2020-08-16T08:47:12.000Z</time>
      </trkpt>
      <trkpt lat="50.20668" lon="3.60713">
        <ele>138.80000305176</ele>
        <time>2020-08-16T08:47:13.000Z</time>
      </trkpt>
      <trkpt lat="50.20658" lon="3.60712">
        <ele>138.80000305176</ele>
        <time>2020-08-16T08:47:15.000Z</time>
      </trkpt>
      <trkpt lat="50.20605" lon="3.60705">
        <ele>138.80000305176</ele>
        <time>2020-08-16T08:47:25.000Z</time>
      </trkpt>
      <trkpt lat="50.20547" lon="3.6069">
        <ele>138.80000305176</ele>
        <time>2020-08-16T08:47:35.000Z</time>
      </trkpt>
      <trkpt lat="50.20542" lon="3.60689">
        <ele>138.80000305176</ele>
        <time>2020-08-16T08:47:36.000Z</time>
      </trkpt>
      <trkpt lat="50.20502" lon="3.60674">
        <ele>138.80000305176</ele>
        <time>2020-08-16T08:47:43.000Z</time>
      </trkpt>
      <trkpt lat="50.2047" lon="3.60644">
        <ele>138.80000305176</ele>
        <time>2020-08-16T08:47:49.000Z</time>
      </trkpt>
      <trkpt lat="50.20451" lon="3.60619">
        <ele>138.39999389648</ele>
        <time>2020-08-16T08:47:53.000Z</time>
      </trkpt>
      <trkpt lat="50.20438" lon="3.60601">
        <ele>137.39999389648</ele>
        <time>2020-08-16T08:47:56.000Z</time>
      </trkpt>
      <trkpt lat="50.20433" lon="3.60595">
        <ele>137.39999389648</ele>
        <time>2020-08-16T08:47:57.000Z</time>
      </trkpt>
      <trkpt lat="50.20429" lon="3.60589">
        <ele>137</ele>
        <time>2020-08-16T08:47:58.000Z</time>
      </trkpt>
      <trkpt lat="50.20424" lon="3.60583">
        <ele>136.39999389648</ele>
        <time>2020-08-16T08:47:59.000Z</time>
      </trkpt>
      <trkpt lat="50.20414" lon="3.60574">
        <ele>136.39999389648</ele>
        <time>2020-08-16T08:48:01.000Z</time>
      </trkpt>
      <trkpt lat="50.20405" lon="3.60575">
        <ele>136.39999389648</ele>
        <time>2020-08-16T08:48:03.000Z</time>
      </trkpt>
      <trkpt lat="50.20393" lon="3.6059">
        <ele>136.39999389648</ele>
        <time>2020-08-16T08:48:06.000Z</time>
      </trkpt>
      <trkpt lat="50.20387" lon="3.60604">
        <ele>136.39999389648</ele>
        <time>2020-08-16T08:48:08.000Z</time>
      </trkpt>
      <trkpt lat="50.20377" lon="3.60625">
        <ele>136.39999389648</ele>
        <time>2020-08-16T08:48:11.000Z</time>
      </trkpt>
      <trkpt lat="50.20351" lon="3.6068">
        <ele>136.39999389648</ele>
        <time>2020-08-16T08:48:18.000Z</time>
      </trkpt>
      <trkpt lat="50.20346" lon="3.60685">
        <ele>136.39999389648</ele>
        <time>2020-08-16T08:48:19.000Z</time>
      </trkpt>
      <trkpt lat="50.20318" lon="3.60703">
        <ele>136.39999389648</ele>
        <time>2020-08-16T08:48:24.000Z</time>
      </trkpt>
      <trkpt lat="50.20307" lon="3.6071">
        <ele>136</ele>
        <time>2020-08-16T08:48:26.000Z</time>
      </trkpt>
      <trkpt lat="50.20301" lon="3.60714">
        <ele>135.60000610352</ele>
        <time>2020-08-16T08:48:27.000Z</time>
      </trkpt>
      <trkpt lat="50.20296" lon="3.60719">
        <ele>135.19999694824</ele>
        <time>2020-08-16T08:48:28.000Z</time>
      </trkpt>
      <trkpt lat="50.20291" lon="3.60724">
        <ele>134.60000610352</ele>
        <time>2020-08-16T08:48:29.000Z</time>
      </trkpt>
      <trkpt lat="50.20287" lon="3.60731">
        <ele>134.19999694824</ele>
        <time>2020-08-16T08:48:30.000Z</time>
      </trkpt>
      <trkpt lat="50.20279" lon="3.60744">
        <ele>134.19999694824</ele>
        <time>2020-08-16T08:48:32.000Z</time>
      </trkpt>
      <trkpt lat="50.20271" lon="3.60763">
        <ele>134.19999694824</ele>
        <time>2020-08-16T08:48:35.000Z</time>
      </trkpt>
      <trkpt lat="50.20264" lon="3.60795">
        <ele>134.60000610352</ele>
        <time>2020-08-16T08:48:39.000Z</time>
      </trkpt>
      <trkpt lat="50.20262" lon="3.60803">
        <ele>135</ele>
        <time>2020-08-16T08:48:40.000Z</time>
      </trkpt>
      <trkpt lat="50.2026" lon="3.60811">
        <ele>135.60000610352</ele>
        <time>2020-08-16T08:48:41.000Z</time>
      </trkpt>
      <trkpt lat="50.20258" lon="3.60819">
        <ele>136</ele>
        <time>2020-08-16T08:48:42.000Z</time>
      </trkpt>
      <trkpt lat="50.20257" lon="3.60827">
        <ele>136.39999389648</ele>
        <time>2020-08-16T08:48:43.000Z</time>
      </trkpt>
      <trkpt lat="50.20249" lon="3.60875">
        <ele>136.39999389648</ele>
        <time>2020-08-16T08:48:49.000Z</time>
      </trkpt>
      <trkpt lat="50.20237" lon="3.60913">
        <ele>136.39999389648</ele>
        <time>2020-08-16T08:48:54.000Z</time>
      </trkpt>
      <trkpt lat="50.20231" lon="3.60926">
        <ele>136.39999389648</ele>
        <time>2020-08-16T08:48:56.000Z</time>
      </trkpt>
      <trkpt lat="50.20208" lon="3.60958">
        <ele>136.39999389648</ele>
        <time>2020-08-16T08:49:02.000Z</time>
      </trkpt>
      <trkpt lat="50.20167" lon="3.61013">
        <ele>136.39999389648</ele>
        <time>2020-08-16T08:49:13.000Z</time>
      </trkpt>
      <trkpt lat="50.20159" lon="3.61024">
        <ele>136.39999389648</ele>
        <time>2020-08-16T08:49:15.000Z</time>
      </trkpt>
      <trkpt lat="50.20119" lon="3.6109">
        <ele>136.39999389648</ele>
        <time>2020-08-16T08:49:26.000Z</time>
      </trkpt>
      <trkpt lat="50.20109" lon="3.6111">
        <ele>136.39999389648</ele>
        <time>2020-08-16T08:49:29.000Z</time>
      </trkpt>
      <trkpt lat="50.20083" lon="3.61175">
        <ele>136.39999389648</ele>
        <time>2020-08-16T08:49:38.000Z</time>
      </trkpt>
      <trkpt lat="50.20053" lon="3.61247">
        <ele>136.39999389648</ele>
        <time>2020-08-16T08:49:47.000Z</time>
      </trkpt>
      <trkpt lat="50.20021" lon="3.61321">
        <ele>136.39999389648</ele>
        <time>2020-08-16T08:49:56.000Z</time>
      </trkpt>
      <trkpt lat="50.2001" lon="3.61343">
        <ele>136.39999389648</ele>
        <time>2020-08-16T08:49:59.000Z</time>
      </trkpt>
      <trkpt lat="50.19985" lon="3.61394">
        <ele>136.80000305176</ele>
        <time>2020-08-16T08:50:06.000Z</time>
      </trkpt>
      <trkpt lat="50.19981" lon="3.61402">
        <ele>137.19999694824</ele>
        <time>2020-08-16T08:50:07.000Z</time>
      </trkpt>
      <trkpt lat="50.19977" lon="3.61411">
        <ele>137.60000610352</ele>
        <time>2020-08-16T08:50:08.000Z</time>
      </trkpt>
      <trkpt lat="50.19974" lon="3.61419">
        <ele>138</ele>
        <time>2020-08-16T08:50:09.000Z</time>
      </trkpt>
      <trkpt lat="50.1997" lon="3.61426">
        <ele>138.60000610352</ele>
        <time>2020-08-16T08:50:10.000Z</time>
      </trkpt>
      <trkpt lat="50.19938" lon="3.61491">
        <ele>138.60000610352</ele>
        <time>2020-08-16T08:50:19.000Z</time>
      </trkpt>
      <trkpt lat="50.19906" lon="3.61564">
        <ele>138.60000610352</ele>
        <time>2020-08-16T08:50:29.000Z</time>
      </trkpt>
      <trkpt lat="50.199" lon="3.61579">
        <ele>138.60000610352</ele>
        <time>2020-08-16T08:50:31.000Z</time>
      </trkpt>
      <trkpt lat="50.19879" lon="3.61648">
        <ele>138.60000610352</ele>
        <time>2020-08-16T08:50:40.000Z</time>
      </trkpt>
      <trkpt lat="50.19865" lon="3.61695">
        <ele>139</ele>
        <time>2020-08-16T08:50:46.000Z</time>
      </trkpt>
      <trkpt lat="50.19863" lon="3.61703">
        <ele>139.39999389648</ele>
        <time>2020-08-16T08:50:47.000Z</time>
      </trkpt>
      <trkpt lat="50.1986" lon="3.61711">
        <ele>139.80000305176</ele>
        <time>2020-08-16T08:50:48.000Z</time>
      </trkpt>
      <trkpt lat="50.19858" lon="3.61718">
        <ele>140.19999694824</ele>
        <time>2020-08-16T08:50:49.000Z</time>
      </trkpt>
      <trkpt lat="50.19854" lon="3.61733">
        <ele>140.60000610352</ele>
        <time>2020-08-16T08:50:51.000Z</time>
      </trkpt>
      <trkpt lat="50.19831" lon="3.61811">
        <ele>140.60000610352</ele>
        <time>2020-08-16T08:51:03.000Z</time>
      </trkpt>
      <trkpt lat="50.19815" lon="3.61863">
        <ele>140.60000610352</ele>
        <time>2020-08-16T08:51:11.000Z</time>
      </trkpt>
      <trkpt lat="50.19807" lon="3.61892">
        <ele>141</ele>
        <time>2020-08-16T08:51:15.000Z</time>
      </trkpt>
      <trkpt lat="50.19805" lon="3.619">
        <ele>141.60000610352</ele>
        <time>2020-08-16T08:51:16.000Z</time>
      </trkpt>
      <trkpt lat="50.19804" lon="3.61907">
        <ele>142</ele>
        <time>2020-08-16T08:51:17.000Z</time>
      </trkpt>
      <trkpt lat="50.19802" lon="3.61915">
        <ele>142.39999389648</ele>
        <time>2020-08-16T08:51:18.000Z</time>
      </trkpt>
      <trkpt lat="50.19801" lon="3.61922">
        <ele>142.80000305176</ele>
        <time>2020-08-16T08:51:19.000Z</time>
      </trkpt>
      <trkpt lat="50.19793" lon="3.61958">
        <ele>142.80000305176</ele>
        <time>2020-08-16T08:51:25.000Z</time>
      </trkpt>
      <trkpt lat="50.19787" lon="3.61991">
        <ele>142.80000305176</ele>
        <time>2020-08-16T08:51:32.000Z</time>
      </trkpt>
      <trkpt lat="50.19786" lon="3.61996">
        <ele>143.19999694824</ele>
        <time>2020-08-16T08:51:33.000Z</time>
      </trkpt>
      <trkpt lat="50.19785" lon="3.62001">
        <ele>143.80000305176</ele>
        <time>2020-08-16T08:51:34.000Z</time>
      </trkpt>
      <trkpt lat="50.19784" lon="3.62006">
        <ele>144.19999694824</ele>
        <time>2020-08-16T08:51:35.000Z</time>
      </trkpt>
      <trkpt lat="50.19783" lon="3.6201">
        <ele>144.80000305176</ele>
        <time>2020-08-16T08:51:36.000Z</time>
      </trkpt>
      <trkpt lat="50.19782" lon="3.62014">
        <ele>145.19999694824</ele>
        <time>2020-08-16T08:51:37.000Z</time>
      </trkpt>
      <trkpt lat="50.19777" lon="3.62035">
        <ele>145.19999694824</ele>
        <time>2020-08-16T08:51:41.000Z</time>
      </trkpt>
      <trkpt lat="50.19768" lon="3.62064">
        <ele>145.19999694824</ele>
        <time>2020-08-16T08:51:47.000Z</time>
      </trkpt>
      <trkpt lat="50.19746" lon="3.62107">
        <ele>145.19999694824</ele>
        <time>2020-08-16T08:51:57.000Z</time>
      </trkpt>
      <trkpt lat="50.19718" lon="3.62158">
        <ele>145.19999694824</ele>
        <time>2020-08-16T08:52:07.000Z</time>
      </trkpt>
      <trkpt lat="50.19684" lon="3.62218">
        <ele>145.19999694824</ele>
        <time>2020-08-16T08:52:18.000Z</time>
      </trkpt>
      <trkpt lat="50.19654" lon="3.62274">
        <ele>145.19999694824</ele>
        <time>2020-08-16T08:52:28.000Z</time>
      </trkpt>
      <trkpt lat="50.19626" lon="3.62327">
        <ele>145.19999694824</ele>
        <time>2020-08-16T08:52:37.000Z</time>
      </trkpt>
      <trkpt lat="50.19596" lon="3.62391">
        <ele>145.19999694824</ele>
        <time>2020-08-16T08:52:47.000Z</time>
      </trkpt>
      <trkpt lat="50.1957" lon="3.62452">
        <ele>145.19999694824</ele>
        <time>2020-08-16T08:52:57.000Z</time>
      </trkpt>
      <trkpt lat="50.19562" lon="3.62469">
        <ele>144.80000305176</ele>
        <time>2020-08-16T08:53:00.000Z</time>
      </trkpt>
      <trkpt lat="50.19559" lon="3.62474">
        <ele>144.39999389648</ele>
        <time>2020-08-16T08:53:01.000Z</time>
      </trkpt>
      <trkpt lat="50.19552" lon="3.6249">
        <ele>144</ele>
        <time>2020-08-16T08:53:04.000Z</time>
      </trkpt>
      <trkpt lat="50.19547" lon="3.625">
        <ele>143.60000610352</ele>
        <time>2020-08-16T08:53:06.000Z</time>
      </trkpt>
      <trkpt lat="50.19544" lon="3.62506">
        <ele>143</ele>
        <time>2020-08-16T08:53:07.000Z</time>
      </trkpt>
      <trkpt lat="50.19512" lon="3.62571">
        <ele>143</ele>
        <time>2020-08-16T08:53:19.000Z</time>
      </trkpt>
      <trkpt lat="50.1948" lon="3.62632">
        <ele>143</ele>
        <time>2020-08-16T08:53:31.000Z</time>
      </trkpt>
      <trkpt lat="50.19466" lon="3.62659">
        <ele>143.60000610352</ele>
        <time>2020-08-16T08:53:36.000Z</time>
      </trkpt>
      <trkpt lat="50.1946" lon="3.62668">
        <ele>144</ele>
        <time>2020-08-16T08:53:38.000Z</time>
      </trkpt>
      <trkpt lat="50.19457" lon="3.62673">
        <ele>144.60000610352</ele>
        <time>2020-08-16T08:53:39.000Z</time>
      </trkpt>
      <trkpt lat="50.19454" lon="3.62678">
        <ele>145</ele>
        <time>2020-08-16T08:53:40.000Z</time>
      </trkpt>
      <trkpt lat="50.19451" lon="3.62683">
        <ele>145.39999389648</ele>
        <time>2020-08-16T08:53:41.000Z</time>
      </trkpt>
      <trkpt lat="50.19425" lon="3.62735">
        <ele>145.39999389648</ele>
        <time>2020-08-16T08:53:51.000Z</time>
      </trkpt>
      <trkpt lat="50.19397" lon="3.62803">
        <ele>145.39999389648</ele>
        <time>2020-08-16T08:54:03.000Z</time>
      </trkpt>
      <trkpt lat="50.19391" lon="3.62821">
        <ele>146.39999389648</ele>
        <time>2020-08-16T08:54:06.000Z</time>
      </trkpt>
      <trkpt lat="50.19389" lon="3.62826">
        <ele>146.80000305176</ele>
        <time>2020-08-16T08:54:07.000Z</time>
      </trkpt>
      <trkpt lat="50.19387" lon="3.62832">
        <ele>147.19999694824</ele>
        <time>2020-08-16T08:54:08.000Z</time>
      </trkpt>
      <trkpt lat="50.19384" lon="3.62837">
        <ele>147.60000610352</ele>
        <time>2020-08-16T08:54:09.000Z</time>
      </trkpt>
      <trkpt lat="50.1937" lon="3.6287">
        <ele>147.60000610352</ele>
        <time>2020-08-16T08:54:15.000Z</time>
      </trkpt>
      <trkpt lat="50.19348" lon="3.62924">
        <ele>147.60000610352</ele>
        <time>2020-08-16T08:54:24.000Z</time>
      </trkpt>
      <trkpt lat="50.19332" lon="3.62964">
        <ele>147.19999694824</ele>
        <time>2020-08-16T08:54:30.000Z</time>
      </trkpt>
      <trkpt lat="50.1933" lon="3.6297">
        <ele>146.80000305176</ele>
        <time>2020-08-16T08:54:31.000Z</time>
      </trkpt>
      <trkpt lat="50.19328" lon="3.62977">
        <ele>146.39999389648</ele>
        <time>2020-08-16T08:54:32.000Z</time>
      </trkpt>
      <trkpt lat="50.19325" lon="3.62984">
        <ele>146</ele>
        <time>2020-08-16T08:54:33.000Z</time>
      </trkpt>
      <trkpt lat="50.19322" lon="3.62996">
        <ele>145.39999389648</ele>
        <time>2020-08-16T08:54:35.000Z</time>
      </trkpt>
      <trkpt lat="50.19319" lon="3.63001">
        <ele>145.39999389648</ele>
        <time>2020-08-16T08:54:36.000Z</time>
      </trkpt>
      <trkpt lat="50.19311" lon="3.63032">
        <ele>145.39999389648</ele>
        <time>2020-08-16T08:54:41.000Z</time>
      </trkpt>
      <trkpt lat="50.19304" lon="3.63087">
        <ele>145.39999389648</ele>
        <time>2020-08-16T08:54:48.000Z</time>
      </trkpt>
      <trkpt lat="50.193" lon="3.63152">
        <ele>145.39999389648</ele>
        <time>2020-08-16T08:54:57.000Z</time>
      </trkpt>
      <trkpt lat="50.193" lon="3.6322">
        <ele>145.39999389648</ele>
        <time>2020-08-16T08:55:06.000Z</time>
      </trkpt>
      <trkpt lat="50.19299" lon="3.63285">
        <ele>145</ele>
        <time>2020-08-16T08:55:14.000Z</time>
      </trkpt>
      <trkpt lat="50.19299" lon="3.63293">
        <ele>145</ele>
        <time>2020-08-16T08:55:15.000Z</time>
      </trkpt>
      <trkpt lat="50.19298" lon="3.633">
        <ele>144.60000610352</ele>
        <time>2020-08-16T08:55:16.000Z</time>
      </trkpt>
      <trkpt lat="50.19298" lon="3.63308">
        <ele>144.19999694824</ele>
        <time>2020-08-16T08:55:17.000Z</time>
      </trkpt>
      <trkpt lat="50.19297" lon="3.63315">
        <ele>143.60000610352</ele>
        <time>2020-08-16T08:55:18.000Z</time>
      </trkpt>
      <trkpt lat="50.19296" lon="3.63323">
        <ele>143.19999694824</ele>
        <time>2020-08-16T08:55:19.000Z</time>
      </trkpt>
      <trkpt lat="50.19289" lon="3.63373">
        <ele>143.19999694824</ele>
        <time>2020-08-16T08:55:26.000Z</time>
      </trkpt>
      <trkpt lat="50.19276" lon="3.63457">
        <ele>143.19999694824</ele>
        <time>2020-08-16T08:55:37.000Z</time>
      </trkpt>
      <trkpt lat="50.19274" lon="3.63472">
        <ele>143.19999694824</ele>
        <time>2020-08-16T08:55:39.000Z</time>
      </trkpt>
      <trkpt lat="50.19259" lon="3.6356">
        <ele>143.19999694824</ele>
        <time>2020-08-16T08:55:51.000Z</time>
      </trkpt>
      <trkpt lat="50.19258" lon="3.63567">
        <ele>143.19999694824</ele>
        <time>2020-08-16T08:55:52.000Z</time>
      </trkpt>
      <trkpt lat="50.19248" lon="3.63648">
        <ele>143.19999694824</ele>
        <time>2020-08-16T08:56:03.000Z</time>
      </trkpt>
      <trkpt lat="50.19238" lon="3.63737">
        <ele>143.19999694824</ele>
        <time>2020-08-16T08:56:15.000Z</time>
      </trkpt>
      <trkpt lat="50.19237" lon="3.63744">
        <ele>143.19999694824</ele>
        <time>2020-08-16T08:56:16.000Z</time>
      </trkpt>
      <trkpt lat="50.19224" lon="3.63831">
        <ele>143.19999694824</ele>
        <time>2020-08-16T08:56:28.000Z</time>
      </trkpt>
      <trkpt lat="50.19209" lon="3.63897">
        <ele>143.19999694824</ele>
        <time>2020-08-16T08:56:39.000Z</time>
      </trkpt>
      <trkpt lat="50.19203" lon="3.63916">
        <ele>143.19999694824</ele>
        <time>2020-08-16T08:56:44.000Z</time>
      </trkpt>
      <trkpt lat="50.19191" lon="3.6395">
        <ele>143.19999694824</ele>
        <time>2020-08-16T08:56:50.000Z</time>
      </trkpt>
      <trkpt lat="50.19165" lon="3.64025">
        <ele>143.19999694824</ele>
        <time>2020-08-16T08:57:02.000Z</time>
      </trkpt>
      <trkpt lat="50.19142" lon="3.64089">
        <ele>143.19999694824</ele>
        <time>2020-08-16T08:57:12.000Z</time>
      </trkpt>
      <trkpt lat="50.19122" lon="3.64141">
        <ele>143.19999694824</ele>
        <time>2020-08-16T08:57:20.000Z</time>
      </trkpt>
      <trkpt lat="50.19112" lon="3.64164">
        <ele>143.19999694824</ele>
        <time>2020-08-16T08:57:25.000Z</time>
      </trkpt>
      <trkpt lat="50.19102" lon="3.6419">
        <ele>143.19999694824</ele>
        <time>2020-08-16T08:57:30.000Z</time>
      </trkpt>
      <trkpt lat="50.19086" lon="3.64237">
        <ele>143.19999694824</ele>
        <time>2020-08-16T08:57:38.000Z</time>
      </trkpt>
      <trkpt lat="50.19075" lon="3.64275">
        <ele>143.19999694824</ele>
        <time>2020-08-16T08:57:44.000Z</time>
      </trkpt>
      <trkpt lat="50.19069" lon="3.64284">
        <ele>143.19999694824</ele>
        <time>2020-08-16T08:57:46.000Z</time>
      </trkpt>
      <trkpt lat="50.19046" lon="3.6432">
        <ele>143.19999694824</ele>
        <time>2020-08-16T08:57:53.000Z</time>
      </trkpt>
      <trkpt lat="50.19019" lon="3.64388">
        <ele>143.19999694824</ele>
        <time>2020-08-16T08:58:03.000Z</time>
      </trkpt>
      <trkpt lat="50.19004" lon="3.64443">
        <ele>143.19999694824</ele>
        <time>2020-08-16T08:58:11.000Z</time>
      </trkpt>
      <trkpt lat="50.18989" lon="3.64498">
        <ele>143.19999694824</ele>
        <time>2020-08-16T08:58:20.000Z</time>
      </trkpt>
      <trkpt lat="50.18967" lon="3.64568">
        <ele>143.19999694824</ele>
        <time>2020-08-16T08:58:31.000Z</time>
      </trkpt>
      <trkpt lat="50.18953" lon="3.64621">
        <ele>143.19999694824</ele>
        <time>2020-08-16T08:58:40.000Z</time>
      </trkpt>
      <trkpt lat="50.18951" lon="3.64627">
        <ele>143.60000610352</ele>
        <time>2020-08-16T08:58:41.000Z</time>
      </trkpt>
      <trkpt lat="50.18949" lon="3.64633">
        <ele>144</ele>
        <time>2020-08-16T08:58:42.000Z</time>
      </trkpt>
      <trkpt lat="50.18946" lon="3.64638">
        <ele>144.39999389648</ele>
        <time>2020-08-16T08:58:43.000Z</time>
      </trkpt>
      <trkpt lat="50.18942" lon="3.64652">
        <ele>145.19999694824</ele>
        <time>2020-08-16T08:58:45.000Z</time>
      </trkpt>
      <trkpt lat="50.1894" lon="3.64658">
        <ele>145.19999694824</ele>
        <time>2020-08-16T08:58:46.000Z</time>
      </trkpt>
      <trkpt lat="50.18922" lon="3.64701">
        <ele>145.19999694824</ele>
        <time>2020-08-16T08:58:54.000Z</time>
      </trkpt>
      <trkpt lat="50.1892" lon="3.64707">
        <ele>145.60000610352</ele>
        <time>2020-08-16T08:58:55.000Z</time>
      </trkpt>
      <trkpt lat="50.18918" lon="3.64712">
        <ele>146.19999694824</ele>
        <time>2020-08-16T08:58:56.000Z</time>
      </trkpt>
      <trkpt lat="50.18915" lon="3.64717">
        <ele>146.60000610352</ele>
        <time>2020-08-16T08:58:57.000Z</time>
      </trkpt>
      <trkpt lat="50.18911" lon="3.64728">
        <ele>147.60000610352</ele>
        <time>2020-08-16T08:58:59.000Z</time>
      </trkpt>
      <trkpt lat="50.18898" lon="3.64758">
        <ele>147.60000610352</ele>
        <time>2020-08-16T08:59:05.000Z</time>
      </trkpt>
      <trkpt lat="50.1888" lon="3.64803">
        <ele>147.60000610352</ele>
        <time>2020-08-16T08:59:14.000Z</time>
      </trkpt>
      <trkpt lat="50.18873" lon="3.64808">
        <ele>147.60000610352</ele>
        <time>2020-08-16T08:59:16.000Z</time>
      </trkpt>
      <trkpt lat="50.18868" lon="3.64806">
        <ele>147.60000610352</ele>
        <time>2020-08-16T08:59:17.000Z</time>
      </trkpt>
      <trkpt lat="50.18852" lon="3.64799">
        <ele>147.60000610352</ele>
        <time>2020-08-16T08:59:21.000Z</time>
      </trkpt>
      <trkpt lat="50.18844" lon="3.648">
        <ele>147.60000610352</ele>
        <time>2020-08-16T08:59:23.000Z</time>
      </trkpt>
      <trkpt lat="50.18835" lon="3.64802">
        <ele>147.60000610352</ele>
        <time>2020-08-16T08:59:25.000Z</time>
      </trkpt>
      <trkpt lat="50.18818" lon="3.6481">
        <ele>147.60000610352</ele>
        <time>2020-08-16T08:59:29.000Z</time>
      </trkpt>
      <trkpt lat="50.18767" lon="3.6484">
        <ele>147.60000610352</ele>
        <time>2020-08-16T08:59:40.000Z</time>
      </trkpt>
      <trkpt lat="50.18732" lon="3.64865">
        <ele>147.60000610352</ele>
        <time>2020-08-16T08:59:49.000Z</time>
      </trkpt>
      <trkpt lat="50.187" lon="3.64884">
        <ele>147.60000610352</ele>
        <time>2020-08-16T08:59:57.000Z</time>
      </trkpt>
      <trkpt lat="50.18686" lon="3.64891">
        <ele>147.60000610352</ele>
        <time>2020-08-16T09:00:00.000Z</time>
      </trkpt>
      <trkpt lat="50.18681" lon="3.64892">
        <ele>147.60000610352</ele>
        <time>2020-08-16T09:00:01.000Z</time>
      </trkpt>
      <trkpt lat="50.18637" lon="3.649">
        <ele>147.60000610352</ele>
        <time>2020-08-16T09:00:10.000Z</time>
      </trkpt>
      <trkpt lat="50.18599" lon="3.64907">
        <ele>147.60000610352</ele>
        <time>2020-08-16T09:00:18.000Z</time>
      </trkpt>
      <trkpt lat="50.18595" lon="3.64906">
        <ele>147.60000610352</ele>
        <time>2020-08-16T09:00:19.000Z</time>
      </trkpt>
      <trkpt lat="50.18563" lon="3.64905">
        <ele>147.60000610352</ele>
        <time>2020-08-16T09:00:25.000Z</time>
      </trkpt>
      <trkpt lat="50.18558" lon="3.64906">
        <ele>147.60000610352</ele>
        <time>2020-08-16T09:00:26.000Z</time>
      </trkpt>
      <trkpt lat="50.18546" lon="3.64907">
        <ele>147</ele>
        <time>2020-08-16T09:00:28.000Z</time>
      </trkpt>
      <trkpt lat="50.18541" lon="3.64908">
        <ele>146.60000610352</ele>
        <time>2020-08-16T09:00:29.000Z</time>
      </trkpt>
      <trkpt lat="50.18529" lon="3.64908">
        <ele>146.19999694824</ele>
        <time>2020-08-16T09:00:31.000Z</time>
      </trkpt>
      <trkpt lat="50.18523" lon="3.64909">
        <ele>145.39999389648</ele>
        <time>2020-08-16T09:00:32.000Z</time>
      </trkpt>
      <trkpt lat="50.1851" lon="3.6491">
        <ele>145.39999389648</ele>
        <time>2020-08-16T09:00:34.000Z</time>
      </trkpt>
      <trkpt lat="50.18498" lon="3.6491">
        <ele>145</ele>
        <time>2020-08-16T09:00:36.000Z</time>
      </trkpt>
      <trkpt lat="50.18491" lon="3.64911">
        <ele>144.60000610352</ele>
        <time>2020-08-16T09:00:37.000Z</time>
      </trkpt>
      <trkpt lat="50.18485" lon="3.6491">
        <ele>143.80000305176</ele>
        <time>2020-08-16T09:00:38.000Z</time>
      </trkpt>
      <trkpt lat="50.18479" lon="3.64909">
        <ele>143.39999389648</ele>
        <time>2020-08-16T09:00:39.000Z</time>
      </trkpt>
      <trkpt lat="50.18466" lon="3.64905">
        <ele>143.39999389648</ele>
        <time>2020-08-16T09:00:41.000Z</time>
      </trkpt>
      <trkpt lat="50.18453" lon="3.64898">
        <ele>143.39999389648</ele>
        <time>2020-08-16T09:00:43.000Z</time>
      </trkpt>
      <trkpt lat="50.18442" lon="3.64887">
        <ele>143.39999389648</ele>
        <time>2020-08-16T09:00:45.000Z</time>
      </trkpt>
      <trkpt lat="50.18404" lon="3.64847">
        <ele>143.39999389648</ele>
        <time>2020-08-16T09:00:52.000Z</time>
      </trkpt>
      <trkpt lat="50.18395" lon="3.64833">
        <ele>142.80000305176</ele>
        <time>2020-08-16T09:00:54.000Z</time>
      </trkpt>
      <trkpt lat="50.18391" lon="3.64826">
        <ele>142.80000305176</ele>
        <time>2020-08-16T09:00:55.000Z</time>
      </trkpt>
      <trkpt lat="50.18388" lon="3.64818">
        <ele>142.39999389648</ele>
        <time>2020-08-16T09:00:56.000Z</time>
      </trkpt>
      <trkpt lat="50.18384" lon="3.6481">
        <ele>142</ele>
        <time>2020-08-16T09:00:57.000Z</time>
      </trkpt>
      <trkpt lat="50.18381" lon="3.64802">
        <ele>141.60000610352</ele>
        <time>2020-08-16T09:00:58.000Z</time>
      </trkpt>
      <trkpt lat="50.18377" lon="3.64795">
        <ele>141</ele>
        <time>2020-08-16T09:00:59.000Z</time>
      </trkpt>
      <trkpt lat="50.18361" lon="3.6478">
        <ele>141</ele>
        <time>2020-08-16T09:01:02.000Z</time>
      </trkpt>
      <trkpt lat="50.18355" lon="3.64778">
        <ele>141</ele>
        <time>2020-08-16T09:01:03.000Z</time>
      </trkpt>
      <trkpt lat="50.18342" lon="3.64775">
        <ele>141</ele>
        <time>2020-08-16T09:01:05.000Z</time>
      </trkpt>
      <trkpt lat="50.18337" lon="3.64774">
        <ele>141</ele>
        <time>2020-08-16T09:01:06.000Z</time>
      </trkpt>
      <trkpt lat="50.18316" lon="3.64764">
        <ele>141</ele>
        <time>2020-08-16T09:01:11.000Z</time>
      </trkpt>
      <trkpt lat="50.18297" lon="3.64754">
        <ele>141</ele>
        <time>2020-08-16T09:01:16.000Z</time>
      </trkpt>
      <trkpt lat="50.18281" lon="3.64748">
        <ele>141</ele>
        <time>2020-08-16T09:01:21.000Z</time>
      </trkpt>
      <trkpt lat="50.1826" lon="3.64739">
        <ele>141</ele>
        <time>2020-08-16T09:01:26.000Z</time>
      </trkpt>
      <trkpt lat="50.18252" lon="3.64735">
        <ele>141.60000610352</ele>
        <time>2020-08-16T09:01:28.000Z</time>
      </trkpt>
      <trkpt lat="50.18248" lon="3.64733">
        <ele>142</ele>
        <time>2020-08-16T09:01:29.000Z</time>
      </trkpt>
      <trkpt lat="50.18241" lon="3.64729">
        <ele>142.80000305176</ele>
        <time>2020-08-16T09:01:31.000Z</time>
      </trkpt>
      <trkpt lat="50.18237" lon="3.64728">
        <ele>143.19999694824</ele>
        <time>2020-08-16T09:01:32.000Z</time>
      </trkpt>
      <trkpt lat="50.18216" lon="3.64718">
        <ele>143.19999694824</ele>
        <time>2020-08-16T09:01:38.000Z</time>
      </trkpt>
      <trkpt lat="50.18192" lon="3.6471">
        <ele>143.19999694824</ele>
        <time>2020-08-16T09:01:44.000Z</time>
      </trkpt>
      <trkpt lat="50.18184" lon="3.64719">
        <ele>143.19999694824</ele>
        <time>2020-08-16T09:01:47.000Z</time>
      </trkpt>
      <trkpt lat="50.18184" lon="3.64725">
        <ele>143.19999694824</ele>
        <time>2020-08-16T09:01:48.000Z</time>
      </trkpt>
      <trkpt lat="50.18187" lon="3.64766">
        <ele>143.19999694824</ele>
        <time>2020-08-16T09:01:54.000Z</time>
      </trkpt>
      <trkpt lat="50.18193" lon="3.64814">
        <ele>143.19999694824</ele>
        <time>2020-08-16T09:02:01.000Z</time>
      </trkpt>
      <trkpt lat="50.18204" lon="3.64876">
        <ele>143.19999694824</ele>
        <time>2020-08-16T09:02:10.000Z</time>
      </trkpt>
      <trkpt lat="50.18209" lon="3.64901">
        <ele>143.19999694824</ele>
        <time>2020-08-16T09:02:14.000Z</time>
      </trkpt>
      <trkpt lat="50.18208" lon="3.64914">
        <ele>143.19999694824</ele>
        <time>2020-08-16T09:02:16.000Z</time>
      </trkpt>
      <trkpt lat="50.18206" lon="3.64921">
        <ele>143.80000305176</ele>
        <time>2020-08-16T09:02:17.000Z</time>
      </trkpt>
      <trkpt lat="50.182" lon="3.64932">
        <ele>144.60000610352</ele>
        <time>2020-08-16T09:02:19.000Z</time>
      </trkpt>
      <trkpt lat="50.18195" lon="3.64936">
        <ele>145</ele>
        <time>2020-08-16T09:02:20.000Z</time>
      </trkpt>
      <trkpt lat="50.18191" lon="3.6494">
        <ele>145.39999389648</ele>
        <time>2020-08-16T09:02:21.000Z</time>
      </trkpt>
      <trkpt lat="50.1817" lon="3.64958">
        <ele>145.39999389648</ele>
        <time>2020-08-16T09:02:26.000Z</time>
      </trkpt>
      <trkpt lat="50.18135" lon="3.64996">
        <ele>145.39999389648</ele>
        <time>2020-08-16T09:02:35.000Z</time>
      </trkpt>
      <trkpt lat="50.18107" lon="3.65027">
        <ele>145.80000305176</ele>
        <time>2020-08-16T09:02:42.000Z</time>
      </trkpt>
      <trkpt lat="50.18103" lon="3.65032">
        <ele>146.19999694824</ele>
        <time>2020-08-16T09:02:43.000Z</time>
      </trkpt>
      <trkpt lat="50.18099" lon="3.65037">
        <ele>146.80000305176</ele>
        <time>2020-08-16T09:02:44.000Z</time>
      </trkpt>
      <trkpt lat="50.18095" lon="3.65041">
        <ele>147.19999694824</ele>
        <time>2020-08-16T09:02:45.000Z</time>
      </trkpt>
      <trkpt lat="50.18091" lon="3.65046">
        <ele>147.60000610352</ele>
        <time>2020-08-16T09:02:46.000Z</time>
      </trkpt>
      <trkpt lat="50.18082" lon="3.65055">
        <ele>147.60000610352</ele>
        <time>2020-08-16T09:02:48.000Z</time>
      </trkpt>
      <trkpt lat="50.18034" lon="3.65103">
        <ele>147.60000610352</ele>
        <time>2020-08-16T09:02:59.000Z</time>
      </trkpt>
      <trkpt lat="50.18025" lon="3.65112">
        <ele>147.60000610352</ele>
        <time>2020-08-16T09:03:01.000Z</time>
      </trkpt>
      <trkpt lat="50.17982" lon="3.65155">
        <ele>147.60000610352</ele>
        <time>2020-08-16T09:03:11.000Z</time>
      </trkpt>
      <trkpt lat="50.17946" lon="3.65195">
        <ele>147.60000610352</ele>
        <time>2020-08-16T09:03:20.000Z</time>
      </trkpt>
      <trkpt lat="50.17905" lon="3.65253">
        <ele>147.60000610352</ele>
        <time>2020-08-16T09:03:30.000Z</time>
      </trkpt>
      <trkpt lat="50.17863" lon="3.65289">
        <ele>147.60000610352</ele>
        <time>2020-08-16T09:03:39.000Z</time>
      </trkpt>
      <trkpt lat="50.17826" lon="3.65315">
        <ele>147.60000610352</ele>
        <time>2020-08-16T09:03:46.000Z</time>
      </trkpt>
      <trkpt lat="50.17773" lon="3.65351">
        <ele>147.60000610352</ele>
        <time>2020-08-16T09:03:56.000Z</time>
      </trkpt>
      <trkpt lat="50.17724" lon="3.65386">
        <ele>147.60000610352</ele>
        <time>2020-08-16T09:04:06.000Z</time>
      </trkpt>
      <trkpt lat="50.17719" lon="3.65388">
        <ele>147.60000610352</ele>
        <time>2020-08-16T09:04:07.000Z</time>
      </trkpt>
      <trkpt lat="50.17682" lon="3.65399">
        <ele>147.60000610352</ele>
        <time>2020-08-16T09:04:14.000Z</time>
      </trkpt>
      <trkpt lat="50.17677" lon="3.65401">
        <ele>147.60000610352</ele>
        <time>2020-08-16T09:04:15.000Z</time>
      </trkpt>
      <trkpt lat="50.17657" lon="3.65415">
        <ele>147.60000610352</ele>
        <time>2020-08-16T09:04:19.000Z</time>
      </trkpt>
      <trkpt lat="50.17645" lon="3.65443">
        <ele>147.60000610352</ele>
        <time>2020-08-16T09:04:23.000Z</time>
      </trkpt>
      <trkpt lat="50.17626" lon="3.65486">
        <ele>147.60000610352</ele>
        <time>2020-08-16T09:04:29.000Z</time>
      </trkpt>
      <trkpt lat="50.17622" lon="3.65492">
        <ele>147.60000610352</ele>
        <time>2020-08-16T09:04:30.000Z</time>
      </trkpt>
      <trkpt lat="50.17592" lon="3.65531">
        <ele>147.60000610352</ele>
        <time>2020-08-16T09:04:37.000Z</time>
      </trkpt>
      <trkpt lat="50.17562" lon="3.65569">
        <ele>147.60000610352</ele>
        <time>2020-08-16T09:04:44.000Z</time>
      </trkpt>
      <trkpt lat="50.17551" lon="3.65585">
        <ele>148</ele>
        <time>2020-08-16T09:04:47.000Z</time>
      </trkpt>
      <trkpt lat="50.17543" lon="3.65595">
        <ele>148.39999389648</ele>
        <time>2020-08-16T09:04:49.000Z</time>
      </trkpt>
      <trkpt lat="50.17539" lon="3.65601">
        <ele>148.80000305176</ele>
        <time>2020-08-16T09:04:50.000Z</time>
      </trkpt>
      <trkpt lat="50.17536" lon="3.65606">
        <ele>149.19999694824</ele>
        <time>2020-08-16T09:04:51.000Z</time>
      </trkpt>
      <trkpt lat="50.17532" lon="3.65611">
        <ele>149.60000610352</ele>
        <time>2020-08-16T09:04:52.000Z</time>
      </trkpt>
      <trkpt lat="50.1752" lon="3.65628">
        <ele>149.60000610352</ele>
        <time>2020-08-16T09:04:55.000Z</time>
      </trkpt>
      <trkpt lat="50.1748" lon="3.65683">
        <ele>149.60000610352</ele>
        <time>2020-08-16T09:05:06.000Z</time>
      </trkpt>
      <trkpt lat="50.17476" lon="3.65688">
        <ele>149.60000610352</ele>
        <time>2020-08-16T09:05:07.000Z</time>
      </trkpt>
      <trkpt lat="50.17447" lon="3.65728">
        <ele>150.19999694824</ele>
        <time>2020-08-16T09:05:15.000Z</time>
      </trkpt>
      <trkpt lat="50.17443" lon="3.65733">
        <ele>150.60000610352</ele>
        <time>2020-08-16T09:05:16.000Z</time>
      </trkpt>
      <trkpt lat="50.1744" lon="3.65738">
        <ele>151</ele>
        <time>2020-08-16T09:05:17.000Z</time>
      </trkpt>
      <trkpt lat="50.17436" lon="3.65743">
        <ele>151</ele>
        <time>2020-08-16T09:05:18.000Z</time>
      </trkpt>
      <trkpt lat="50.17432" lon="3.65749">
        <ele>151.80000305176</ele>
        <time>2020-08-16T09:05:19.000Z</time>
      </trkpt>
      <trkpt lat="50.17391" lon="3.65804">
        <ele>151.80000305176</ele>
        <time>2020-08-16T09:05:30.000Z</time>
      </trkpt>
      <trkpt lat="50.17384" lon="3.65814">
        <ele>152.19999694824</ele>
        <time>2020-08-16T09:05:32.000Z</time>
      </trkpt>
      <trkpt lat="50.17377" lon="3.65824">
        <ele>152.60000610352</ele>
        <time>2020-08-16T09:05:34.000Z</time>
      </trkpt>
      <trkpt lat="50.17374" lon="3.65829">
        <ele>153.39999389648</ele>
        <time>2020-08-16T09:05:35.000Z</time>
      </trkpt>
      <trkpt lat="50.1737" lon="3.65834">
        <ele>153.80000305176</ele>
        <time>2020-08-16T09:05:36.000Z</time>
      </trkpt>
      <trkpt lat="50.1736" lon="3.65848">
        <ele>153.80000305176</ele>
        <time>2020-08-16T09:05:39.000Z</time>
      </trkpt>
      <trkpt lat="50.17336" lon="3.6588">
        <ele>153.80000305176</ele>
        <time>2020-08-16T09:05:46.000Z</time>
      </trkpt>
      <trkpt lat="50.17329" lon="3.65889">
        <ele>154.19999694824</ele>
        <time>2020-08-16T09:05:48.000Z</time>
      </trkpt>
      <trkpt lat="50.17322" lon="3.65897">
        <ele>155</ele>
        <time>2020-08-16T09:05:50.000Z</time>
      </trkpt>
      <trkpt lat="50.17319" lon="3.659">
        <ele>155.39999389648</ele>
        <time>2020-08-16T09:05:51.000Z</time>
      </trkpt>
      <trkpt lat="50.17315" lon="3.65904">
        <ele>155.80000305176</ele>
        <time>2020-08-16T09:05:52.000Z</time>
      </trkpt>
      <trkpt lat="50.17309" lon="3.65912">
        <ele>155.80000305176</ele>
        <time>2020-08-16T09:05:54.000Z</time>
      </trkpt>
      <trkpt lat="50.17279" lon="3.65946">
        <ele>155.80000305176</ele>
        <time>2020-08-16T09:06:03.000Z</time>
      </trkpt>
      <trkpt lat="50.17246" lon="3.65983">
        <ele>155.80000305176</ele>
        <time>2020-08-16T09:06:11.000Z</time>
      </trkpt>
      <trkpt lat="50.17205" lon="3.66029">
        <ele>155.80000305176</ele>
        <time>2020-08-16T09:06:19.000Z</time>
      </trkpt>
      <trkpt lat="50.172" lon="3.66034">
        <ele>155.39999389648</ele>
        <time>2020-08-16T09:06:20.000Z</time>
      </trkpt>
      <trkpt lat="50.17194" lon="3.6604">
        <ele>155</ele>
        <time>2020-08-16T09:06:21.000Z</time>
      </trkpt>
      <trkpt lat="50.17189" lon="3.66045">
        <ele>154.39999389648</ele>
        <time>2020-08-16T09:06:22.000Z</time>
      </trkpt>
      <trkpt lat="50.17183" lon="3.66049">
        <ele>154.39999389648</ele>
        <time>2020-08-16T09:06:23.000Z</time>
      </trkpt>
      <trkpt lat="50.17177" lon="3.66052">
        <ele>154</ele>
        <time>2020-08-16T09:06:24.000Z</time>
      </trkpt>
      <trkpt lat="50.17171" lon="3.66054">
        <ele>153.60000610352</ele>
        <time>2020-08-16T09:06:25.000Z</time>
      </trkpt>
      <trkpt lat="50.17164" lon="3.66055">
        <ele>153.60000610352</ele>
        <time>2020-08-16T09:06:26.000Z</time>
      </trkpt>
      <trkpt lat="50.17145" lon="3.66052">
        <ele>153.60000610352</ele>
        <time>2020-08-16T09:06:29.000Z</time>
      </trkpt>
      <trkpt lat="50.17138" lon="3.66049">
        <ele>153.19999694824</ele>
        <time>2020-08-16T09:06:30.000Z</time>
      </trkpt>
      <trkpt lat="50.17132" lon="3.66047">
        <ele>152.80000305176</ele>
        <time>2020-08-16T09:06:31.000Z</time>
      </trkpt>
      <trkpt lat="50.17126" lon="3.66045">
        <ele>152.19999694824</ele>
        <time>2020-08-16T09:06:32.000Z</time>
      </trkpt>
      <trkpt lat="50.17113" lon="3.66041">
        <ele>151.39999389648</ele>
        <time>2020-08-16T09:06:34.000Z</time>
      </trkpt>
      <trkpt lat="50.17101" lon="3.6604">
        <ele>151.39999389648</ele>
        <time>2020-08-16T09:06:36.000Z</time>
      </trkpt>
      <trkpt lat="50.1706" lon="3.66048">
        <ele>151.39999389648</ele>
        <time>2020-08-16T09:06:43.000Z</time>
      </trkpt>
      <trkpt lat="50.17027" lon="3.66043">
        <ele>151.39999389648</ele>
        <time>2020-08-16T09:06:49.000Z</time>
      </trkpt>
      <trkpt lat="50.16978" lon="3.66024">
        <ele>151.39999389648</ele>
        <time>2020-08-16T09:06:58.000Z</time>
      </trkpt>
      <trkpt lat="50.16924" lon="3.66">
        <ele>151.39999389648</ele>
        <time>2020-08-16T09:07:09.000Z</time>
      </trkpt>
      <trkpt lat="50.16894" lon="3.65991">
        <ele>151.39999389648</ele>
        <time>2020-08-16T09:07:15.000Z</time>
      </trkpt>
      <trkpt lat="50.16884" lon="3.65989">
        <ele>151.80000305176</ele>
        <time>2020-08-16T09:07:17.000Z</time>
      </trkpt>
      <trkpt lat="50.16874" lon="3.65988">
        <ele>152.19999694824</ele>
        <time>2020-08-16T09:07:19.000Z</time>
      </trkpt>
      <trkpt lat="50.16869" lon="3.65987">
        <ele>153</ele>
        <time>2020-08-16T09:07:20.000Z</time>
      </trkpt>
      <trkpt lat="50.16864" lon="3.65986">
        <ele>153.60000610352</ele>
        <time>2020-08-16T09:07:21.000Z</time>
      </trkpt>
      <trkpt lat="50.16833" lon="3.65981">
        <ele>153.60000610352</ele>
        <time>2020-08-16T09:07:27.000Z</time>
      </trkpt>
      <trkpt lat="50.16788" lon="3.65979">
        <ele>153.60000610352</ele>
        <time>2020-08-16T09:07:36.000Z</time>
      </trkpt>
      <trkpt lat="50.16774" lon="3.6598">
        <ele>154</ele>
        <time>2020-08-16T09:07:39.000Z</time>
      </trkpt>
      <trkpt lat="50.1677" lon="3.6598">
        <ele>154.39999389648</ele>
        <time>2020-08-16T09:07:40.000Z</time>
      </trkpt>
      <trkpt lat="50.16765" lon="3.65981">
        <ele>155.19999694824</ele>
        <time>2020-08-16T09:07:41.000Z</time>
      </trkpt>
      <trkpt lat="50.1676" lon="3.65981">
        <ele>155.80000305176</ele>
        <time>2020-08-16T09:07:42.000Z</time>
      </trkpt>
      <trkpt lat="50.16726" lon="3.65986">
        <ele>155.80000305176</ele>
        <time>2020-08-16T09:07:49.000Z</time>
      </trkpt>
      <trkpt lat="50.16673" lon="3.65999">
        <ele>155.80000305176</ele>
        <time>2020-08-16T09:08:00.000Z</time>
      </trkpt>
      <trkpt lat="50.16668" lon="3.66">
        <ele>155.80000305176</ele>
        <time>2020-08-16T09:08:01.000Z</time>
      </trkpt>
      <trkpt lat="50.16654" lon="3.66006">
        <ele>155.80000305176</ele>
        <time>2020-08-16T09:08:04.000Z</time>
      </trkpt>
      <trkpt lat="50.16641" lon="3.66018">
        <ele>155.80000305176</ele>
        <time>2020-08-16T09:08:07.000Z</time>
      </trkpt>
      <trkpt lat="50.16637" lon="3.66024">
        <ele>155.80000305176</ele>
        <time>2020-08-16T09:08:08.000Z</time>
      </trkpt>
      <trkpt lat="50.16611" lon="3.66054">
        <ele>155.80000305176</ele>
        <time>2020-08-16T09:08:13.000Z</time>
      </trkpt>
      <trkpt lat="50.16599" lon="3.66065">
        <ele>155.39999389648</ele>
        <time>2020-08-16T09:08:15.000Z</time>
      </trkpt>
      <trkpt lat="50.16592" lon="3.66067">
        <ele>155</ele>
        <time>2020-08-16T09:08:16.000Z</time>
      </trkpt>
      <trkpt lat="50.16585" lon="3.66067">
        <ele>155</ele>
        <time>2020-08-16T09:08:17.000Z</time>
      </trkpt>
      <trkpt lat="50.16578" lon="3.66064">
        <ele>154</ele>
        <time>2020-08-16T09:08:18.000Z</time>
      </trkpt>
      <trkpt lat="50.16572" lon="3.66058">
        <ele>153.60000610352</ele>
        <time>2020-08-16T09:08:19.000Z</time>
      </trkpt>
      <trkpt lat="50.16566" lon="3.66051">
        <ele>153.60000610352</ele>
        <time>2020-08-16T09:08:20.000Z</time>
      </trkpt>
      <trkpt lat="50.1656" lon="3.66043">
        <ele>153.60000610352</ele>
        <time>2020-08-16T09:08:21.000Z</time>
      </trkpt>
      <trkpt lat="50.16526" lon="3.65999">
        <ele>153.19999694824</ele>
        <time>2020-08-16T09:08:27.000Z</time>
      </trkpt>
      <trkpt lat="50.16521" lon="3.65992">
        <ele>152.80000305176</ele>
        <time>2020-08-16T09:08:28.000Z</time>
      </trkpt>
      <trkpt lat="50.16516" lon="3.65985">
        <ele>152.39999389648</ele>
        <time>2020-08-16T09:08:29.000Z</time>
      </trkpt>
      <trkpt lat="50.16511" lon="3.65978">
        <ele>152</ele>
        <time>2020-08-16T09:08:30.000Z</time>
      </trkpt>
      <trkpt lat="50.16506" lon="3.6597">
        <ele>151.60000610352</ele>
        <time>2020-08-16T09:08:31.000Z</time>
      </trkpt>
      <trkpt lat="50.16484" lon="3.65932">
        <ele>151.60000610352</ele>
        <time>2020-08-16T09:08:36.000Z</time>
      </trkpt>
      <trkpt lat="50.16476" lon="3.65901">
        <ele>151.60000610352</ele>
        <time>2020-08-16T09:08:39.000Z</time>
      </trkpt>
      <trkpt lat="50.16473" lon="3.65891">
        <ele>151.19999694824</ele>
        <time>2020-08-16T09:08:40.000Z</time>
      </trkpt>
      <trkpt lat="50.1647" lon="3.65882">
        <ele>150.60000610352</ele>
        <time>2020-08-16T09:08:41.000Z</time>
      </trkpt>
      <trkpt lat="50.16467" lon="3.65873">
        <ele>150.19999694824</ele>
        <time>2020-08-16T09:08:42.000Z</time>
      </trkpt>
      <trkpt lat="50.16462" lon="3.65864">
        <ele>149.80000305176</ele>
        <time>2020-08-16T09:08:43.000Z</time>
      </trkpt>
      <trkpt lat="50.16457" lon="3.65856">
        <ele>149.39999389648</ele>
        <time>2020-08-16T09:08:44.000Z</time>
      </trkpt>
      <trkpt lat="50.1644" lon="3.65836">
        <ele>149.39999389648</ele>
        <time>2020-08-16T09:08:47.000Z</time>
      </trkpt>
      <trkpt lat="50.16434" lon="3.65831">
        <ele>149.39999389648</ele>
        <time>2020-08-16T09:08:48.000Z</time>
      </trkpt>
      <trkpt lat="50.1641" lon="3.65811">
        <ele>149.39999389648</ele>
        <time>2020-08-16T09:08:52.000Z</time>
      </trkpt>
      <trkpt lat="50.1637" lon="3.65783">
        <ele>149.39999389648</ele>
        <time>2020-08-16T09:08:59.000Z</time>
      </trkpt>
      <trkpt lat="50.16365" lon="3.65778">
        <ele>149.39999389648</ele>
        <time>2020-08-16T09:09:00.000Z</time>
      </trkpt>
      <trkpt lat="50.16349" lon="3.65765">
        <ele>149.80000305176</ele>
        <time>2020-08-16T09:09:03.000Z</time>
      </trkpt>
      <trkpt lat="50.16343" lon="3.65761">
        <ele>150.19999694824</ele>
        <time>2020-08-16T09:09:04.000Z</time>
      </trkpt>
      <trkpt lat="50.16339" lon="3.65756">
        <ele>150.80000305176</ele>
        <time>2020-08-16T09:09:05.000Z</time>
      </trkpt>
      <trkpt lat="50.16334" lon="3.65752">
        <ele>151.19999694824</ele>
        <time>2020-08-16T09:09:06.000Z</time>
      </trkpt>
      <trkpt lat="50.16329" lon="3.65747">
        <ele>151.60000610352</ele>
        <time>2020-08-16T09:09:07.000Z</time>
      </trkpt>
      <trkpt lat="50.16324" lon="3.65742">
        <ele>151.60000610352</ele>
        <time>2020-08-16T09:09:08.000Z</time>
      </trkpt>
      <trkpt lat="50.16295" lon="3.65701">
        <ele>151.60000610352</ele>
        <time>2020-08-16T09:09:15.000Z</time>
      </trkpt>
      <trkpt lat="50.1628" lon="3.65668">
        <ele>151.60000610352</ele>
        <time>2020-08-16T09:09:20.000Z</time>
      </trkpt>
      <trkpt lat="50.16271" lon="3.65645">
        <ele>151.60000610352</ele>
        <time>2020-08-16T09:09:23.000Z</time>
      </trkpt>
      <trkpt lat="50.16246" lon="3.65562">
        <ele>151.60000610352</ele>
        <time>2020-08-16T09:09:33.000Z</time>
      </trkpt>
      <trkpt lat="50.16226" lon="3.65495">
        <ele>151.60000610352</ele>
        <time>2020-08-16T09:09:41.000Z</time>
      </trkpt>
      <trkpt lat="50.16204" lon="3.65434">
        <ele>151.60000610352</ele>
        <time>2020-08-16T09:09:49.000Z</time>
      </trkpt>
      <trkpt lat="50.16174" lon="3.65362">
        <ele>151.60000610352</ele>
        <time>2020-08-16T09:09:59.000Z</time>
      </trkpt>
      <trkpt lat="50.16168" lon="3.65348">
        <ele>151.60000610352</ele>
        <time>2020-08-16T09:10:01.000Z</time>
      </trkpt>
      <trkpt lat="50.16134" lon="3.65274">
        <ele>151.60000610352</ele>
        <time>2020-08-16T09:10:12.000Z</time>
      </trkpt>
      <trkpt lat="50.1613" lon="3.65267">
        <ele>151.60000610352</ele>
        <time>2020-08-16T09:10:13.000Z</time>
      </trkpt>
      <trkpt lat="50.16117" lon="3.6524">
        <ele>152</ele>
        <time>2020-08-16T09:10:17.000Z</time>
      </trkpt>
      <trkpt lat="50.16113" lon="3.65233">
        <ele>152.60000610352</ele>
        <time>2020-08-16T09:10:18.000Z</time>
      </trkpt>
      <trkpt lat="50.1611" lon="3.65226">
        <ele>153</ele>
        <time>2020-08-16T09:10:19.000Z</time>
      </trkpt>
      <trkpt lat="50.16107" lon="3.65219">
        <ele>153.39999389648</ele>
        <time>2020-08-16T09:10:20.000Z</time>
      </trkpt>
      <trkpt lat="50.16103" lon="3.65213">
        <ele>153.80000305176</ele>
        <time>2020-08-16T09:10:21.000Z</time>
      </trkpt>
      <trkpt lat="50.16093" lon="3.65193">
        <ele>153.80000305176</ele>
        <time>2020-08-16T09:10:24.000Z</time>
      </trkpt>
      <trkpt lat="50.16062" lon="3.65131">
        <ele>153.80000305176</ele>
        <time>2020-08-16T09:10:34.000Z</time>
      </trkpt>
      <trkpt lat="50.16047" lon="3.65098">
        <ele>153.80000305176</ele>
        <time>2020-08-16T09:10:40.000Z</time>
      </trkpt>
      <trkpt lat="50.16044" lon="3.65087">
        <ele>153.80000305176</ele>
        <time>2020-08-16T09:10:42.000Z</time>
      </trkpt>
      <trkpt lat="50.16042" lon="3.65082">
        <ele>154.19999694824</ele>
        <time>2020-08-16T09:10:43.000Z</time>
      </trkpt>
      <trkpt lat="50.1604" lon="3.65078">
        <ele>154.80000305176</ele>
        <time>2020-08-16T09:10:44.000Z</time>
      </trkpt>
      <trkpt lat="50.16037" lon="3.65073">
        <ele>155.19999694824</ele>
        <time>2020-08-16T09:10:45.000Z</time>
      </trkpt>
      <trkpt lat="50.16034" lon="3.65068">
        <ele>155.60000610352</ele>
        <time>2020-08-16T09:10:46.000Z</time>
      </trkpt>
      <trkpt lat="50.1603" lon="3.65062">
        <ele>156.19999694824</ele>
        <time>2020-08-16T09:10:47.000Z</time>
      </trkpt>
      <trkpt lat="50.16008" lon="3.65024">
        <ele>156.19999694824</ele>
        <time>2020-08-16T09:10:53.000Z</time>
      </trkpt>
      <trkpt lat="50.15977" lon="3.64951">
        <ele>156.19999694824</ele>
        <time>2020-08-16T09:11:03.000Z</time>
      </trkpt>
      <trkpt lat="50.15944" lon="3.64882">
        <ele>156.19999694824</ele>
        <time>2020-08-16T09:11:13.000Z</time>
      </trkpt>
      <trkpt lat="50.15941" lon="3.64876">
        <ele>156.60000610352</ele>
        <time>2020-08-16T09:11:14.000Z</time>
      </trkpt>
      <trkpt lat="50.15938" lon="3.6487">
        <ele>157</ele>
        <time>2020-08-16T09:11:15.000Z</time>
      </trkpt>
      <trkpt lat="50.15935" lon="3.64864">
        <ele>157.39999389648</ele>
        <time>2020-08-16T09:11:16.000Z</time>
      </trkpt>
      <trkpt lat="50.15931" lon="3.64858">
        <ele>157.80000305176</ele>
        <time>2020-08-16T09:11:17.000Z</time>
      </trkpt>
      <trkpt lat="50.15928" lon="3.64852">
        <ele>158.19999694824</ele>
        <time>2020-08-16T09:11:18.000Z</time>
      </trkpt>
      <trkpt lat="50.15917" lon="3.64834">
        <ele>158.19999694824</ele>
        <time>2020-08-16T09:11:21.000Z</time>
      </trkpt>
      <trkpt lat="50.15885" lon="3.64777">
        <ele>158.19999694824</ele>
        <time>2020-08-16T09:11:30.000Z</time>
      </trkpt>
      <trkpt lat="50.15849" lon="3.64704">
        <ele>158.19999694824</ele>
        <time>2020-08-16T09:11:41.000Z</time>
      </trkpt>
      <trkpt lat="50.15839" lon="3.64683">
        <ele>158.19999694824</ele>
        <time>2020-08-16T09:11:44.000Z</time>
      </trkpt>
      <trkpt lat="50.15827" lon="3.6465">
        <ele>157.80000305176</ele>
        <time>2020-08-16T09:11:48.000Z</time>
      </trkpt>
      <trkpt lat="50.15824" lon="3.64642">
        <ele>157.80000305176</ele>
        <time>2020-08-16T09:11:49.000Z</time>
      </trkpt>
      <trkpt lat="50.15821" lon="3.64634">
        <ele>157.39999389648</ele>
        <time>2020-08-16T09:11:50.000Z</time>
      </trkpt>
      <trkpt lat="50.15819" lon="3.64626">
        <ele>156.80000305176</ele>
        <time>2020-08-16T09:11:51.000Z</time>
      </trkpt>
      <trkpt lat="50.15816" lon="3.64618">
        <ele>156.39999389648</ele>
        <time>2020-08-16T09:11:52.000Z</time>
      </trkpt>
      <trkpt lat="50.15813" lon="3.6461">
        <ele>156</ele>
        <time>2020-08-16T09:11:53.000Z</time>
      </trkpt>
      <trkpt lat="50.15795" lon="3.64556">
        <ele>156</ele>
        <time>2020-08-16T09:12:00.000Z</time>
      </trkpt>
      <trkpt lat="50.15773" lon="3.64485">
        <ele>156</ele>
        <time>2020-08-16T09:12:09.000Z</time>
      </trkpt>
      <trkpt lat="50.15771" lon="3.64476">
        <ele>156</ele>
        <time>2020-08-16T09:12:10.000Z</time>
      </trkpt>
      <trkpt lat="50.15754" lon="3.64411">
        <ele>156</ele>
        <time>2020-08-16T09:12:18.000Z</time>
      </trkpt>
      <trkpt lat="50.1575" lon="3.64396">
        <ele>156</ele>
        <time>2020-08-16T09:12:20.000Z</time>
      </trkpt>
      <trkpt lat="50.15739" lon="3.64371">
        <ele>156</ele>
        <time>2020-08-16T09:12:24.000Z</time>
      </trkpt>
      <trkpt lat="50.15734" lon="3.64359">
        <ele>155.60000610352</ele>
        <time>2020-08-16T09:12:26.000Z</time>
      </trkpt>
      <trkpt lat="50.15731" lon="3.64354">
        <ele>155.19999694824</ele>
        <time>2020-08-16T09:12:27.000Z</time>
      </trkpt>
      <trkpt lat="50.15727" lon="3.6435">
        <ele>154.60000610352</ele>
        <time>2020-08-16T09:12:28.000Z</time>
      </trkpt>
      <trkpt lat="50.15722" lon="3.64347">
        <ele>154.19999694824</ele>
        <time>2020-08-16T09:12:29.000Z</time>
      </trkpt>
      <trkpt lat="50.15717" lon="3.64346">
        <ele>153.80000305176</ele>
        <time>2020-08-16T09:12:30.000Z</time>
      </trkpt>
      <trkpt lat="50.15706" lon="3.6435">
        <ele>153.80000305176</ele>
        <time>2020-08-16T09:12:32.000Z</time>
      </trkpt>
      <trkpt lat="50.15701" lon="3.64352">
        <ele>153.80000305176</ele>
        <time>2020-08-16T09:12:33.000Z</time>
      </trkpt>
      <trkpt lat="50.15678" lon="3.64361">
        <ele>153.39999389648</ele>
        <time>2020-08-16T09:12:37.000Z</time>
      </trkpt>
      <trkpt lat="50.15673" lon="3.64362">
        <ele>153</ele>
        <time>2020-08-16T09:12:38.000Z</time>
      </trkpt>
      <trkpt lat="50.15669" lon="3.64362">
        <ele>152.60000610352</ele>
        <time>2020-08-16T09:12:39.000Z</time>
      </trkpt>
      <trkpt lat="50.15667" lon="3.64361">
        <ele>152.19999694824</ele>
        <time>2020-08-16T09:12:40.000Z</time>
      </trkpt>
      <trkpt lat="50.15665" lon="3.64361">
        <ele>151.80000305176</ele>
        <time>2020-08-16T09:12:41.000Z</time>
      </trkpt>
      <trkpt lat="50.15662" lon="3.64362">
        <ele>151.80000305176</ele>
        <time>2020-08-16T09:12:42.000Z</time>
      </trkpt>
      <trkpt lat="50.15645" lon="3.64378">
        <ele>151.80000305176</ele>
        <time>2020-08-16T09:12:46.000Z</time>
      </trkpt>
      <trkpt lat="50.15634" lon="3.64388">
        <ele>151.39999389648</ele>
        <time>2020-08-16T09:12:48.000Z</time>
      </trkpt>
      <trkpt lat="50.15628" lon="3.64392">
        <ele>151</ele>
        <time>2020-08-16T09:12:49.000Z</time>
      </trkpt>
      <trkpt lat="50.15622" lon="3.64397">
        <ele>150.60000610352</ele>
        <time>2020-08-16T09:12:50.000Z</time>
      </trkpt>
      <trkpt lat="50.15616" lon="3.64402">
        <ele>150.19999694824</ele>
        <time>2020-08-16T09:12:51.000Z</time>
      </trkpt>
      <trkpt lat="50.1561" lon="3.64407">
        <ele>149.80000305176</ele>
        <time>2020-08-16T09:12:52.000Z</time>
      </trkpt>
      <trkpt lat="50.15572" lon="3.6443">
        <ele>149.80000305176</ele>
        <time>2020-08-16T09:12:58.000Z</time>
      </trkpt>
      <trkpt lat="50.15547" lon="3.64443">
        <ele>149.39999389648</ele>
        <time>2020-08-16T09:13:02.000Z</time>
      </trkpt>
      <trkpt lat="50.15541" lon="3.64447">
        <ele>149</ele>
        <time>2020-08-16T09:13:03.000Z</time>
      </trkpt>
      <trkpt lat="50.15536" lon="3.6445">
        <ele>148.60000610352</ele>
        <time>2020-08-16T09:13:04.000Z</time>
      </trkpt>
      <trkpt lat="50.1553" lon="3.64454">
        <ele>148</ele>
        <time>2020-08-16T09:13:05.000Z</time>
      </trkpt>
      <trkpt lat="50.15525" lon="3.64457">
        <ele>147.60000610352</ele>
        <time>2020-08-16T09:13:06.000Z</time>
      </trkpt>
      <trkpt lat="50.15519" lon="3.64461">
        <ele>147.60000610352</ele>
        <time>2020-08-16T09:13:07.000Z</time>
      </trkpt>
      <trkpt lat="50.15465" lon="3.64499">
        <ele>147.60000610352</ele>
        <time>2020-08-16T09:13:17.000Z</time>
      </trkpt>
      <trkpt lat="50.15426" lon="3.64526">
        <ele>148.19999694824</ele>
        <time>2020-08-16T09:13:24.000Z</time>
      </trkpt>
      <trkpt lat="50.1542" lon="3.6453">
        <ele>148.60000610352</ele>
        <time>2020-08-16T09:13:25.000Z</time>
      </trkpt>
      <trkpt lat="50.15414" lon="3.64534">
        <ele>149</ele>
        <time>2020-08-16T09:13:26.000Z</time>
      </trkpt>
      <trkpt lat="50.15408" lon="3.64538">
        <ele>149.39999389648</ele>
        <time>2020-08-16T09:13:27.000Z</time>
      </trkpt>
      <trkpt lat="50.15402" lon="3.64542">
        <ele>149.80000305176</ele>
        <time>2020-08-16T09:13:28.000Z</time>
      </trkpt>
      <trkpt lat="50.15385" lon="3.64554">
        <ele>149.80000305176</ele>
        <time>2020-08-16T09:13:31.000Z</time>
      </trkpt>
      <trkpt lat="50.15333" lon="3.6459">
        <ele>149.80000305176</ele>
        <time>2020-08-16T09:13:40.000Z</time>
      </trkpt>
      <trkpt lat="50.15316" lon="3.64601">
        <ele>150.19999694824</ele>
        <time>2020-08-16T09:13:43.000Z</time>
      </trkpt>
      <trkpt lat="50.15311" lon="3.64604">
        <ele>150.60000610352</ele>
        <time>2020-08-16T09:13:44.000Z</time>
      </trkpt>
      <trkpt lat="50.15306" lon="3.64608">
        <ele>151.19999694824</ele>
        <time>2020-08-16T09:13:45.000Z</time>
      </trkpt>
      <trkpt lat="50.15301" lon="3.64612">
        <ele>151.60000610352</ele>
        <time>2020-08-16T09:13:46.000Z</time>
      </trkpt>
      <trkpt lat="50.15296" lon="3.64615">
        <ele>152</ele>
        <time>2020-08-16T09:13:47.000Z</time>
      </trkpt>
      <trkpt lat="50.15246" lon="3.64648">
        <ele>152</ele>
        <time>2020-08-16T09:13:57.000Z</time>
      </trkpt>
      <trkpt lat="50.15193" lon="3.64683">
        <ele>152</ele>
        <time>2020-08-16T09:14:08.000Z</time>
      </trkpt>
      <trkpt lat="50.15169" lon="3.647">
        <ele>152</ele>
        <time>2020-08-16T09:14:13.000Z</time>
      </trkpt>
      <trkpt lat="50.15138" lon="3.64729">
        <ele>152.39999389648</ele>
        <time>2020-08-16T09:14:20.000Z</time>
      </trkpt>
      <trkpt lat="50.15134" lon="3.64734">
        <ele>152.80000305176</ele>
        <time>2020-08-16T09:14:21.000Z</time>
      </trkpt>
      <trkpt lat="50.1513" lon="3.64739">
        <ele>153.19999694824</ele>
        <time>2020-08-16T09:14:22.000Z</time>
      </trkpt>
      <trkpt lat="50.15126" lon="3.64745">
        <ele>153.60000610352</ele>
        <time>2020-08-16T09:14:23.000Z</time>
      </trkpt>
      <trkpt lat="50.15122" lon="3.64751">
        <ele>154</ele>
        <time>2020-08-16T09:14:24.000Z</time>
      </trkpt>
      <trkpt lat="50.151" lon="3.64789">
        <ele>154</ele>
        <time>2020-08-16T09:14:30.000Z</time>
      </trkpt>
      <trkpt lat="50.15065" lon="3.6486">
        <ele>154</ele>
        <time>2020-08-16T09:14:40.000Z</time>
      </trkpt>
      <trkpt lat="50.15033" lon="3.64931">
        <ele>154</ele>
        <time>2020-08-16T09:14:50.000Z</time>
      </trkpt>
      <trkpt lat="50.1503" lon="3.64939">
        <ele>154</ele>
        <time>2020-08-16T09:14:51.000Z</time>
      </trkpt>
      <trkpt lat="50.15021" lon="3.6496">
        <ele>154.39999389648</ele>
        <time>2020-08-16T09:14:54.000Z</time>
      </trkpt>
      <trkpt lat="50.15018" lon="3.64968">
        <ele>154.80000305176</ele>
        <time>2020-08-16T09:14:55.000Z</time>
      </trkpt>
      <trkpt lat="50.15014" lon="3.64974">
        <ele>155.19999694824</ele>
        <time>2020-08-16T09:14:56.000Z</time>
      </trkpt>
      <trkpt lat="50.15011" lon="3.64981">
        <ele>155.60000610352</ele>
        <time>2020-08-16T09:14:57.000Z</time>
      </trkpt>
      <trkpt lat="50.15008" lon="3.64988">
        <ele>156</ele>
        <time>2020-08-16T09:14:58.000Z</time>
      </trkpt>
      <trkpt lat="50.14997" lon="3.65013">
        <ele>156</ele>
        <time>2020-08-16T09:15:02.000Z</time>
      </trkpt>
      <trkpt lat="50.14988" lon="3.6503">
        <ele>156</ele>
        <time>2020-08-16T09:15:05.000Z</time>
      </trkpt>
      <trkpt lat="50.14978" lon="3.6505">
        <ele>156</ele>
        <time>2020-08-16T09:15:09.000Z</time>
      </trkpt>
      <trkpt lat="50.14957" lon="3.65089">
        <ele>156.60000610352</ele>
        <time>2020-08-16T09:15:17.000Z</time>
      </trkpt>
      <trkpt lat="50.14955" lon="3.65093">
        <ele>157</ele>
        <time>2020-08-16T09:15:18.000Z</time>
      </trkpt>
      <trkpt lat="50.14952" lon="3.65097">
        <ele>157.39999389648</ele>
        <time>2020-08-16T09:15:19.000Z</time>
      </trkpt>
      <trkpt lat="50.1495" lon="3.65101">
        <ele>158</ele>
        <time>2020-08-16T09:15:20.000Z</time>
      </trkpt>
      <trkpt lat="50.14947" lon="3.65106">
        <ele>158.39999389648</ele>
        <time>2020-08-16T09:15:21.000Z</time>
      </trkpt>
      <trkpt lat="50.14914" lon="3.6516">
        <ele>158.39999389648</ele>
        <time>2020-08-16T09:15:33.000Z</time>
      </trkpt>
      <trkpt lat="50.14883" lon="3.65209">
        <ele>158.39999389648</ele>
        <time>2020-08-16T09:15:43.000Z</time>
      </trkpt>
      <trkpt lat="50.14854" lon="3.65256">
        <ele>158.39999389648</ele>
        <time>2020-08-16T09:15:52.000Z</time>
      </trkpt>
      <trkpt lat="50.14819" lon="3.65323">
        <ele>158.39999389648</ele>
        <time>2020-08-16T09:16:03.000Z</time>
      </trkpt>
      <trkpt lat="50.14816" lon="3.6533">
        <ele>158.39999389648</ele>
        <time>2020-08-16T09:16:04.000Z</time>
      </trkpt>
      <trkpt lat="50.1478" lon="3.65398">
        <ele>158.39999389648</ele>
        <time>2020-08-16T09:16:15.000Z</time>
      </trkpt>
      <trkpt lat="50.1477" lon="3.65416">
        <ele>158.39999389648</ele>
        <time>2020-08-16T09:16:18.000Z</time>
      </trkpt>
      <trkpt lat="50.14736" lon="3.65471">
        <ele>158.39999389648</ele>
        <time>2020-08-16T09:16:28.000Z</time>
      </trkpt>
      <trkpt lat="50.14706" lon="3.65514">
        <ele>158.39999389648</ele>
        <time>2020-08-16T09:16:36.000Z</time>
      </trkpt>
      <trkpt lat="50.14664" lon="3.65575">
        <ele>158.39999389648</ele>
        <time>2020-08-16T09:16:47.000Z</time>
      </trkpt>
      <trkpt lat="50.14661" lon="3.65582">
        <ele>158.39999389648</ele>
        <time>2020-08-16T09:16:48.000Z</time>
      </trkpt>
      <trkpt lat="50.14643" lon="3.65633">
        <ele>158.39999389648</ele>
        <time>2020-08-16T09:16:55.000Z</time>
      </trkpt>
      <trkpt lat="50.14623" lon="3.65715">
        <ele>158.39999389648</ele>
        <time>2020-08-16T09:17:05.000Z</time>
      </trkpt>
      <trkpt lat="50.14621" lon="3.65724">
        <ele>158.39999389648</ele>
        <time>2020-08-16T09:17:06.000Z</time>
      </trkpt>
      <trkpt lat="50.14618" lon="3.65732">
        <ele>158.80000305176</ele>
        <time>2020-08-16T09:17:07.000Z</time>
      </trkpt>
      <trkpt lat="50.14616" lon="3.6574">
        <ele>159.19999694824</ele>
        <time>2020-08-16T09:17:08.000Z</time>
      </trkpt>
      <trkpt lat="50.14614" lon="3.65749">
        <ele>159.60000610352</ele>
        <time>2020-08-16T09:17:09.000Z</time>
      </trkpt>
      <trkpt lat="50.14612" lon="3.65757">
        <ele>160</ele>
        <time>2020-08-16T09:17:10.000Z</time>
      </trkpt>
      <trkpt lat="50.1461" lon="3.65765">
        <ele>160.39999389648</ele>
        <time>2020-08-16T09:17:11.000Z</time>
      </trkpt>
      <trkpt lat="50.14598" lon="3.65808">
        <ele>160.39999389648</ele>
        <time>2020-08-16T09:17:16.000Z</time>
      </trkpt>
      <trkpt lat="50.1458" lon="3.65867">
        <ele>160.39999389648</ele>
        <time>2020-08-16T09:17:23.000Z</time>
      </trkpt>
      <trkpt lat="50.14574" lon="3.65882">
        <ele>160.39999389648</ele>
        <time>2020-08-16T09:17:25.000Z</time>
      </trkpt>
      <trkpt lat="50.14563" lon="3.65912">
        <ele>160.39999389648</ele>
        <time>2020-08-16T09:17:29.000Z</time>
      </trkpt>
      <trkpt lat="50.14546" lon="3.6595">
        <ele>161</ele>
        <time>2020-08-16T09:17:35.000Z</time>
      </trkpt>
      <trkpt lat="50.14543" lon="3.65956">
        <ele>161.39999389648</ele>
        <time>2020-08-16T09:17:36.000Z</time>
      </trkpt>
      <trkpt lat="50.1454" lon="3.65962">
        <ele>161.80000305176</ele>
        <time>2020-08-16T09:17:37.000Z</time>
      </trkpt>
      <trkpt lat="50.14537" lon="3.65967">
        <ele>162.39999389648</ele>
        <time>2020-08-16T09:17:38.000Z</time>
      </trkpt>
      <trkpt lat="50.14535" lon="3.65972">
        <ele>162.80000305176</ele>
        <time>2020-08-16T09:17:39.000Z</time>
      </trkpt>
      <trkpt lat="50.14514" lon="3.6602">
        <ele>162.80000305176</ele>
        <time>2020-08-16T09:17:47.000Z</time>
      </trkpt>
      <trkpt lat="50.145" lon="3.66077">
        <ele>162.80000305176</ele>
        <time>2020-08-16T09:17:55.000Z</time>
      </trkpt>
      <trkpt lat="50.14496" lon="3.66126">
        <ele>162.80000305176</ele>
        <time>2020-08-16T09:18:02.000Z</time>
      </trkpt>
      <trkpt lat="50.14489" lon="3.66193">
        <ele>162.80000305176</ele>
        <time>2020-08-16T09:18:10.000Z</time>
      </trkpt>
      <trkpt lat="50.1448" lon="3.66236">
        <ele>162.80000305176</ele>
        <time>2020-08-16T09:18:16.000Z</time>
      </trkpt>
      <trkpt lat="50.14479" lon="3.66244">
        <ele>162.80000305176</ele>
        <time>2020-08-16T09:18:17.000Z</time>
      </trkpt>
      <trkpt lat="50.14484" lon="3.66276">
        <ele>162.80000305176</ele>
        <time>2020-08-16T09:18:21.000Z</time>
      </trkpt>
      <trkpt lat="50.14497" lon="3.66318">
        <ele>162.80000305176</ele>
        <time>2020-08-16T09:18:27.000Z</time>
      </trkpt>
      <trkpt lat="50.14502" lon="3.66346">
        <ele>162.80000305176</ele>
        <time>2020-08-16T09:18:31.000Z</time>
      </trkpt>
      <trkpt lat="50.145" lon="3.66359">
        <ele>162.80000305176</ele>
        <time>2020-08-16T09:18:33.000Z</time>
      </trkpt>
      <trkpt lat="50.14493" lon="3.66371">
        <ele>162.80000305176</ele>
        <time>2020-08-16T09:18:35.000Z</time>
      </trkpt>
      <trkpt lat="50.14485" lon="3.66384">
        <ele>162.80000305176</ele>
        <time>2020-08-16T09:18:37.000Z</time>
      </trkpt>
      <trkpt lat="50.14474" lon="3.66402">
        <ele>163.19999694824</ele>
        <time>2020-08-16T09:18:40.000Z</time>
      </trkpt>
      <trkpt lat="50.14471" lon="3.66407">
        <ele>163.60000610352</ele>
        <time>2020-08-16T09:18:41.000Z</time>
      </trkpt>
      <trkpt lat="50.14468" lon="3.66413">
        <ele>164</ele>
        <time>2020-08-16T09:18:42.000Z</time>
      </trkpt>
      <trkpt lat="50.14455" lon="3.66433">
        <ele>164.80000305176</ele>
        <time>2020-08-16T09:18:46.000Z</time>
      </trkpt>
      <trkpt lat="50.14424" lon="3.66485">
        <ele>165.19999694824</ele>
        <time>2020-08-16T09:18:56.000Z</time>
      </trkpt>
      <trkpt lat="50.1442" lon="3.6649">
        <ele>165.80000305176</ele>
        <time>2020-08-16T09:18:57.000Z</time>
      </trkpt>
      <trkpt lat="50.14417" lon="3.66496">
        <ele>166.19999694824</ele>
        <time>2020-08-16T09:18:58.000Z</time>
      </trkpt>
      <trkpt lat="50.14414" lon="3.66502">
        <ele>166.60000610352</ele>
        <time>2020-08-16T09:18:59.000Z</time>
      </trkpt>
      <trkpt lat="50.14411" lon="3.66507">
        <ele>167</ele>
        <time>2020-08-16T09:19:00.000Z</time>
      </trkpt>
      <trkpt lat="50.14374" lon="3.6657">
        <ele>167</ele>
        <time>2020-08-16T09:19:11.000Z</time>
      </trkpt>
      <trkpt lat="50.14354" lon="3.66604">
        <ele>167</ele>
        <time>2020-08-16T09:19:17.000Z</time>
      </trkpt>
      <trkpt lat="50.14316" lon="3.66668">
        <ele>167</ele>
        <time>2020-08-16T09:19:28.000Z</time>
      </trkpt>
      <trkpt lat="50.14289" lon="3.66715">
        <ele>167</ele>
        <time>2020-08-16T09:19:36.000Z</time>
      </trkpt>
      <trkpt lat="50.14251" lon="3.6678">
        <ele>167</ele>
        <time>2020-08-16T09:19:47.000Z</time>
      </trkpt>
      <trkpt lat="50.14247" lon="3.66786">
        <ele>167</ele>
        <time>2020-08-16T09:19:48.000Z</time>
      </trkpt>
      <trkpt lat="50.14209" lon="3.66851">
        <ele>167</ele>
        <time>2020-08-16T09:19:59.000Z</time>
      </trkpt>
      <trkpt lat="50.14187" lon="3.66888">
        <ele>167</ele>
        <time>2020-08-16T09:20:05.000Z</time>
      </trkpt>
      <trkpt lat="50.1415" lon="3.66953">
        <ele>167</ele>
        <time>2020-08-16T09:20:15.000Z</time>
      </trkpt>
      <trkpt lat="50.14147" lon="3.66961">
        <ele>167</ele>
        <time>2020-08-16T09:20:16.000Z</time>
      </trkpt>
      <trkpt lat="50.1412" lon="3.67013">
        <ele>167</ele>
        <time>2020-08-16T09:20:23.000Z</time>
      </trkpt>
      <trkpt lat="50.14112" lon="3.67034">
        <ele>167</ele>
        <time>2020-08-16T09:20:26.000Z</time>
      </trkpt>
      <trkpt lat="50.14111" lon="3.67041">
        <ele>167</ele>
        <time>2020-08-16T09:20:27.000Z</time>
      </trkpt>
      <trkpt lat="50.14113" lon="3.6709">
        <ele>167</ele>
        <time>2020-08-16T09:20:33.000Z</time>
      </trkpt>
      <trkpt lat="50.14115" lon="3.67148">
        <ele>167</ele>
        <time>2020-08-16T09:20:40.000Z</time>
      </trkpt>
      <trkpt lat="50.14118" lon="3.67183">
        <ele>166.60000610352</ele>
        <time>2020-08-16T09:20:44.000Z</time>
      </trkpt>
      <trkpt lat="50.14119" lon="3.67192">
        <ele>166.19999694824</ele>
        <time>2020-08-16T09:20:45.000Z</time>
      </trkpt>
      <trkpt lat="50.14122" lon="3.6721">
        <ele>165.80000305176</ele>
        <time>2020-08-16T09:20:47.000Z</time>
      </trkpt>
      <trkpt lat="50.14124" lon="3.67219">
        <ele>165.39999389648</ele>
        <time>2020-08-16T09:20:48.000Z</time>
      </trkpt>
      <trkpt lat="50.14126" lon="3.67228">
        <ele>165</ele>
        <time>2020-08-16T09:20:49.000Z</time>
      </trkpt>
      <trkpt lat="50.1413" lon="3.67254">
        <ele>165</ele>
        <time>2020-08-16T09:20:52.000Z</time>
      </trkpt>
      <trkpt lat="50.14131" lon="3.67283">
        <ele>165</ele>
        <time>2020-08-16T09:20:55.000Z</time>
      </trkpt>
      <trkpt lat="50.14129" lon="3.67301">
        <ele>165</ele>
        <time>2020-08-16T09:20:57.000Z</time>
      </trkpt>
      <trkpt lat="50.14127" lon="3.67317">
        <ele>165</ele>
        <time>2020-08-16T09:20:59.000Z</time>
      </trkpt>
      <trkpt lat="50.14125" lon="3.67347">
        <ele>165</ele>
        <time>2020-08-16T09:21:03.000Z</time>
      </trkpt>
      <trkpt lat="50.14123" lon="3.67362">
        <ele>165</ele>
        <time>2020-08-16T09:21:05.000Z</time>
      </trkpt>
      <trkpt lat="50.14115" lon="3.67437">
        <ele>165</ele>
        <time>2020-08-16T09:21:16.000Z</time>
      </trkpt>
      <trkpt lat="50.14111" lon="3.67487">
        <ele>165</ele>
        <time>2020-08-16T09:21:24.000Z</time>
      </trkpt>
      <trkpt lat="50.14107" lon="3.67546">
        <ele>165</ele>
        <time>2020-08-16T09:21:33.000Z</time>
      </trkpt>
      <trkpt lat="50.14099" lon="3.6763">
        <ele>165</ele>
        <time>2020-08-16T09:21:44.000Z</time>
      </trkpt>
      <trkpt lat="50.14093" lon="3.67697">
        <ele>165</ele>
        <time>2020-08-16T09:21:53.000Z</time>
      </trkpt>
      <trkpt lat="50.14093" lon="3.6771">
        <ele>165</ele>
        <time>2020-08-16T09:21:55.000Z</time>
      </trkpt>
      <trkpt lat="50.1409" lon="3.67736">
        <ele>165</ele>
        <time>2020-08-16T09:21:59.000Z</time>
      </trkpt>
      <trkpt lat="50.14089" lon="3.67756">
        <ele>165</ele>
        <time>2020-08-16T09:22:02.000Z</time>
      </trkpt>
      <trkpt lat="50.14079" lon="3.67817">
        <ele>165</ele>
        <time>2020-08-16T09:22:11.000Z</time>
      </trkpt>
      <trkpt lat="50.14075" lon="3.67837">
        <ele>165</ele>
        <time>2020-08-16T09:22:14.000Z</time>
      </trkpt>
      <trkpt lat="50.14069" lon="3.67865">
        <ele>165</ele>
        <time>2020-08-16T09:22:18.000Z</time>
      </trkpt>
      <trkpt lat="50.14056" lon="3.67925">
        <ele>165</ele>
        <time>2020-08-16T09:22:27.000Z</time>
      </trkpt>
      <trkpt lat="50.14042" lon="3.67984">
        <ele>165</ele>
        <time>2020-08-16T09:22:36.000Z</time>
      </trkpt>
      <trkpt lat="50.14034" lon="3.6805">
        <ele>165</ele>
        <time>2020-08-16T09:22:45.000Z</time>
      </trkpt>
      <trkpt lat="50.14027" lon="3.68119">
        <ele>165</ele>
        <time>2020-08-16T09:22:55.000Z</time>
      </trkpt>
      <trkpt lat="50.14016" lon="3.68178">
        <ele>165</ele>
        <time>2020-08-16T09:23:04.000Z</time>
      </trkpt>
      <trkpt lat="50.14012" lon="3.68196">
        <ele>165.39999389648</ele>
        <time>2020-08-16T09:23:07.000Z</time>
      </trkpt>
      <trkpt lat="50.14012" lon="3.68201">
        <ele>165.80000305176</ele>
        <time>2020-08-16T09:23:08.000Z</time>
      </trkpt>
      <trkpt lat="50.14011" lon="3.68207">
        <ele>166.39999389648</ele>
        <time>2020-08-16T09:23:09.000Z</time>
      </trkpt>
      <trkpt lat="50.1401" lon="3.68212">
        <ele>166.80000305176</ele>
        <time>2020-08-16T09:23:10.000Z</time>
      </trkpt>
      <trkpt lat="50.14009" lon="3.68218">
        <ele>167.19999694824</ele>
        <time>2020-08-16T09:23:11.000Z</time>
      </trkpt>
      <trkpt lat="50.14007" lon="3.68223">
        <ele>167.19999694824</ele>
        <time>2020-08-16T09:23:12.000Z</time>
      </trkpt>
      <trkpt lat="50.14001" lon="3.68253">
        <ele>167.60000610352</ele>
        <time>2020-08-16T09:23:18.000Z</time>
      </trkpt>
      <trkpt lat="50.14" lon="3.68259">
        <ele>168.19999694824</ele>
        <time>2020-08-16T09:23:19.000Z</time>
      </trkpt>
      <trkpt lat="50.13998" lon="3.68264">
        <ele>168.60000610352</ele>
        <time>2020-08-16T09:23:20.000Z</time>
      </trkpt>
      <trkpt lat="50.13997" lon="3.68269">
        <ele>169</ele>
        <time>2020-08-16T09:23:21.000Z</time>
      </trkpt>
      <trkpt lat="50.13996" lon="3.68274">
        <ele>169.39999389648</ele>
        <time>2020-08-16T09:23:22.000Z</time>
      </trkpt>
      <trkpt lat="50.13985" lon="3.68325">
        <ele>169.39999389648</ele>
        <time>2020-08-16T09:23:30.000Z</time>
      </trkpt>
      <trkpt lat="50.13978" lon="3.68397">
        <ele>169.39999389648</ele>
        <time>2020-08-16T09:23:40.000Z</time>
      </trkpt>
      <trkpt lat="50.13974" lon="3.68468">
        <ele>169.39999389648</ele>
        <time>2020-08-16T09:23:49.000Z</time>
      </trkpt>
      <trkpt lat="50.13972" lon="3.68542">
        <ele>169.39999389648</ele>
        <time>2020-08-16T09:23:58.000Z</time>
      </trkpt>
      <trkpt lat="50.13971" lon="3.6855">
        <ele>169.39999389648</ele>
        <time>2020-08-16T09:23:59.000Z</time>
      </trkpt>
      <trkpt lat="50.13969" lon="3.68637">
        <ele>169.39999389648</ele>
        <time>2020-08-16T09:24:10.000Z</time>
      </trkpt>
      <trkpt lat="50.13965" lon="3.68724">
        <ele>169.39999389648</ele>
        <time>2020-08-16T09:24:21.000Z</time>
      </trkpt>
      <trkpt lat="50.13965" lon="3.68732">
        <ele>169.39999389648</ele>
        <time>2020-08-16T09:24:22.000Z</time>
      </trkpt>
      <trkpt lat="50.13965" lon="3.6874">
        <ele>169</ele>
        <time>2020-08-16T09:24:23.000Z</time>
      </trkpt>
      <trkpt lat="50.13964" lon="3.68748">
        <ele>168.60000610352</ele>
        <time>2020-08-16T09:24:24.000Z</time>
      </trkpt>
      <trkpt lat="50.13963" lon="3.68756">
        <ele>168</ele>
        <time>2020-08-16T09:24:25.000Z</time>
      </trkpt>
      <trkpt lat="50.13963" lon="3.68765">
        <ele>167.60000610352</ele>
        <time>2020-08-16T09:24:26.000Z</time>
      </trkpt>
      <trkpt lat="50.13962" lon="3.68772">
        <ele>167.19999694824</ele>
        <time>2020-08-16T09:24:27.000Z</time>
      </trkpt>
      <trkpt lat="50.1396" lon="3.68795">
        <ele>167.19999694824</ele>
        <time>2020-08-16T09:24:30.000Z</time>
      </trkpt>
      <trkpt lat="50.1396" lon="3.68802">
        <ele>167.19999694824</ele>
        <time>2020-08-16T09:24:31.000Z</time>
      </trkpt>
      <trkpt lat="50.13957" lon="3.68866">
        <ele>167.19999694824</ele>
        <time>2020-08-16T09:24:39.000Z</time>
      </trkpt>
      <trkpt lat="50.13952" lon="3.68934">
        <ele>167.19999694824</ele>
        <time>2020-08-16T09:24:48.000Z</time>
      </trkpt>
      <trkpt lat="50.13948" lon="3.69006">
        <ele>167.19999694824</ele>
        <time>2020-08-16T09:24:58.000Z</time>
      </trkpt>
      <trkpt lat="50.1394" lon="3.69062">
        <ele>166.80000305176</ele>
        <time>2020-08-16T09:25:05.000Z</time>
      </trkpt>
      <trkpt lat="50.13939" lon="3.69072">
        <ele>166.39999389648</ele>
        <time>2020-08-16T09:25:06.000Z</time>
      </trkpt>
      <trkpt lat="50.13937" lon="3.69081">
        <ele>166</ele>
        <time>2020-08-16T09:25:07.000Z</time>
      </trkpt>
      <trkpt lat="50.13935" lon="3.69091">
        <ele>165.60000610352</ele>
        <time>2020-08-16T09:25:08.000Z</time>
      </trkpt>
      <trkpt lat="50.13933" lon="3.691">
        <ele>165</ele>
        <time>2020-08-16T09:25:09.000Z</time>
      </trkpt>
      <trkpt lat="50.13932" lon="3.69111">
        <ele>165</ele>
        <time>2020-08-16T09:25:10.000Z</time>
      </trkpt>
      <trkpt lat="50.13933" lon="3.69131">
        <ele>165</ele>
        <time>2020-08-16T09:25:12.000Z</time>
      </trkpt>
      <trkpt lat="50.13936" lon="3.69162">
        <ele>164.60000610352</ele>
        <time>2020-08-16T09:25:15.000Z</time>
      </trkpt>
      <trkpt lat="50.13937" lon="3.69172">
        <ele>164.19999694824</ele>
        <time>2020-08-16T09:25:16.000Z</time>
      </trkpt>
      <trkpt lat="50.13938" lon="3.69183">
        <ele>163.80000305176</ele>
        <time>2020-08-16T09:25:17.000Z</time>
      </trkpt>
      <trkpt lat="50.13939" lon="3.69194">
        <ele>163.39999389648</ele>
        <time>2020-08-16T09:25:18.000Z</time>
      </trkpt>
      <trkpt lat="50.13939" lon="3.69205">
        <ele>163</ele>
        <time>2020-08-16T09:25:19.000Z</time>
      </trkpt>
      <trkpt lat="50.13936" lon="3.69265">
        <ele>163</ele>
        <time>2020-08-16T09:25:25.000Z</time>
      </trkpt>
      <trkpt lat="50.13925" lon="3.69318">
        <ele>163</ele>
        <time>2020-08-16T09:25:32.000Z</time>
      </trkpt>
      <trkpt lat="50.13913" lon="3.69388">
        <ele>163</ele>
        <time>2020-08-16T09:25:41.000Z</time>
      </trkpt>
      <trkpt lat="50.13913" lon="3.69398">
        <ele>162.60000610352</ele>
        <time>2020-08-16T09:25:42.000Z</time>
      </trkpt>
      <trkpt lat="50.13912" lon="3.69407">
        <ele>162.19999694824</ele>
        <time>2020-08-16T09:25:43.000Z</time>
      </trkpt>
      <trkpt lat="50.13911" lon="3.69416">
        <ele>161.80000305176</ele>
        <time>2020-08-16T09:25:44.000Z</time>
      </trkpt>
      <trkpt lat="50.1391" lon="3.69425">
        <ele>161.39999389648</ele>
        <time>2020-08-16T09:25:45.000Z</time>
      </trkpt>
      <trkpt lat="50.1391" lon="3.69435">
        <ele>161</ele>
        <time>2020-08-16T09:25:46.000Z</time>
      </trkpt>
      <trkpt lat="50.13907" lon="3.69456">
        <ele>161</ele>
        <time>2020-08-16T09:25:48.000Z</time>
      </trkpt>
      <trkpt lat="50.13897" lon="3.69547">
        <ele>161</ele>
        <time>2020-08-16T09:25:56.000Z</time>
      </trkpt>
      <trkpt lat="50.13895" lon="3.69558">
        <ele>161</ele>
        <time>2020-08-16T09:25:57.000Z</time>
      </trkpt>
      <trkpt lat="50.13881" lon="3.69627">
        <ele>161</ele>
        <time>2020-08-16T09:26:04.000Z</time>
      </trkpt>
      <trkpt lat="50.13873" lon="3.69684">
        <ele>160.60000610352</ele>
        <time>2020-08-16T09:26:10.000Z</time>
      </trkpt>
      <trkpt lat="50.13872" lon="3.69694">
        <ele>160.19999694824</ele>
        <time>2020-08-16T09:26:11.000Z</time>
      </trkpt>
      <trkpt lat="50.13871" lon="3.69704">
        <ele>159.80000305176</ele>
        <time>2020-08-16T09:26:12.000Z</time>
      </trkpt>
      <trkpt lat="50.13871" lon="3.69713">
        <ele>159.39999389648</ele>
        <time>2020-08-16T09:26:13.000Z</time>
      </trkpt>
      <trkpt lat="50.1387" lon="3.69723">
        <ele>159</ele>
        <time>2020-08-16T09:26:14.000Z</time>
      </trkpt>
      <trkpt lat="50.1387" lon="3.69742">
        <ele>159</ele>
        <time>2020-08-16T09:26:16.000Z</time>
      </trkpt>
      <trkpt lat="50.13871" lon="3.69773">
        <ele>159</ele>
        <time>2020-08-16T09:26:19.000Z</time>
      </trkpt>
      <trkpt lat="50.1387" lon="3.69817">
        <ele>158.60000610352</ele>
        <time>2020-08-16T09:26:23.000Z</time>
      </trkpt>
      <trkpt lat="50.13869" lon="3.69829">
        <ele>158</ele>
        <time>2020-08-16T09:26:24.000Z</time>
      </trkpt>
      <trkpt lat="50.13868" lon="3.69841">
        <ele>157.60000610352</ele>
        <time>2020-08-16T09:26:25.000Z</time>
      </trkpt>
      <trkpt lat="50.13866" lon="3.69852">
        <ele>157.19999694824</ele>
        <time>2020-08-16T09:26:26.000Z</time>
      </trkpt>
      <trkpt lat="50.13865" lon="3.69864">
        <ele>156.80000305176</ele>
        <time>2020-08-16T09:26:27.000Z</time>
      </trkpt>
      <trkpt lat="50.13854" lon="3.69918">
        <ele>156.80000305176</ele>
        <time>2020-08-16T09:26:32.000Z</time>
      </trkpt>
      <trkpt lat="50.13851" lon="3.69941">
        <ele>156.39999389648</ele>
        <time>2020-08-16T09:26:34.000Z</time>
      </trkpt>
      <trkpt lat="50.13849" lon="3.69954">
        <ele>156</ele>
        <time>2020-08-16T09:26:35.000Z</time>
      </trkpt>
      <trkpt lat="50.13848" lon="3.69966">
        <ele>155.60000610352</ele>
        <time>2020-08-16T09:26:36.000Z</time>
      </trkpt>
      <trkpt lat="50.13846" lon="3.69979">
        <ele>155.19999694824</ele>
        <time>2020-08-16T09:26:37.000Z</time>
      </trkpt>
      <trkpt lat="50.13845" lon="3.69992">
        <ele>154.60000610352</ele>
        <time>2020-08-16T09:26:38.000Z</time>
      </trkpt>
      <trkpt lat="50.13843" lon="3.70005">
        <ele>154.19999694824</ele>
        <time>2020-08-16T09:26:39.000Z</time>
      </trkpt>
      <trkpt lat="50.13841" lon="3.70018">
        <ele>153.80000305176</ele>
        <time>2020-08-16T09:26:40.000Z</time>
      </trkpt>
      <trkpt lat="50.1384" lon="3.70031">
        <ele>153.19999694824</ele>
        <time>2020-08-16T09:26:41.000Z</time>
      </trkpt>
      <trkpt lat="50.13839" lon="3.70044">
        <ele>152.80000305176</ele>
        <time>2020-08-16T09:26:42.000Z</time>
      </trkpt>
      <trkpt lat="50.13837" lon="3.70057">
        <ele>152.39999389648</ele>
        <time>2020-08-16T09:26:43.000Z</time>
      </trkpt>
      <trkpt lat="50.13836" lon="3.7008">
        <ele>152.39999389648</ele>
        <time>2020-08-16T09:26:45.000Z</time>
      </trkpt>
      <trkpt lat="50.13837" lon="3.7009">
        <ele>152.39999389648</ele>
        <time>2020-08-16T09:26:46.000Z</time>
      </trkpt>
      <trkpt lat="50.13843" lon="3.70113">
        <ele>152</ele>
        <time>2020-08-16T09:26:48.000Z</time>
      </trkpt>
      <trkpt lat="50.13846" lon="3.70124">
        <ele>151.60000610352</ele>
        <time>2020-08-16T09:26:49.000Z</time>
      </trkpt>
      <trkpt lat="50.1385" lon="3.70134">
        <ele>151.19999694824</ele>
        <time>2020-08-16T09:26:50.000Z</time>
      </trkpt>
      <trkpt lat="50.13853" lon="3.70144">
        <ele>150.80000305176</ele>
        <time>2020-08-16T09:26:51.000Z</time>
      </trkpt>
      <trkpt lat="50.13854" lon="3.70155">
        <ele>150.39999389648</ele>
        <time>2020-08-16T09:26:52.000Z</time>
      </trkpt>
      <trkpt lat="50.13852" lon="3.70167">
        <ele>150</ele>
        <time>2020-08-16T09:26:53.000Z</time>
      </trkpt>
      <trkpt lat="50.13849" lon="3.70178">
        <ele>149.60000610352</ele>
        <time>2020-08-16T09:26:54.000Z</time>
      </trkpt>
      <trkpt lat="50.13846" lon="3.7019">
        <ele>149</ele>
        <time>2020-08-16T09:26:55.000Z</time>
      </trkpt>
      <trkpt lat="50.13843" lon="3.702">
        <ele>148.60000610352</ele>
        <time>2020-08-16T09:26:56.000Z</time>
      </trkpt>
      <trkpt lat="50.13839" lon="3.70211">
        <ele>148.19999694824</ele>
        <time>2020-08-16T09:26:57.000Z</time>
      </trkpt>
      <trkpt lat="50.13835" lon="3.70221">
        <ele>147.60000610352</ele>
        <time>2020-08-16T09:26:58.000Z</time>
      </trkpt>
      <trkpt lat="50.13831" lon="3.70232">
        <ele>147.19999694824</ele>
        <time>2020-08-16T09:26:59.000Z</time>
      </trkpt>
      <trkpt lat="50.13828" lon="3.70243">
        <ele>146.80000305176</ele>
        <time>2020-08-16T09:27:00.000Z</time>
      </trkpt>
      <trkpt lat="50.13824" lon="3.70254">
        <ele>146.19999694824</ele>
        <time>2020-08-16T09:27:01.000Z</time>
      </trkpt>
      <trkpt lat="50.13808" lon="3.70296">
        <ele>146.19999694824</ele>
        <time>2020-08-16T09:27:05.000Z</time>
      </trkpt>
      <trkpt lat="50.13794" lon="3.70323">
        <ele>146.19999694824</ele>
        <time>2020-08-16T09:27:08.000Z</time>
      </trkpt>
      <trkpt lat="50.13787" lon="3.70329">
        <ele>145.80000305176</ele>
        <time>2020-08-16T09:27:09.000Z</time>
      </trkpt>
      <trkpt lat="50.1378" lon="3.70335">
        <ele>145.39999389648</ele>
        <time>2020-08-16T09:27:10.000Z</time>
      </trkpt>
      <trkpt lat="50.13774" lon="3.70342">
        <ele>145</ele>
        <time>2020-08-16T09:27:11.000Z</time>
      </trkpt>
      <trkpt lat="50.13768" lon="3.7035">
        <ele>144.60000610352</ele>
        <time>2020-08-16T09:27:12.000Z</time>
      </trkpt>
      <trkpt lat="50.13762" lon="3.70359">
        <ele>144.19999694824</ele>
        <time>2020-08-16T09:27:13.000Z</time>
      </trkpt>
      <trkpt lat="50.13747" lon="3.70388">
        <ele>143.60000610352</ele>
        <time>2020-08-16T09:27:16.000Z</time>
      </trkpt>
      <trkpt lat="50.13742" lon="3.70398">
        <ele>143.19999694824</ele>
        <time>2020-08-16T09:27:17.000Z</time>
      </trkpt>
      <trkpt lat="50.13738" lon="3.70407">
        <ele>142.60000610352</ele>
        <time>2020-08-16T09:27:18.000Z</time>
      </trkpt>
      <trkpt lat="50.13735" lon="3.70415">
        <ele>142.19999694824</ele>
        <time>2020-08-16T09:27:19.000Z</time>
      </trkpt>
      <trkpt lat="50.13733" lon="3.70422">
        <ele>141.80000305176</ele>
        <time>2020-08-16T09:27:20.000Z</time>
      </trkpt>
      <trkpt lat="50.13729" lon="3.70427">
        <ele>141.80000305176</ele>
        <time>2020-08-16T09:27:21.000Z</time>
      </trkpt>
      <trkpt lat="50.13722" lon="3.70421">
        <ele>141.80000305176</ele>
        <time>2020-08-16T09:27:23.000Z</time>
      </trkpt>
      <trkpt lat="50.13719" lon="3.70404">
        <ele>141.80000305176</ele>
        <time>2020-08-16T09:27:25.000Z</time>
      </trkpt>
      <trkpt lat="50.13717" lon="3.70395">
        <ele>141.80000305176</ele>
        <time>2020-08-16T09:27:26.000Z</time>
      </trkpt>
      <trkpt lat="50.13703" lon="3.70345">
        <ele>141.80000305176</ele>
        <time>2020-08-16T09:27:31.000Z</time>
      </trkpt>
      <trkpt lat="50.1368" lon="3.70268">
        <ele>141.80000305176</ele>
        <time>2020-08-16T09:27:39.000Z</time>
      </trkpt>
      <trkpt lat="50.13677" lon="3.70258">
        <ele>141.80000305176</ele>
        <time>2020-08-16T09:27:40.000Z</time>
      </trkpt>
      <trkpt lat="50.13675" lon="3.70249">
        <ele>142.19999694824</ele>
        <time>2020-08-16T09:27:41.000Z</time>
      </trkpt>
      <trkpt lat="50.13672" lon="3.70241">
        <ele>142.60000610352</ele>
        <time>2020-08-16T09:27:42.000Z</time>
      </trkpt>
      <trkpt lat="50.1367" lon="3.70233">
        <ele>143</ele>
        <time>2020-08-16T09:27:43.000Z</time>
      </trkpt>
      <trkpt lat="50.13668" lon="3.70225">
        <ele>143.39999389648</ele>
        <time>2020-08-16T09:27:44.000Z</time>
      </trkpt>
      <trkpt lat="50.13666" lon="3.70217">
        <ele>144</ele>
        <time>2020-08-16T09:27:45.000Z</time>
      </trkpt>
      <trkpt lat="50.13662" lon="3.702">
        <ele>144</ele>
        <time>2020-08-16T09:27:47.000Z</time>
      </trkpt>
      <trkpt lat="50.13657" lon="3.70183">
        <ele>144.39999389648</ele>
        <time>2020-08-16T09:27:49.000Z</time>
      </trkpt>
      <trkpt lat="50.13656" lon="3.70175">
        <ele>144.80000305176</ele>
        <time>2020-08-16T09:27:50.000Z</time>
      </trkpt>
      <trkpt lat="50.13655" lon="3.70168">
        <ele>145.39999389648</ele>
        <time>2020-08-16T09:27:51.000Z</time>
      </trkpt>
      <trkpt lat="50.13654" lon="3.70161">
        <ele>145.80000305176</ele>
        <time>2020-08-16T09:27:52.000Z</time>
      </trkpt>
      <trkpt lat="50.13652" lon="3.70154">
        <ele>146.19999694824</ele>
        <time>2020-08-16T09:27:53.000Z</time>
      </trkpt>
      <trkpt lat="50.13643" lon="3.70119">
        <ele>147.19999694824</ele>
        <time>2020-08-16T09:27:58.000Z</time>
      </trkpt>
      <trkpt lat="50.1364" lon="3.70113">
        <ele>147.60000610352</ele>
        <time>2020-08-16T09:27:59.000Z</time>
      </trkpt>
      <trkpt lat="50.13637" lon="3.70106">
        <ele>148</ele>
        <time>2020-08-16T09:28:00.000Z</time>
      </trkpt>
      <trkpt lat="50.13634" lon="3.70099">
        <ele>148.60000610352</ele>
        <time>2020-08-16T09:28:01.000Z</time>
      </trkpt>
      <trkpt lat="50.13631" lon="3.70093">
        <ele>148.60000610352</ele>
        <time>2020-08-16T09:28:02.000Z</time>
      </trkpt>
      <trkpt lat="50.13622" lon="3.70078">
        <ele>148.60000610352</ele>
        <time>2020-08-16T09:28:05.000Z</time>
      </trkpt>
      <trkpt lat="50.13615" lon="3.70065">
        <ele>149</ele>
        <time>2020-08-16T09:28:08.000Z</time>
      </trkpt>
      <trkpt lat="50.13613" lon="3.70061">
        <ele>149.39999389648</ele>
        <time>2020-08-16T09:28:09.000Z</time>
      </trkpt>
      <trkpt lat="50.13611" lon="3.70057">
        <ele>149.80000305176</ele>
        <time>2020-08-16T09:28:10.000Z</time>
      </trkpt>
      <trkpt lat="50.13609" lon="3.70052">
        <ele>150.19999694824</ele>
        <time>2020-08-16T09:28:11.000Z</time>
      </trkpt>
      <trkpt lat="50.13607" lon="3.70047">
        <ele>150.60000610352</ele>
        <time>2020-08-16T09:28:12.000Z</time>
      </trkpt>
      <trkpt lat="50.13592" lon="3.70004">
        <ele>150.60000610352</ele>
        <time>2020-08-16T09:28:20.000Z</time>
      </trkpt>
      <trkpt lat="50.13583" lon="3.69974">
        <ele>150.60000610352</ele>
        <time>2020-08-16T09:28:25.000Z</time>
      </trkpt>
      <trkpt lat="50.13575" lon="3.69947">
        <ele>150.60000610352</ele>
        <time>2020-08-16T09:28:29.000Z</time>
      </trkpt>
      <trkpt lat="50.13559" lon="3.69891">
        <ele>150.60000610352</ele>
        <time>2020-08-16T09:28:36.000Z</time>
      </trkpt>
      <trkpt lat="50.13544" lon="3.69819">
        <ele>150.60000610352</ele>
        <time>2020-08-16T09:28:44.000Z</time>
      </trkpt>
      <trkpt lat="50.13526" lon="3.69755">
        <ele>150.60000610352</ele>
        <time>2020-08-16T09:28:52.000Z</time>
      </trkpt>
      <trkpt lat="50.13504" lon="3.69688">
        <ele>150.60000610352</ele>
        <time>2020-08-16T09:29:01.000Z</time>
      </trkpt>
      <trkpt lat="50.13474" lon="3.69619">
        <ele>150.60000610352</ele>
        <time>2020-08-16T09:29:11.000Z</time>
      </trkpt>
      <trkpt lat="50.13438" lon="3.6955">
        <ele>150.60000610352</ele>
        <time>2020-08-16T09:29:21.000Z</time>
      </trkpt>
      <trkpt lat="50.13416" lon="3.69486">
        <ele>150.60000610352</ele>
        <time>2020-08-16T09:29:29.000Z</time>
      </trkpt>
      <trkpt lat="50.13401" lon="3.69439">
        <ele>150.60000610352</ele>
        <time>2020-08-16T09:29:35.000Z</time>
      </trkpt>
      <trkpt lat="50.13387" lon="3.69394">
        <ele>150.60000610352</ele>
        <time>2020-08-16T09:29:41.000Z</time>
      </trkpt>
      <trkpt lat="50.13385" lon="3.69386">
        <ele>151</ele>
        <time>2020-08-16T09:29:42.000Z</time>
      </trkpt>
      <trkpt lat="50.13382" lon="3.69377">
        <ele>151.39999389648</ele>
        <time>2020-08-16T09:29:43.000Z</time>
      </trkpt>
      <trkpt lat="50.13379" lon="3.69368">
        <ele>151.80000305176</ele>
        <time>2020-08-16T09:29:44.000Z</time>
      </trkpt>
      <trkpt lat="50.13376" lon="3.69359">
        <ele>152.19999694824</ele>
        <time>2020-08-16T09:29:45.000Z</time>
      </trkpt>
      <trkpt lat="50.13374" lon="3.6935">
        <ele>152.60000610352</ele>
        <time>2020-08-16T09:29:46.000Z</time>
      </trkpt>
      <trkpt lat="50.13366" lon="3.69323">
        <ele>152.60000610352</ele>
        <time>2020-08-16T09:29:49.000Z</time>
      </trkpt>
      <trkpt lat="50.13343" lon="3.6924">
        <ele>152.60000610352</ele>
        <time>2020-08-16T09:29:58.000Z</time>
      </trkpt>
      <trkpt lat="50.13341" lon="3.6923">
        <ele>152.60000610352</ele>
        <time>2020-08-16T09:29:59.000Z</time>
      </trkpt>
      <trkpt lat="50.13323" lon="3.69163">
        <ele>152.60000610352</ele>
        <time>2020-08-16T09:30:05.000Z</time>
      </trkpt>
      <trkpt lat="50.1332" lon="3.69151">
        <ele>151.80000305176</ele>
        <time>2020-08-16T09:30:06.000Z</time>
      </trkpt>
      <trkpt lat="50.13316" lon="3.6914">
        <ele>151.19999694824</ele>
        <time>2020-08-16T09:30:07.000Z</time>
      </trkpt>
      <trkpt lat="50.13313" lon="3.69128">
        <ele>150.80000305176</ele>
        <time>2020-08-16T09:30:08.000Z</time>
      </trkpt>
      <trkpt lat="50.1329" lon="3.69072">
        <ele>150.19999694824</ele>
        <time>2020-08-16T09:30:13.000Z</time>
      </trkpt>
      <trkpt lat="50.13283" lon="3.69061">
        <ele>149.80000305176</ele>
        <time>2020-08-16T09:30:14.000Z</time>
      </trkpt>
      <trkpt lat="50.1327" lon="3.69042">
        <ele>148.80000305176</ele>
        <time>2020-08-16T09:30:16.000Z</time>
      </trkpt>
      <trkpt lat="50.13264" lon="3.69032">
        <ele>148.19999694824</ele>
        <time>2020-08-16T09:30:17.000Z</time>
      </trkpt>
      <trkpt lat="50.13258" lon="3.69024">
        <ele>148.19999694824</ele>
        <time>2020-08-16T09:30:18.000Z</time>
      </trkpt>
      <trkpt lat="50.13214" lon="3.68961">
        <ele>148.19999694824</ele>
        <time>2020-08-16T09:30:25.000Z</time>
      </trkpt>
      <trkpt lat="50.13208" lon="3.68951">
        <ele>147.80000305176</ele>
        <time>2020-08-16T09:30:26.000Z</time>
      </trkpt>
      <trkpt lat="50.13202" lon="3.68942">
        <ele>147.39999389648</ele>
        <time>2020-08-16T09:30:27.000Z</time>
      </trkpt>
      <trkpt lat="50.13196" lon="3.68933">
        <ele>147</ele>
        <time>2020-08-16T09:30:28.000Z</time>
      </trkpt>
      <trkpt lat="50.1319" lon="3.68924">
        <ele>146.60000610352</ele>
        <time>2020-08-16T09:30:29.000Z</time>
      </trkpt>
      <trkpt lat="50.13184" lon="3.68916">
        <ele>146.19999694824</ele>
        <time>2020-08-16T09:30:30.000Z</time>
      </trkpt>
      <trkpt lat="50.13161" lon="3.68883">
        <ele>145.80000305176</ele>
        <time>2020-08-16T09:30:34.000Z</time>
      </trkpt>
      <trkpt lat="50.13155" lon="3.68874">
        <ele>145.39999389648</ele>
        <time>2020-08-16T09:30:35.000Z</time>
      </trkpt>
      <trkpt lat="50.13149" lon="3.68865">
        <ele>145</ele>
        <time>2020-08-16T09:30:36.000Z</time>
      </trkpt>
      <trkpt lat="50.13143" lon="3.68857">
        <ele>144.60000610352</ele>
        <time>2020-08-16T09:30:37.000Z</time>
      </trkpt>
      <trkpt lat="50.13137" lon="3.68848">
        <ele>144.19999694824</ele>
        <time>2020-08-16T09:30:38.000Z</time>
      </trkpt>
      <trkpt lat="50.13097" lon="3.68787">
        <ele>144.19999694824</ele>
        <time>2020-08-16T09:30:45.000Z</time>
      </trkpt>
      <trkpt lat="50.13063" lon="3.68715">
        <ele>144.19999694824</ele>
        <time>2020-08-16T09:30:52.000Z</time>
      </trkpt>
      <trkpt lat="50.13058" lon="3.68704">
        <ele>143.60000610352</ele>
        <time>2020-08-16T09:30:53.000Z</time>
      </trkpt>
      <trkpt lat="50.13054" lon="3.68694">
        <ele>143.19999694824</ele>
        <time>2020-08-16T09:30:54.000Z</time>
      </trkpt>
      <trkpt lat="50.13049" lon="3.68683">
        <ele>142.80000305176</ele>
        <time>2020-08-16T09:30:55.000Z</time>
      </trkpt>
      <trkpt lat="50.13044" lon="3.68673">
        <ele>142.39999389648</ele>
        <time>2020-08-16T09:30:56.000Z</time>
      </trkpt>
      <trkpt lat="50.13039" lon="3.68662">
        <ele>142</ele>
        <time>2020-08-16T09:30:57.000Z</time>
      </trkpt>
      <trkpt lat="50.13029" lon="3.68642">
        <ele>142</ele>
        <time>2020-08-16T09:30:59.000Z</time>
      </trkpt>
      <trkpt lat="50.13019" lon="3.68622">
        <ele>141.60000610352</ele>
        <time>2020-08-16T09:31:01.000Z</time>
      </trkpt>
      <trkpt lat="50.13014" lon="3.68613">
        <ele>141.19999694824</ele>
        <time>2020-08-16T09:31:02.000Z</time>
      </trkpt>
      <trkpt lat="50.1301" lon="3.68602">
        <ele>140.80000305176</ele>
        <time>2020-08-16T09:31:03.000Z</time>
      </trkpt>
      <trkpt lat="50.13005" lon="3.68593">
        <ele>140.19999694824</ele>
        <time>2020-08-16T09:31:04.000Z</time>
      </trkpt>
      <trkpt lat="50.13" lon="3.68584">
        <ele>139.80000305176</ele>
        <time>2020-08-16T09:31:05.000Z</time>
      </trkpt>
      <trkpt lat="50.12995" lon="3.68574">
        <ele>139.80000305176</ele>
        <time>2020-08-16T09:31:06.000Z</time>
      </trkpt>
      <trkpt lat="50.12957" lon="3.68501">
        <ele>139.80000305176</ele>
        <time>2020-08-16T09:31:14.000Z</time>
      </trkpt>
      <trkpt lat="50.12944" lon="3.68474">
        <ele>139.80000305176</ele>
        <time>2020-08-16T09:31:17.000Z</time>
      </trkpt>
      <trkpt lat="50.1294" lon="3.68452">
        <ele>139.80000305176</ele>
        <time>2020-08-16T09:31:19.000Z</time>
      </trkpt>
      <trkpt lat="50.12934" lon="3.6843">
        <ele>139.80000305176</ele>
        <time>2020-08-16T09:31:21.000Z</time>
      </trkpt>
      <trkpt lat="50.12907" lon="3.68349">
        <ele>139.80000305176</ele>
        <time>2020-08-16T09:31:29.000Z</time>
      </trkpt>
      <trkpt lat="50.12898" lon="3.6832">
        <ele>139.80000305176</ele>
        <time>2020-08-16T09:31:32.000Z</time>
      </trkpt>
      <trkpt lat="50.12891" lon="3.6829">
        <ele>139.80000305176</ele>
        <time>2020-08-16T09:31:35.000Z</time>
      </trkpt>
      <trkpt lat="50.12877" lon="3.68232">
        <ele>139.80000305176</ele>
        <time>2020-08-16T09:31:42.000Z</time>
      </trkpt>
      <trkpt lat="50.12866" lon="3.68177">
        <ele>139.80000305176</ele>
        <time>2020-08-16T09:31:49.000Z</time>
      </trkpt>
      <trkpt lat="50.12863" lon="3.6817">
        <ele>139.80000305176</ele>
        <time>2020-08-16T09:31:50.000Z</time>
      </trkpt>
      <trkpt lat="50.12851" lon="3.68141">
        <ele>139.80000305176</ele>
        <time>2020-08-16T09:31:54.000Z</time>
      </trkpt>
      <trkpt lat="50.12827" lon="3.68088">
        <ele>139.80000305176</ele>
        <time>2020-08-16T09:32:02.000Z</time>
      </trkpt>
      <trkpt lat="50.12824" lon="3.68081">
        <ele>139.80000305176</ele>
        <time>2020-08-16T09:32:03.000Z</time>
      </trkpt>
      <trkpt lat="50.12825" lon="3.68058">
        <ele>139.80000305176</ele>
        <time>2020-08-16T09:32:06.000Z</time>
      </trkpt>
      <trkpt lat="50.12835" lon="3.68046">
        <ele>139.80000305176</ele>
        <time>2020-08-16T09:32:09.000Z</time>
      </trkpt>
      <trkpt lat="50.1284" lon="3.68043">
        <ele>139.80000305176</ele>
        <time>2020-08-16T09:32:10.000Z</time>
      </trkpt>
      <trkpt lat="50.12848" lon="3.68037">
        <ele>139.80000305176</ele>
        <time>2020-08-16T09:32:12.000Z</time>
      </trkpt>
      <trkpt lat="50.12856" lon="3.68032">
        <ele>139.80000305176</ele>
        <time>2020-08-16T09:32:14.000Z</time>
      </trkpt>
      <trkpt lat="50.1288" lon="3.68018">
        <ele>140.19999694824</ele>
        <time>2020-08-16T09:32:20.000Z</time>
      </trkpt>
      <trkpt lat="50.12883" lon="3.68017">
        <ele>140.60000610352</ele>
        <time>2020-08-16T09:32:21.000Z</time>
      </trkpt>
      <trkpt lat="50.12887" lon="3.68016">
        <ele>141</ele>
        <time>2020-08-16T09:32:22.000Z</time>
      </trkpt>
      <trkpt lat="50.1289" lon="3.68018">
        <ele>141.39999389648</ele>
        <time>2020-08-16T09:32:23.000Z</time>
      </trkpt>
      <trkpt lat="50.12893" lon="3.6802">
        <ele>141.80000305176</ele>
        <time>2020-08-16T09:32:24.000Z</time>
      </trkpt>
      <trkpt lat="50.12895" lon="3.68024">
        <ele>141.80000305176</ele>
        <time>2020-08-16T09:32:25.000Z</time>
      </trkpt>
      <trkpt lat="50.12899" lon="3.68047">
        <ele>141.80000305176</ele>
        <time>2020-08-16T09:32:29.000Z</time>
      </trkpt>
      <trkpt lat="50.12899" lon="3.68055">
        <ele>141.80000305176</ele>
        <time>2020-08-16T09:32:30.000Z</time>
      </trkpt>
      <trkpt lat="50.12903" lon="3.68098">
        <ele>141.80000305176</ele>
        <time>2020-08-16T09:32:36.000Z</time>
      </trkpt>
      <trkpt lat="50.12921" lon="3.68165">
        <ele>141.80000305176</ele>
        <time>2020-08-16T09:32:45.000Z</time>
      </trkpt>
      <trkpt lat="50.12942" lon="3.68225">
        <ele>141.80000305176</ele>
        <time>2020-08-16T09:32:54.000Z</time>
      </trkpt>
      <trkpt lat="50.12951" lon="3.68256">
        <ele>141.80000305176</ele>
        <time>2020-08-16T09:32:59.000Z</time>
      </trkpt>
      <trkpt lat="50.12961" lon="3.68278">
        <ele>141.80000305176</ele>
        <time>2020-08-16T09:33:03.000Z</time>
      </trkpt>
      <trkpt lat="50.12963" lon="3.68292">
        <ele>141.80000305176</ele>
        <time>2020-08-16T09:33:05.000Z</time>
      </trkpt>
      <trkpt lat="50.1296" lon="3.68306">
        <ele>141.80000305176</ele>
        <time>2020-08-16T09:33:07.000Z</time>
      </trkpt>
      <trkpt lat="50.12945" lon="3.68315">
        <ele>141.80000305176</ele>
        <time>2020-08-16T09:33:10.000Z</time>
      </trkpt>
      <trkpt lat="50.1294" lon="3.68317">
        <ele>142.19999694824</ele>
        <time>2020-08-16T09:33:11.000Z</time>
      </trkpt>
      <trkpt lat="50.12934" lon="3.68319">
        <ele>142.80000305176</ele>
        <time>2020-08-16T09:33:12.000Z</time>
      </trkpt>
      <trkpt lat="50.12929" lon="3.6832">
        <ele>143.19999694824</ele>
        <time>2020-08-16T09:33:13.000Z</time>
      </trkpt>
      <trkpt lat="50.12924" lon="3.68323">
        <ele>143.60000610352</ele>
        <time>2020-08-16T09:33:14.000Z</time>
      </trkpt>
      <trkpt lat="50.1292" lon="3.68325">
        <ele>144</ele>
        <time>2020-08-16T09:33:15.000Z</time>
      </trkpt>
      <trkpt lat="50.12898" lon="3.68341">
        <ele>144</ele>
        <time>2020-08-16T09:33:20.000Z</time>
      </trkpt>
      <trkpt lat="50.12894" lon="3.68344">
        <ele>144.39999389648</ele>
        <time>2020-08-16T09:33:21.000Z</time>
      </trkpt>
      <trkpt lat="50.12889" lon="3.68349">
        <ele>144.80000305176</ele>
        <time>2020-08-16T09:33:22.000Z</time>
      </trkpt>
      <trkpt lat="50.12885" lon="3.68353">
        <ele>145.19999694824</ele>
        <time>2020-08-16T09:33:23.000Z</time>
      </trkpt>
      <trkpt lat="50.1288" lon="3.68358">
        <ele>145.60000610352</ele>
        <time>2020-08-16T09:33:24.000Z</time>
      </trkpt>
      <trkpt lat="50.12876" lon="3.68364">
        <ele>146</ele>
        <time>2020-08-16T09:33:25.000Z</time>
      </trkpt>
      <trkpt lat="50.12867" lon="3.68377">
        <ele>146</ele>
        <time>2020-08-16T09:33:27.000Z</time>
      </trkpt>
      <trkpt lat="50.12845" lon="3.68423">
        <ele>145.60000610352</ele>
        <time>2020-08-16T09:33:33.000Z</time>
      </trkpt>
      <trkpt lat="50.12842" lon="3.68432">
        <ele>145</ele>
        <time>2020-08-16T09:33:34.000Z</time>
      </trkpt>
      <trkpt lat="50.12839" lon="3.68441">
        <ele>144.60000610352</ele>
        <time>2020-08-16T09:33:35.000Z</time>
      </trkpt>
      <trkpt lat="50.12837" lon="3.6845">
        <ele>144.19999694824</ele>
        <time>2020-08-16T09:33:36.000Z</time>
      </trkpt>
      <trkpt lat="50.12834" lon="3.6846">
        <ele>143.60000610352</ele>
        <time>2020-08-16T09:33:37.000Z</time>
      </trkpt>
      <trkpt lat="50.1283" lon="3.68482">
        <ele>143.19999694824</ele>
        <time>2020-08-16T09:33:39.000Z</time>
      </trkpt>
      <trkpt lat="50.12828" lon="3.68493">
        <ele>142.80000305176</ele>
        <time>2020-08-16T09:33:40.000Z</time>
      </trkpt>
      <trkpt lat="50.12825" lon="3.68505">
        <ele>142.19999694824</ele>
        <time>2020-08-16T09:33:41.000Z</time>
      </trkpt>
      <trkpt lat="50.12823" lon="3.68517">
        <ele>141.60000610352</ele>
        <time>2020-08-16T09:33:42.000Z</time>
      </trkpt>
      <trkpt lat="50.1282" lon="3.68529">
        <ele>141</ele>
        <time>2020-08-16T09:33:43.000Z</time>
      </trkpt>
      <trkpt lat="50.12818" lon="3.68541">
        <ele>140.39999389648</ele>
        <time>2020-08-16T09:33:44.000Z</time>
      </trkpt>
      <trkpt lat="50.12815" lon="3.68554">
        <ele>139.80000305176</ele>
        <time>2020-08-16T09:33:45.000Z</time>
      </trkpt>
      <trkpt lat="50.12813" lon="3.68566">
        <ele>139.19999694824</ele>
        <time>2020-08-16T09:33:46.000Z</time>
      </trkpt>
      <trkpt lat="50.12805" lon="3.68597">
        <ele>138.80000305176</ele>
        <time>2020-08-16T09:33:49.000Z</time>
      </trkpt>
      <trkpt lat="50.12802" lon="3.68605">
        <ele>138.39999389648</ele>
        <time>2020-08-16T09:33:50.000Z</time>
      </trkpt>
      <trkpt lat="50.12799" lon="3.68612">
        <ele>137.80000305176</ele>
        <time>2020-08-16T09:33:51.000Z</time>
      </trkpt>
      <trkpt lat="50.12795" lon="3.68617">
        <ele>137.39999389648</ele>
        <time>2020-08-16T09:33:52.000Z</time>
      </trkpt>
      <trkpt lat="50.12789" lon="3.68618">
        <ele>137</ele>
        <time>2020-08-16T09:33:53.000Z</time>
      </trkpt>
      <trkpt lat="50.12785" lon="3.68614">
        <ele>137</ele>
        <time>2020-08-16T09:33:54.000Z</time>
      </trkpt>
      <trkpt lat="50.12773" lon="3.68591">
        <ele>137</ele>
        <time>2020-08-16T09:33:57.000Z</time>
      </trkpt>
      <trkpt lat="50.12744" lon="3.68532">
        <ele>137</ele>
        <time>2020-08-16T09:34:05.000Z</time>
      </trkpt>
      <trkpt lat="50.12736" lon="3.68511">
        <ele>137</ele>
        <time>2020-08-16T09:34:08.000Z</time>
      </trkpt>
      <trkpt lat="50.12741" lon="3.68496">
        <ele>137</ele>
        <time>2020-08-16T09:34:10.000Z</time>
      </trkpt>
      <trkpt lat="50.12751" lon="3.68487">
        <ele>137</ele>
        <time>2020-08-16T09:34:12.000Z</time>
      </trkpt>
      <trkpt lat="50.12757" lon="3.68483">
        <ele>137</ele>
        <time>2020-08-16T09:34:13.000Z</time>
      </trkpt>
      <trkpt lat="50.12777" lon="3.68468">
        <ele>137</ele>
        <time>2020-08-16T09:34:17.000Z</time>
      </trkpt>
      <trkpt lat="50.12782" lon="3.68465">
        <ele>137</ele>
        <time>2020-08-16T09:34:18.000Z</time>
      </trkpt>
      <trkpt lat="50.12797" lon="3.68449">
        <ele>137</ele>
        <time>2020-08-16T09:34:22.000Z</time>
      </trkpt>
      <trkpt lat="50.12799" lon="3.68442">
        <ele>137</ele>
        <time>2020-08-16T09:34:23.000Z</time>
      </trkpt>
      <trkpt lat="50.12793" lon="3.68419">
        <ele>137</ele>
        <time>2020-08-16T09:34:26.000Z</time>
      </trkpt>
      <trkpt lat="50.12787" lon="3.68403">
        <ele>137</ele>
        <time>2020-08-16T09:34:28.000Z</time>
      </trkpt>
      <trkpt lat="50.12782" lon="3.68387">
        <ele>137</ele>
        <time>2020-08-16T09:34:30.000Z</time>
      </trkpt>
      <trkpt lat="50.12767" lon="3.6834">
        <ele>136.39999389648</ele>
        <time>2020-08-16T09:34:35.000Z</time>
      </trkpt>
      <trkpt lat="50.12764" lon="3.68331">
        <ele>136</ele>
        <time>2020-08-16T09:34:36.000Z</time>
      </trkpt>
      <trkpt lat="50.12761" lon="3.68321">
        <ele>135.39999389648</ele>
        <time>2020-08-16T09:34:37.000Z</time>
      </trkpt>
      <trkpt lat="50.12758" lon="3.68311">
        <ele>134.80000305176</ele>
        <time>2020-08-16T09:34:38.000Z</time>
      </trkpt>
      <trkpt lat="50.12755" lon="3.68301">
        <ele>134.19999694824</ele>
        <time>2020-08-16T09:34:39.000Z</time>
      </trkpt>
      <trkpt lat="50.12735" lon="3.68241">
        <ele>134.19999694824</ele>
        <time>2020-08-16T09:34:45.000Z</time>
      </trkpt>
      <trkpt lat="50.12706" lon="3.68166">
        <ele>134.19999694824</ele>
        <time>2020-08-16T09:34:53.000Z</time>
      </trkpt>
      <trkpt lat="50.12673" lon="3.68102">
        <ele>134.19999694824</ele>
        <time>2020-08-16T09:35:01.000Z</time>
      </trkpt>
      <trkpt lat="50.12645" lon="3.68037">
        <ele>134.19999694824</ele>
        <time>2020-08-16T09:35:10.000Z</time>
      </trkpt>
      <trkpt lat="50.12615" lon="3.67985">
        <ele>134.19999694824</ele>
        <time>2020-08-16T09:35:17.000Z</time>
      </trkpt>
      <trkpt lat="50.12606" lon="3.67962">
        <ele>133.80000305176</ele>
        <time>2020-08-16T09:35:20.000Z</time>
      </trkpt>
      <trkpt lat="50.12602" lon="3.67954">
        <ele>133.39999389648</ele>
        <time>2020-08-16T09:35:21.000Z</time>
      </trkpt>
      <trkpt lat="50.12599" lon="3.67946">
        <ele>133</ele>
        <time>2020-08-16T09:35:22.000Z</time>
      </trkpt>
      <trkpt lat="50.12595" lon="3.67938">
        <ele>132.60000610352</ele>
        <time>2020-08-16T09:35:23.000Z</time>
      </trkpt>
      <trkpt lat="50.12591" lon="3.67931">
        <ele>132.19999694824</ele>
        <time>2020-08-16T09:35:24.000Z</time>
      </trkpt>
      <trkpt lat="50.12577" lon="3.6791">
        <ele>132.19999694824</ele>
        <time>2020-08-16T09:35:27.000Z</time>
      </trkpt>
    </trkseg>
  </trk>
</gpx>